[[[{"header":{"parameterUnit":"kt","parameterCategory":2,"dx":1,"dy":1,"la1":29.285339999999998,"la2":30.599998999999997,"lo1":-89.70041500000002,"lo2":-87.6738589999976,"nx":112,"ny":82,"refTime":"2022-09-24T06:00:00:Z","depth":0,"parameterNumber":1,"parameterNumberName":"U-component_of_WINDS"},"data":[1.717,1.8261,1.8988,1.872,1.8464,1.8468,1.8525,1.8602,1.8695,1.9509,1.9305,1.8782,1.8324,1.8166,1.7552,1.6145,1.5624,1.508,0.0,1.4458,0.0,0.0,0.0,0.0,0.0,0.0,0.0,0.0,0.0,0.0,0.0,2.0919,2.0941,2.0207,2.0467,2.0303,1.9832,2.0516,2.0853,2.1041,2.2028,2.2687,2.3188,2.4198,2.4862,2.5193,2.4708,2.4106,2.3242,2.2267,2.1522,2.0973,2.0323,2.0289,2.0502,2.01,2.0071,2.0291,2.0898,2.1075,2.1321,2.1819,2.1535,2.0862,2.0684,2.0179,1.9679,1.9792,1.9655,1.9474,1.9113,1.9034,1.8958,1.8379,1.8586,1.8945,1.8762,1.9235,1.9475,1.8331,1.7939,1.7354,1.6011,1.5438,1.4469,1.2523,1.2134,1.1934,1.154,1.1346,1.1151,1.1151,1.0648,1.0241,1.0368,1.0376,1.0571,1.1151,1.174,1.1839,1.1857,1.2272,1.2584,1.2815,1.268,1.23,1.2098,1.2741,1.2632,1.1775,1.2553,1.3053,1.5592,1.6291,1.662,1.6772,1.6516,1.6333,1.6473,1.652,1.6794,1.7521,1.7311,1.6937,1.6951,1.6745,1.6456,1.559,1.5384,1.5058,0.0,0.0,0.0,0.0,0.0,0.0,0.0,0.0,0.0,0.0,0.0,0.0,1.913,1.9604,1.9466,1.8744,1.8931,1.8894,1.8598,1.8939,1.9492,1.9958,2.0625,2.1205,2.185,2.252,2.3188,2.402,2.3699,2.3443,2.3099,2.2124,2.1447,2.0908,2.0111,1.9951,2.0175,1.9427,1.9092,1.9092,1.9967,2.0282,2.0357,2.0853,2.0516,2.0019,1.9841,1.9512,1.9005,1.9257,1.9113,1.8933,1.839,1.8209,1.803,1.7314,1.7521,1.7847,1.7847,1.8405,1.8708,1.7746,1.6976,1.6197,1.5231,1.4463,1.3494,1.1939,1.1745,1.1545,1.0956,1.0956,1.0762,1.0567,1.007,0.9659,0.9783,0.9792,0.9987,1.0372,1.0766,1.1026,1.0962,1.1363,1.1833,1.1979,1.1844,1.1707,1.1375,1.1994,1.1919,1.1131,1.2048,1.2081,1.1543,1.1831,1.2047,1.3438,1.332,1.3156,1.3672,1.4032,1.43,1.4536,1.4899,1.5284,1.5286,1.5525,1.5595,1.5011,1.4647,0.0,0.0,0.0,0.0,0.0,0.0,0.0,0.0,0.0,0.0,0.0,0.0,0.0,1.8379,1.8371,1.808,1.7519,1.8027,1.7822,1.6876,1.7354,1.7699,1.8063,1.8582,1.9123,2.001,2.001,2.1021,2.2698,2.2687,2.2769,2.2677,2.2644,2.1876,2.0469,1.9695,1.9683,1.996,1.9419,1.8983,1.8766,1.9244,1.9343,1.9512,1.9841,1.9343,1.8665,1.9174,1.8844,1.8157,1.8177,1.8563,1.8744,1.728,1.728,1.7297,1.5762,1.6087,1.6909,1.6909,1.7447,1.7739,1.714,1.6191,1.5238,1.4264,1.3094,1.2318,1.1735,1.1545,1.135,1.0956,1.0757,1.0567,1.0186,0.9592,0.9389,0.9397,0.9393,0.9389,0.9397,0.9792,0.9995,0.9999,1.0571,1.0762,1.0766,1.0569,1.056,1.0753,1.0309,1.0488,1.1303,1.111,1.0386,1.1866,1.2264,1.2345,1.216,1.2204,1.244,1.2784,1.2791,1.289,1.3421,1.3294,0.0,0.0,0.0,1.3488,1.368,0.0,1.3866,0.0,1.3586,0.0,0.0,0.0,0.0,0.0,0.0,0.0,0.0,0.0,1.5805,1.6233,1.6992,1.6581,1.4919,1.5817,1.6221,1.6069,1.6221,1.6563,1.7085,1.7258,1.7794,1.8665,1.9174,2.0338,2.185,2.2018,2.2466,2.2648,2.13,2.0477,2.0155,1.9233,1.8976,1.8917,1.8509,1.8018,1.7665,1.7824,1.8165,1.8504,1.8504,1.8504,1.8335,1.8335,1.7995,1.7584,1.7864,1.7819,1.7422,1.6823,1.6571,1.6406,1.5589,1.5757,1.6057,1.6057,1.6563,1.6828,1.645,1.5869,1.5238,1.4264,1.2906,1.1491,1.0571,1.0482,1.0376,0.9787,0.9787,0.9787,0.9596,0.9294,0.9078,0.8812,0.9097,0.9082,0.8812,0.9206,0.9264,0.8795,0.9079,0.9465,0.9986,0.971,0.9961,1.0555,1.0946,1.072,0.9829,0.9243,0.917,0.9758,0.9956,1.0026,0.9823,0.9889,1.0336,1.1,1.1053,1.1175,1.183,0.0,0.0,0.0,0.0,0.0,0.0,1.3413,0.0,0.0,0.0,1.295,0.0,0.0,0.0,0.0,0.0,0.0,0.0,1.3428,1.3708,1.4077,1.4419,1.4375,1.3939,1.4419,1.4992,1.5777,1.529,1.5542,1.6541,1.6533,1.6712,1.726,1.7756,1.8661,1.9825,2.0651,2.1239,2.1911,2.1411,2.0941,2.0394,1.8798,1.8224,1.8192,1.7863,1.7422,1.7135,1.7013,1.7314,1.7492,1.7314,1.7314,1.7492,1.7484,1.7143,1.6703,1.6875,1.6762,1.6332,1.5962,1.5872,1.553,1.4861,1.5161,1.5572,1.5572,1.5884,1.633,1.576,1.5236,1.462,1.3543,1.1908,1.0697,1.0096,0.9997,0.9902,0.9389,0.9596,0.9596,0.9397,0.931,0.9105,0.862,0.8738,0.8723,0.823,0.8425,0.8468,0.7965,0.8085,0.8471,0.8957,0.8668,0.9095,0.9876,1.0176,0.9704,0.8607,0.8462,0.819,0.6368,0.6526,0.6635,0.7056,0.7272,0.7601,0.9032,0.0,0.9584,1.0052,0.0,1.0408,1.1293,0.0,0.0,0.0,0.0,0.0,1.1967,1.2451,1.2525,1.1429,1.1448,1.1695,1.1801,1.2124,1.1862,1.042,1.0979,1.1605,1.2039,1.1617,1.2078,1.3567,1.3438,1.3905,1.5426,1.4659,1.4826,1.5982,1.5929,1.5914,1.5945,1.5906,1.6533,1.7522,1.8651,1.9661,2.0738,2.1756,2.1778,2.0911,1.8535,1.7637,1.7512,1.7527,1.7152,1.6704,1.6675,1.6632,1.6647,1.6119,1.6119,1.6476,1.6624,1.6275,1.583,1.5794,1.5727,1.5565,1.5169,1.5007,1.4775,1.395,1.4424,1.4986,1.502,1.5491,1.5531,1.5183,1.4441,1.3363,1.2147,1.0833,0.9851,0.9812,0.9872,0.9763,0.9322,0.9767,0.9783,0.937,0.9191,0.9011,0.8432,0.8432,0.8233,0.7647,0.7647,0.7647,0.7647,0.7643,0.7643,0.7643,0.7647,0.8112,0.8872,0.8466,0.7918,0.7405,0.769,0.7235,0.6144,0.5976,0.5868,0.6192,0.63,0.6561,0.0,0.0,0.0,0.8976,0.9304,0.9584,1.0038,0.0,0.0,0.0,0.0,0.0,0.0,1.0186,0.0,0.7263,0.8889,1.003,0.9423,1.008,1.028,0.9712,0.9644,0.9896,1.049,1.0983,1.1316,1.1272,1.1942,1.269,1.3953,1.354,1.3888,1.5013,1.4319,1.4205,1.4612,1.4673,1.5476,1.6691,1.7238,1.8425,1.9709,1.9277,1.9373,1.9709,1.9216,1.8276,1.7285,1.736,1.7038,1.6691,1.6251,1.6445,1.6624,1.5777,1.5613,1.5613,1.5606,1.5606,1.5449,1.5515,1.519,1.4972,1.4737,1.468,1.4423,1.395,1.3924,1.4203,1.445,1.4416,1.4352,1.4581,1.3536,1.2116,1.078,1.0272,0.9947,0.8916,0.9151,0.9301,0.9001,0.9227,0.9152,0.8633,0.8548,0.8237,0.7457,0.765,0.7647,0.7261,0.7066,0.7066,0.7066,0.6671,0.6671,0.7066,0.7066,0.7523,0.8265,0.8265,0.7415,0.5749,0.553,0.4731,0.529,0.5435,0.5647,0.5439,0.5652,0.0,0.0,0.7297,0.7392,0.7255,0.7659,0.7989,0.8232,0.8422,0.8844,0.9894,1.0088,0.9675,0.8746,0.8106,0.7398,0.6395,0.7584,0.8629,0.856,0.8485,0.8432,0.8612,0.8021,0.814,0.8837,0.9142,0.9717,1.0533,1.0495,1.1397,1.3257,1.2638,1.2948,1.4539,1.3895,1.3818,1.3979,1.4133,1.4437,1.4906,1.5695,1.6513,1.7345,1.8181,1.8263,1.7806,1.7665,1.7093,1.6441,1.6441,1.6213,1.6035,1.6035,1.6135,1.6282,1.5606,1.5442,1.5442,1.5442,1.5099,1.4928,1.4578,1.4502,1.4236,1.3937,1.383,1.3727,1.3579,1.3476,1.3441,1.3945,1.3948,1.368,1.3482,1.2274,1.1021,1.0261,0.9692,0.9156,0.862,0.8662,0.8642,0.8642,0.8663,0.8397,0.8125,0.8188,0.7845,0.7066,0.7261,0.7258,0.6674,0.6674,0.6674,0.6674,0.6279,0.6279,0.6674,0.6674,0.6902,0.7558,0.6361,0.5142,0.4313,0.3921,0.3334,0.4551,0.4807,0.5371,0.5126,0.525,0.0,0.618,0.6283,0.6189,0.586,0.5949,0.6214,0.6576,0.6696,0.7002,0.81,0.8106,0.7274,0.505,0.5807,0.6314,0.6218,0.6407,0.6969,0.7818,0.7007,0.675,0.7431,0.6695,0.6691,0.7269,0.7259,0.7938,0.9801,0.9197,1.0066,1.2801,1.1717,1.215,1.3671,1.3602,1.3443,1.3356,1.3455,1.3438,1.3358,1.4375,1.4836,1.5247,1.7256,1.7334,1.5955,1.571,1.5414,1.5262,1.5331,1.5331,1.5208,1.5834,1.5844,1.568,1.5242,1.5099,1.4928,1.5092,1.4756,1.4241,1.3884,1.3534,1.3534,1.3203,1.3031,1.3031,1.3031,1.2849,1.2852,1.3501,1.3463,1.3122,1.2398,1.0907,0.9857,0.9816,0.88,0.8056,0.8016,0.781,0.7761,0.7668,0.7456,0.7366,0.7173,0.7391,0.7228,0.6671,0.687,0.6674,0.6083,0.6083,0.6083,0.5887,0.5887,0.5885,0.5689,0.5689,0.5887,0.6279,0.4117,0.2744,0.2548,0.2548,0.1962,0.447,0.4447,0.4745,0.538,0.535,0.0,0.5675,0.5706,0.5805,0.0,0.5417,0.5152,0.585,0.5681,0.5498,0.5622,0.6634,0.643,0.3288,0.3103,0.3357,0.3714,0.456,0.528,0.5909,0.5807,0.5905,0.6754,0.6382,0.6095,0.634,0.6184,0.6925,0.8474,0.8018,0.9055,1.2004,1.1044,1.1061,1.2053,1.2599,1.2456,1.1794,1.262,1.2936,1.2908,1.3094,1.3713,1.4751,1.5311,1.5319,1.4837,1.5463,1.5254,1.4482,1.4775,1.4724,1.4585,1.5178,1.5215,1.4872,1.4665,1.4069,1.3547,1.3884,1.3719,1.3381,1.3381,1.3024,1.2496,1.2502,1.2502,1.2502,1.2502,1.252,1.2674,1.3155,1.2764,1.2154,1.1417,1.0179,0.927,0.8588,0.7852,0.6801,0.6114,0.6049,0.5734,0.4934,0.5642,0.5778,0.5029,0.5679,0.6165,0.5682,0.6083,0.6083,0.5493,0.5493,0.5297,0.4903,0.4903,0.4707,0.4117,0.4117,0.3921,0.3528,0.2744,0.1764,0.0393,0.0393,-0.0196,0.3881,0.4356,0.4904,0.5065,0.0,0.0,0.5363,0.455,0.3661,0.3689,0.2915,0.2358,0.3353,0.3228,0.3235,0.4345,0.4133,0.3175,0.1545,0.1774,0.2156,0.2488,0.2882,0.3625,0.4355,0.4274,0.47,0.6129,0.5299,0.5199,0.6056,0.5832,0.6125,0.6948,0.7109,0.7972,0.9748,0.9465,0.9935,1.0864,1.1392,1.1418,1.1112,1.2065,1.2163,1.1705,1.2314,1.2525,1.2786,1.3257,1.3561,1.3583,1.3902,1.3703,1.3401,1.3221,1.2807,1.2202,1.26,1.2765,1.2622,1.2578,1.2724,1.2846,1.3018,1.2846,1.2852,1.2852,1.2674,1.233,1.2163,1.2163,1.2163,1.2163,1.2037,1.2306,1.2691,1.2225,1.1468,1.0025,0.8936,0.7908,0.6975,0.627,0.5572,0.4874,0.4613,0.4481,0.3909,0.4231,0.4148,0.3769,0.4025,0.4277,0.4114,0.3921,0.3921,0.3724,0.3332,0.3136,0.294,0.294,0.294,0.294,0.294,0.294,0.2743,0.0981,-0.0196,-0.0982,-0.1178,-0.1963,0.3238,0.0,0.0,0.0,0.0,0.0,0.4614,0.3429,0.2282,0.1792,0.061,0.0153,0.1512,0.1063,0.1062,0.2382,0.1659,0.0763,0.0458,0.0795,0.131,0.1801,0.186,0.2248,0.3111,0.2899,0.3355,0.0,0.4146,0.4092,0.5354,0.5153,0.5256,0.5788,0.6095,0.691,0.8119,0.8138,0.8597,0.9366,1.028,1.0656,1.0499,1.1561,1.1561,1.0807,1.1561,1.141,1.0946,1.141,1.1856,1.2019,1.1915,1.1682,1.154,1.1152,1.0617,0.9907,0.9932,0.9909,0.9936,1.006,1.0541,1.1017,1.1535,1.1579,1.1635,1.1813,1.1813,1.164,1.13,1.1133,1.1133,1.1133,1.1038,1.1289,1.1709,1.0747,0.9472,0.8127,0.7065,0.6094,0.5227,0.4355,0.3831,0.3309,0.3001,0.2497,0.2318,0.2206,0.2258,0.2082,0.231,0.2535,0.2548,0.2156,0.196,0.1961,0.1568,0.1372,0.1176,0.1176,0.1176,0.1372,0.1568,0.1372,0.1176,-0.0981,-0.2355,-0.2355,-0.2748,-0.3336,0.0,0.0,0.0,0.4843,0.5236,0.5021,0.3066,0.2638,0.2263,0.0886,-0.0458,-0.0778,0.0743,0.015,-0.0458,-0.0457,-0.0153,0.0,0.0,0.0477,0.0982,0.131,0.1336,0.1524,0.2197,0.1691,0.2029,0.3544,0.3096,0.3103,0.4047,0.396,0.4476,0.5499,0.5033,0.5794,0.7322,0.747,0.747,0.7474,0.9436,0.9889,0.9284,1.0795,1.1097,1.0342,1.0807,1.0197,0.9289,1.004,1.0186,0.9878,0.9733,0.9284,0.8707,0.8594,0.8235,0.8003,0.7729,0.7361,0.7152,0.7642,0.7412,0.7416,0.9271,0.9573,0.9384,1.0263,1.0263,0.9735,0.974,0.9571,0.9233,0.9233,0.9242,0.9474,1.0017,0.7911,0.5937,0.5932,0.4597,0.3662,0.3488,0.2441,0.1395,0.0871,0.0523,-0.0174,-0.1047,-0.0533,-0.0181,-0.0555,0.0189,0.077,0.0784,0.1373,0.1372,0.0785,0.0786,0.0589,0.0,0.0,-0.0196,-0.0589,-0.0589,-0.0982,-0.1375,-0.3138,-0.4117,-0.4511,-0.4511,-0.4707,0.1608,0.2533,0.3183,0.3214,0.2973,0.2567,0.2065,0.0309,-0.096,-0.0806,-0.1797,-0.2291,-0.127,-0.1705,-0.2314,-0.2385,-0.1736,-0.1407,-0.1717,-0.1124,-0.0655,-0.0491,-0.0167,0.017,0.0689,0.0863,0.1544,0.3044,0.2412,0.0,0.4139,0.2956,0.2904,0.4218,0.3077,0.3203,0.4876,0.5642,0.6402,0.6855,0.8371,0.883,0.838,0.9733,0.9878,0.9128,0.9884,0.9279,0.8073,0.8518,0.8669,0.8513,0.822,0.7765,0.7162,0.6601,0.5822,0.5041,0.4693,0.4733,0.5061,0.514,0.6034,0.6951,0.7554,0.7629,0.7692,0.8145,0.7999,0.7826,0.7826,0.7826,0.7656,0.7656,0.7915,0.8012,0.8243,0.6392,0.4576,0.3874,0.3327,0.2615,0.1395,0.0697,0.0174,-0.0523,-0.1046,-0.1569,-0.1918,-0.1598,-0.145,-0.1664,-0.1132,-0.0769,-0.0784,-0.097,-0.1155,-0.1734,-0.212,-0.2504,-0.2887,-0.3118,-0.2942,-0.2942,-0.2942,-0.3138,-0.3531,-0.4117,-0.4509,-0.4707,-0.5297,-0.5689,0.0715,0.1253,0.1579,0.149,0.1133,0.074,0.0153,-0.1272,-0.2625,-0.2496,-0.317,-0.349,-0.2785,-0.2893,-0.3344,-0.3706,-0.3213,-0.272,-0.2877,-0.2284,-0.1656,-0.1325,-0.1013,-0.0686,-0.0517,-0.0174,0.0518,0.1692,0.1034,0.1202,0.265,0.1642,0.1619,0.2687,0.1545,0.1526,0.2746,0.3965,0.4723,0.5177,0.6699,0.7158,0.6858,0.7912,0.8059,0.7605,0.7912,0.7458,0.6551,0.6699,0.6847,0.6544,0.6244,0.5791,0.5183,0.4417,0.381,0.3206,0.2463,0.2637,0.2969,0.2836,0.3669,0.5019,0.5416,0.547,0.5697,0.616,0.6196,0.6033,0.6076,0.5914,0.5743,0.5743,0.5803,0.5861,0.5149,0.3865,0.2438,0.1568,0.1395,0.0871,-0.0523,-0.0871,-0.122,-0.2092,-0.2615,-0.2965,-0.2965,-0.2859,-0.2924,-0.2963,-0.2847,-0.2704,-0.2525,-0.2882,-0.3234,-0.3589,-0.3992,-0.4387,-0.4957,-0.5049,-0.4903,-0.4707,-0.4509,-0.4707,-0.5295,-0.5295,-0.5295,-0.5295,-0.5887,-0.6279,-0.0255,-0.0131,-0.0134,-0.0144,-0.0294,-0.0746,-0.2187,-0.2412,-0.2617,-0.3759,-0.4421,-0.4425,-0.3596,-0.3485,-0.3814,-0.4462,-0.4352,-0.3922,-0.3594,-0.3164,-0.2533,-0.1689,-0.1547,-0.1382,-0.1524,-0.1378,-0.1211,-0.0847,-0.0862,-0.0518,0.0,0.0331,0.0648,0.0634,0.0619,0.0611,0.1069,0.2287,0.2741,0.2437,0.4422,0.5033,0.4726,0.5633,0.5937,0.5785,0.503,0.4729,0.4729,0.4729,0.4574,0.4117,0.3658,0.3355,0.2903,0.1985,0.1985,0.2145,0.094,0.0778,0.1073,0.0627,0.0947,0.1579,0.2842,0.3206,0.3443,0.4365,0.4395,0.4073,0.4157,0.3832,0.3313,0.3313,0.3313,0.2965,0.122,0.0349,-0.0174,-0.0697,-0.122,-0.1569,-0.2092,-0.2441,-0.2965,-0.3488,-0.4012,-0.4361,-0.4361,-0.4514,-0.4626,-0.4636,-0.4596,-0.4663,-0.4588,-0.4572,-0.4721,-0.5189,-0.4711,-0.4948,-0.6094,-0.5629,-0.5689,-0.6279,-0.5689,-0.5689,-0.6279,-0.6279,-0.6279,-0.6279,-0.6279,-0.6279,-0.2054,-0.1912,-0.215,-0.1902,-0.1964,-0.2177,-0.3148,-0.3257,-0.3167,-0.3443,-0.4028,-0.4419,-0.4605,-0.4314,-0.4418,-0.5645,-0.5209,-0.4738,-0.5714,-0.516,-0.4698,-0.4296,-0.3362,-0.2702,-0.2643,-0.1877,-0.1383,-0.1186,-0.1207,-0.1043,-0.0519,-0.0501,-0.0326,-0.0162,-0.078,-0.1069,-0.1069,-0.061,0.0,0.1066,0.2589,0.3199,0.3199,0.4265,0.381,0.2441,0.2137,0.2442,0.3052,0.3052,0.29,0.2289,0.1983,0.1526,0.1069,0.0305,0.0305,0.0611,0.0,0.0153,0.0764,0.0615,0.0924,0.1237,0.173,0.1905,0.193,0.2176,0.2198,0.2039,0.208,0.1917,0.1918,0.1918,0.1918,0.1743,0.1395,0.0,-0.122,-0.1743,-0.2092,-0.2615,-0.3139,-0.3313,-0.3488,-0.4012,-0.4363,-0.4883,-0.5227,-0.5277,-0.5555,-0.6096,-0.5793,-0.5694,-0.5833,-0.5691,-0.5773,-0.6115,-0.6142,-0.6345,-0.6534,-0.6556,-0.6478,-0.6279,-0.6478,-0.6478,-0.6279,-0.6674,-0.6867,-0.6861,-0.7647,-0.8233,-0.3725,-0.3186,-0.3093,-0.2686,-0.3229,-0.3949,-0.4107,-0.458,-0.4866,-0.4268,-0.4335,-0.47,-0.5026,-0.4926,-0.5371,-0.6419,-0.6489,-0.6529,-0.7017,-0.6433,-0.596,-0.5399,-0.4626,-0.3978,-0.3763,-0.3203,-0.2739,-0.2538,-0.2563,-0.2397,-0.1866,-0.197,-0.1925,-0.1746,-0.263,-0.2885,-0.2255,-0.2881,-0.2273,-0.045,0.0607,0.1067,0.0914,0.1982,0.1526,0.0153,0.0458,0.0916,0.1375,0.1375,0.1221,0.0916,0.0611,0.0305,0.0,-0.0611,-0.0611,-0.0305,-0.0763,-0.0458,0.0,-0.0153,0.0,0.0311,0.0473,0.0475,0.0479,0.0501,0.0336,0.0168,0.0173,0.0174,0.0174,0.0174,0.0174,0.0174,-0.0174,-0.1046,-0.2092,-0.2615,-0.3313,-0.3836,-0.4357,-0.4533,-0.4881,-0.5406,-0.5751,-0.6096,-0.6441,-0.6493,-0.6791,-0.7198,-0.6903,-0.66,-0.6693,-0.6569,-0.6619,-0.7046,-0.6976,-0.7409,-0.7959,-0.7495,-0.7451,-0.7643,-0.7451,-0.7258,-0.6864,-0.7258,-0.7255,-0.7445,-0.8038,-0.8429,-0.5552,-0.4583,-0.399,-0.3185,-0.4506,-0.5683,-0.4877,-0.57,-0.6347,-0.556,-0.5372,-0.5334,-0.5368,-0.559,-0.6109,-0.7093,-0.7842,-0.8279,-0.7948,-0.7652,-0.7172,-0.6175,-0.5705,-0.5383,-0.4862,-0.482,-0.4726,-0.4374,-0.4384,-0.4187,-0.3614,-0.3843,-0.3755,-0.353,-0.4431,-0.4529,-0.3551,-0.4529,-0.4225,-0.2366,-0.1511,-0.1221,-0.1375,-0.0763,-0.0916,-0.1526,-0.0763,-0.0458,-0.0305,-0.0305,-0.0305,-0.0305,-0.0763,-0.0916,-0.0916,-0.1375,-0.1221,-0.0916,-0.1375,-0.1069,-0.0763,-0.1221,-0.1084,-0.0945,-0.0948,-0.0947,-0.0954,-0.0998,-0.1327,-0.148,-0.154,-0.1556,-0.1556,-0.1387,-0.1736,-0.2085,-0.2438,-0.2789,-0.3313,-0.3836,-0.4535,-0.5232,-0.5749,-0.6096,-0.6447,-0.6972,-0.7313,-0.7656,-0.783,-0.7956,-0.8109,-0.8276,-0.8045,-0.7893,-0.7792,-0.7764,-0.782,-0.7897,-0.7785,-0.831,-0.9614,-0.8618,-0.8404,-0.9592,-0.8422,-0.8034,-0.8034,-0.8034,-0.8024,-0.8007,-0.8024,-0.8219,-0.7704,-0.7031,-0.6204,-0.5599,-0.6043,-0.6583,-0.5844,-0.5719,-0.5708,-0.574,-0.6508,-0.71,-0.6933,-0.6465,-0.6475,-0.7968,-0.8274,-0.8559,-0.9347,-0.9663,-0.9396,-0.8748,-0.8229,-0.7558,-0.697,-0.6525,-0.6199,-0.625,-0.6181,-0.6065,-0.5538,-0.5325,-0.5351,-0.5648,-0.5848,-0.6078,-0.6666,-0.6537,-0.6078,-0.5297,-0.4564,-0.3662,-0.275,-0.3355,-0.3506,-0.3201,-0.2749,-0.2443,-0.2138,-0.2138,-0.2138,-0.2138,-0.2596,-0.275,-0.275,-0.3055,-0.3055,-0.275,-0.275,-0.2291,-0.168,-0.2138,-0.1991,-0.1696,-0.2041,-0.2183,-0.2173,-0.2272,-0.2265,-0.2401,-0.2298,-0.2313,-0.2323,-0.1859,-0.3227,-0.4609,-0.5034,-0.505,-0.5227,-0.5751,-0.5925,-0.6099,-0.6624,-0.6798,-0.6969,-0.7486,-0.7483,-0.783,-0.8709,-0.8912,-0.9,-0.954,-0.9588,-0.9663,-0.9794,-0.9654,-0.9536,-0.9465,-0.9527,-0.9274,-0.8878,-0.8895,-0.9451,-1.0562,-0.9592,-0.9007,-0.9007,-0.9007,-0.9132,-0.9572,-0.9725,-1.01,-0.8033,-0.7824,-0.7381,-0.6683,-0.6907,-0.7067,-0.6062,-0.6528,-0.6971,-0.7288,-0.7812,-0.8058,-0.7754,-0.7377,-0.747,-0.8679,-0.8907,-0.9282,-1.0215,-1.0313,-1.0184,-0.9923,-0.9376,-0.8891,-0.8394,-0.8182,-0.8045,-0.7711,-0.7694,-0.742,-0.6844,-0.6786,-0.697,-0.7121,-0.7197,-0.7413,-0.7617,-0.7417,-0.6965,-0.5983,-0.5908,-0.5335,-0.4274,-0.4881,-0.503,-0.4873,-0.4272,-0.3969,-0.3814,-0.3814,-0.3814,-0.3814,-0.3969,-0.3969,-0.4121,-0.4274,-0.4121,-0.3969,-0.3814,-0.3357,-0.305,-0.3055,-0.2925,-0.281,-0.3512,-0.3483,-0.3454,-0.3778,-0.3896,-0.3815,-0.39,-0.3922,-0.378,-0.3696,-0.4728,-0.5776,-0.6243,-0.6273,-0.6621,-0.7139,-0.7316,-0.749,-0.8014,-0.8188,-0.8188,-0.8696,-0.9043,-0.9562,-1.009,-1.0441,-1.07,-1.0922,-1.0763,-1.0803,-1.0907,-1.0823,-1.0709,-1.0595,-1.0694,-1.0678,-1.035,-1.0452,-1.0646,-1.1346,-1.0567,-1.0177,-1.0177,-1.0083,-1.0184,-1.0286,-1.0384,-1.0566,-0.8964,-0.8856,-0.8655,-0.8452,-0.8148,-0.7766,-0.6718,-0.7774,-0.8953,-0.9264,-0.9094,-0.8721,-0.8571,-0.8327,-0.8532,-0.9289,-0.9733,-1.0331,-1.1103,-1.1097,-1.094,-1.0795,-1.0488,-1.0186,-0.9733,-0.9951,-0.9958,-0.9622,-0.9295,-0.8995,-0.8192,-0.848,-0.8679,-0.8513,-0.8972,-0.8894,-0.842,-0.8449,-0.7848,-0.6816,-0.6791,-0.6551,-0.5949,-0.6406,-0.6706,-0.6544,-0.5791,-0.5338,-0.5338,-0.5338,-0.5338,-0.5338,-0.5338,-0.5338,-0.5338,-0.5338,-0.5335,-0.5183,-0.4878,-0.4726,-0.4422,-0.4276,-0.4173,-0.4251,-0.4837,-0.4792,-0.4745,-0.5273,-0.5345,-0.52,-0.5293,-0.5336,-0.5548,-0.6008,-0.6391,-0.6787,-0.7458,-0.7667,-0.8014,-0.8705,-0.8878,-0.8878,-0.9407,-0.9402,-0.9402,-0.974,-1.0599,-1.1295,-1.1468,-1.1991,-1.2244,-1.227,-1.211,-1.1928,-1.1751,-1.1928,-1.1845,-1.1473,-1.1647,-1.1887,-1.1998,-1.2192,-1.2234,-1.2123,-1.1735,-1.1535,-1.1346,-1.1144,-1.1209,-1.0977,-1.1214,-1.1184,-1.2386,-1.1732,-1.1059,-1.2499,-1.1008,-0.9048,-0.8811,-0.9775,-1.069,-1.1133,-1.0348,-0.9582,-0.9602,-0.9294,-0.9289,-1.004,-1.0482,-1.1235,-1.2458,-1.2901,-1.3044,-1.2601,-1.2314,-1.2006,-1.183,-1.1664,-1.1831,-1.2112,-1.1831,-1.1362,-1.1014,-1.1082,-1.0789,-1.004,-1.0789,-1.1085,-1.0615,-1.0337,-0.9873,-0.9395,-0.7908,-0.7466,-0.7778,-0.8532,-0.8679,-0.8215,-0.7466,-0.7162,-0.7162,-0.7162,-0.7162,-0.7162,-0.7162,-0.7162,-0.7162,-0.7162,-0.6855,-0.6395,-0.6395,-0.5943,-0.5341,-0.5648,-0.5502,-0.5381,-0.5983,-0.5929,-0.5851,-0.6005,-0.6091,-0.5975,-0.5988,-0.6082,-0.6687,-0.8305,-0.8647,-0.865,-0.9349,-0.9917,-1.0268,-1.0268,-1.0268,-1.0268,-1.0441,-0.9917,-0.974,-0.974,-1.0955,-1.2169,-1.2858,-1.3368,-1.3547,-1.3068,-1.3407,-1.3228,-1.2359,-1.3055,-1.3215,-1.233,-1.2704,-1.2769,-1.2348,-1.3286,-1.3722,-1.3864,-1.3682,-1.3488,-1.2911,-1.2666,-1.2432,-1.2219,-1.2443,-1.2688,-1.1677,-1.1585,-1.1582,-1.1858,-1.1303,-1.056,-1.0684,-1.1423,-1.1993,-1.1837,-1.1091,-1.0493,-1.0493,-1.004,-1.004,-1.0946,-1.1386,-1.1987,-1.3044,-1.3501,-1.3651,-1.3201,-1.3051,-1.2901,-1.2887,-1.3021,-1.2977,-1.264,-1.2648,-1.2365,-1.1883,-1.1907,-1.1843,-1.1849,-1.1843,-1.1843,-1.2006,-1.1398,-1.0789,-1.0476,-0.9582,-0.9582,-1.0482,-1.0331,-1.018,-0.9873,-0.9576,-0.9274,-0.8821,-0.8821,-0.8821,-0.8821,-0.8821,-0.8674,-0.8376,-0.8376,-0.822,-0.7765,-0.7466,-0.7166,-0.7014,-0.6862,-0.671,-0.6736,-0.7524,-0.7608,-0.7655,-0.8305,-0.8221,-0.7925,-0.7925,-0.7758,-0.7911,-0.9733,-1.0673,-1.1135,-1.1571,-1.2554,-1.3349,-1.3706,-1.3528,-1.3178,-1.3012,-1.233,-1.1646,-1.1462,-1.2163,-1.3031,-1.3878,-1.4399,-1.4749,-1.4585,-1.4578,-1.4571,-1.4228,-1.4578,-1.4571,-1.4228,-1.4069,-1.4082,-1.4477,-1.4311,-1.4396,-1.5145,-1.4219,-1.4035,-1.4404,-1.3577,-1.3132,-1.3414,-1.3336,-1.3536,-1.1666,-1.1858,-1.1926,-1.1635,-1.163,-1.159,-1.1978,-1.2461,-1.2796,-1.2873,-1.2,-1.1259,-1.1404,-1.1253,-1.1247,-1.1993,-1.2287,-1.2737,-1.3643,-1.4107,-1.4257,-1.395,-1.3942,-1.3935,-1.4092,-1.4002,-1.3902,-1.3523,-1.3423,-1.3299,-1.2779,-1.2751,-1.2744,-1.3051,-1.2744,-1.2744,-1.3051,-1.2301,-1.1843,-1.1386,-1.094,-1.1392,-1.273,-1.198,-1.168,-1.168,-1.1379,-1.0928,-1.0476,-1.0476,-1.0476,-1.0476,-1.0476,-1.018,-0.9889,-0.9889,-0.943,-0.8977,-0.883,-0.8532,-0.8376,-0.822,-0.822,-0.8403,-0.9003,-0.9247,-0.931,-1.0082,-1.0013,-0.9582,-0.9582,-0.9451,-0.9622,-1.0869,-1.1837,-1.2676,-1.3263,-1.4441,-1.5458,-1.6081,-1.5755,-1.5235,-1.4907,-1.4056,-1.3196,-1.2846,-1.3362,-1.3884,-1.4735,-1.5256,-1.5606,-1.5606,-1.5613,-1.5613,-1.5606,-1.5777,-1.5785,-1.5606,-1.5271,-1.5416,-1.5918,-1.5034,-1.5138,-1.6107,-1.5008,-1.482,-1.5558,-1.4531,-1.4241,-1.4667,-1.449,-1.4556,-1.3653,-1.2864,-1.2559,-1.3171,-1.258,-1.2068,-1.2635,-1.2866,-1.312,-1.4328,-1.3358,-1.2314,-1.2758,-1.2758,-1.2901,-1.3344,-1.3337,-1.3643,-1.4398,-1.4854,-1.5169,-1.5169,-1.5144,-1.5285,-1.5749,-1.5003,-1.4705,-1.5169,-1.4414,-1.3965,-1.3957,-1.3957,-1.3808,-1.3494,-1.38,-1.3808,-1.3344,-1.3337,-1.3194,-1.2758,-1.1849,-1.2594,-1.454,-1.3793,-1.3337,-1.3344,-1.2431,-1.198,-1.198,-1.198,-1.198,-1.198,-1.198,-1.1837,-1.1392,-1.1392,-1.094,-1.0342,-1.0342,-1.0035,-0.9727,-0.9727,-1.0029,-1.0342,-1.0342,-1.0488,-1.0928,-1.0934,-1.0934,-1.0928,-1.0928,-1.1289,-1.1968,-1.2267,-1.2321,-1.2762,-1.4368,-1.5095,-1.5524,-1.6367,-1.6275,-1.577,-1.5263,-1.4399,-1.3878,-1.3706,-1.4214,-1.4728,-1.5085,-1.5599,-1.5941,-1.5941,-1.6469,-1.6476,-1.5941,-1.6802,-1.6973,-1.5941,-1.6445,-1.6601,-1.6256,-1.5926,-1.6053,-1.6691,-1.6698,-1.6698,-1.6503,-1.6181,-1.5851,-1.5536,-1.6087,-1.575,-1.3314,-1.3414,-1.3964,-1.3964,-1.3797,-1.388,-1.5359,-1.5024,-1.4339,-1.4306,-1.433,-1.4264,-1.4054,-1.4099,-1.395,-1.3808,-1.4548,-1.5003,-1.5012,-1.56,-1.5897,-1.5608,-1.56,-1.56,-1.5749,-1.5451,-1.5293,-1.5144,-1.5153,-1.5144,-1.4838,-1.4995,-1.5153,-1.4995,-1.5153,-1.5153,-1.4995,-1.4689,-1.4532,-1.4383,-1.4398,-1.4697,-1.5302,-1.5144,-1.4838,-1.4532,-1.4233,-1.4084,-1.3785,-1.3785,-1.3785,-1.3793,-1.3494,-1.3051,-1.2451,-1.2451,-1.1993,-1.1536,-1.1241,-1.1091,-1.094,-1.0644,-1.065,-1.0801,-1.141,-1.1712,-1.1856,-1.2437,-1.2444,-1.2444,-1.3501,-1.4033,-1.4116,-1.395,-1.4505,-1.5305,-1.6455,-1.803,-1.9177,-1.9747,-1.9484,-1.8817,-1.7816,-1.6794,-1.6111,-1.5762,-1.6111,-1.6461,-1.6632,-1.7143,-1.7484,-1.7484,-1.7492,-1.7663,-1.7484,-1.7322,-1.7151,-1.6802,-1.7646,-1.7534,-1.6633,-1.6452,-1.6828,-1.746,-1.7117,-1.7305,-1.7843,-1.7187,-1.6953,-1.7298,-1.6782,-1.668,-1.3879,-1.3934,-1.4348,-1.4491,-1.4631,-1.5049,-1.6569,-1.5413,-1.4084,-1.4214,-1.4141,-1.4198,-1.4556,-1.4906,-1.5144,-1.4854,-1.5302,-1.5459,-1.5169,-1.5897,-1.6186,-1.6046,-1.6343,-1.664,-1.664,-1.6483,-1.6325,-1.602,-1.6177,-1.6029,-1.5871,-1.6029,-1.6186,-1.6186,-1.6046,-1.5897,-1.5897,-1.5591,-1.5731,-1.6325,-1.6492,-1.664,-1.664,-1.6483,-1.6325,-1.602,-1.5871,-1.5583,-1.5285,-1.5434,-1.5293,-1.4995,-1.4854,-1.4398,-1.3651,-1.3501,-1.3344,-1.2887,-1.2594,-1.2451,-1.2601,-1.2157,-1.2307,-1.2758,-1.2915,-1.3215,-1.3665,-1.38,-1.38,-1.4107,-1.5451,-1.5608,-1.531,-1.5144,-1.5468,-1.6389,-1.7835,-1.9284,-2.0627,-2.1903,-2.1515,-2.0674,-1.9841,-1.8835,-1.7995,-1.7808,-1.7816,-1.7825,-1.7825,-1.7995,-1.8003,-1.8003,-1.8003,-1.8165,-1.8504,-1.8335,-1.7995,-1.7825,-1.8165,-1.7995,-1.733,-1.7314,-1.765,-1.8374,-1.8032,-1.8383,-1.9268,-1.8558,-1.8353,-1.8844,-1.8147,-1.8097,-1.5108,-1.462,-1.4348,-1.5148,-1.525,-1.5352,-1.6724,-1.4728,-1.2945,-1.4082,-1.3477,-1.3047,-1.4405,-1.5715,-1.6447,-1.6474,-1.5749,-1.5318,-1.5318,-1.5897,-1.6483,-1.6334,-1.7529,-1.812,-1.812,-1.7805,-1.7638,-1.7648,-1.7353,-1.7066,-1.7066,-1.7066,-1.7066,-1.7066,-1.6622,-1.6483,-1.6483,-1.6046,-1.664,-1.812,-1.812,-1.812,-1.812,-1.7805,-1.7638,-1.7491,-1.7177,-1.6743,-1.6483,-1.6891,-1.6604,-1.5897,-1.6334,-1.588,-1.5277,-1.4838,-1.4689,-1.4697,-1.4257,-1.4406,-1.4548,-1.4107,-1.4705,-1.5451,-1.4406,-1.4854,-1.56,-1.4846,-1.5003,-1.5608,-1.6622,-1.6334,-1.5906,-1.5932,-1.5625,-1.6121,-1.8622,-1.9575,-2.0601,-2.3,-2.252,-2.1683,-2.1515,-2.0516,-1.9681,-1.9512,-1.9174,-1.8835,-1.8835,-1.8504,-1.8335,-1.8504,-1.8335,-1.8665,-1.9512,-1.9681,-1.9343,-1.8835,-1.8504,-1.8173,-1.8173,-1.8165,-1.8509,-1.9224,-1.9407,-1.9747,-2.0609,-2.0087,-2.0055,-2.0179,-2.0179,-1.9672,-1.5401,-1.5653,-1.6015,-1.6589,-1.6296,-1.613,-1.7384,-1.6076,-1.4748,-1.5237,-1.5297,-1.5287,-1.5348,-1.6809,-1.7871,-1.7766,-1.7242,-1.6797,-1.6483,-1.7224,-1.7381,-1.677,-1.8394,-1.914,-1.8552,-1.9276,-1.9559,-1.9276,-1.8983,-1.8542,-1.8257,-1.7972,-1.7815,-1.7815,-1.7677,-1.7677,-1.7677,-1.7529,-1.7824,-1.8552,-1.8267,-1.8267,-1.8552,-1.8404,-1.8394,-1.8384,-1.8189,-1.795,-1.7648,-1.7611,-1.767,-1.7529,-1.7362,-1.6909,-1.6465,-1.6029,-1.6177,-1.6325,-1.56,-1.5451,-1.5302,-1.4697,-1.4697,-1.4846,-1.4838,-1.5293,-1.5749,-1.5889,-1.6186,-1.6622,-1.7205,-1.7057,-1.6852,-1.7474,-1.7298,-1.7814,-2.0729,-2.1523,-2.2189,-2.3991,-2.4352,-2.402,-2.2687,-2.2196,-2.1683,-2.1011,-2.0516,-2.0516,-2.1179,-2.1179,-2.1347,-2.2018,-2.1515,-2.1347,-2.185,-2.1347,-2.0684,-2.0169,-2.0,-1.9672,-1.9174,-1.9343,-1.9719,-1.9822,-2.0162,-2.0502,-2.0841,-2.0672,-2.0952,-2.1515,-2.1179,-2.1347,-1.6138,-1.6435,-1.686,-1.7232,-1.689,-1.6426,-1.6932,-1.6167,-1.5361,-1.5611,-1.573,-1.5918,-1.6256,-1.723,-1.7849,-1.7735,-1.7255,-1.7018,-1.6891,-1.7519,-1.7972,-1.7519,-1.9129,-2.0154,-1.9716,-2.0581,-2.1163,-2.0872,-2.0592,-2.0154,-1.9716,-1.9569,-1.9276,-1.914,-1.8993,-1.8846,-1.8846,-1.9423,-1.9743,-1.9826,-1.9619,-1.9452,-1.9538,-1.9474,-1.9569,-1.9694,-1.9498,-1.9277,-1.9098,-1.9213,-1.8868,-1.8562,-1.8532,-1.8237,-1.7657,-1.7519,-1.7362,-1.7057,-1.6622,-1.6918,-1.7224,-1.6168,-1.6177,-1.6325,-1.602,-1.6334,-1.6788,-1.6631,-1.7795,-1.9109,-1.9255,-1.8962,-1.879,-1.956,-1.9292,-1.9611,-2.2289,-2.283,-2.3314,-2.4942,-2.533,-2.5069,-2.382,-2.3688,-2.3521,-2.3021,-2.2531,-2.252,-2.3188,-2.3021,-2.3021,-2.3355,-2.3021,-2.2854,-2.2353,-2.2353,-2.1861,-2.1031,-2.2018,-2.2342,-2.1179,-2.1683,-2.2018,-2.2185,-2.2687,-2.3021,-2.3188,-2.3188,-2.3366,-2.3854,-2.3688,-2.3865,-1.7028,-1.7104,-1.7299,-1.7527,-1.7141,-1.6628,-1.6377,-1.602,-1.5904,-1.602,-1.602,-1.6396,-1.7306,-1.7575,-1.7483,-1.7322,-1.7137,-1.7044,-1.7443,-1.81,-1.8562,-1.8562,-2.0289,-2.1454,-2.1308,-2.2178,-2.2611,-2.2467,-2.2033,-2.1744,-2.1308,-2.1163,-2.0872,-2.0592,-2.0289,-2.0187,-2.0411,-2.1278,-2.1602,-2.1363,-2.11,-2.0933,-2.0813,-2.068,-2.0872,-2.114,-2.0906,-2.0692,-2.0547,-2.0611,-2.0134,-1.9569,-2.0008,-1.9716,-1.8993,-1.9276,-1.8825,-1.8227,-1.8227,-1.8825,-1.9423,-1.8375,-1.8384,-1.8699,-1.7805,-1.7952,-1.8404,-1.7943,-1.9694,-2.1599,-2.1744,-2.1163,-2.0715,-2.1507,-2.1212,-2.1372,-2.3464,-2.378,-2.4405,-2.6236,-2.631,-2.5996,-2.556,-2.5346,-2.5061,-2.4908,-2.4649,-2.4507,-2.4908,-2.4803,-2.4518,-2.4186,-2.4352,-2.4186,-2.301,-2.351,-2.3366,-2.2217,-2.4198,-2.5015,-2.3854,-2.4198,-2.453,-2.4862,-2.5193,-2.5536,-2.6043,-2.6043,-2.6196,-2.6361,-2.6361,-2.6525,-1.7935,-1.8105,-1.8174,-1.8027,-1.7652,-1.7402,-1.7652,-1.7527,-1.7402,-1.7879,-1.8276,-1.8447,-1.8004,-1.8506,-1.8684,-1.7824,-1.859,-1.9476,-2.0223,-2.0727,-2.1018,-2.1018,-2.2755,-2.3631,-2.3044,-2.3918,-2.4491,-2.4205,-2.3475,-2.29,-2.2467,-2.1888,-2.1454,-2.1454,-2.1308,-2.1833,-2.305,-2.3026,-2.2588,-2.2057,-2.1708,-2.1708,-2.1914,-2.1853,-2.1888,-2.1997,-2.1765,-2.1543,-2.1419,-2.0906,-2.0715,-2.0727,-2.1454,-2.1308,-2.0727,-2.2178,-2.2178,-2.1442,-2.1877,-2.1587,-2.1163,-2.0581,-2.0289,-2.0154,-1.9851,-2.0143,-2.0727,-2.1587,-2.1744,-2.1744,-2.2322,-2.2033,-2.1728,-2.284,-2.2845,-2.2931,-2.4737,-2.5372,-2.6107,-2.8355,-2.8748,-2.8708,-2.8987,-2.7908,-2.6766,-2.566,-2.5571,-2.5858,-2.6178,-2.6523,-2.7157,-2.7648,-2.732,-2.6993,-2.698,-2.6513,-2.6019,-2.5817,-2.6159,-2.6159,-2.5701,-2.5701,-2.5701,-2.5866,-2.5866,-2.6031,-2.6043,-2.6043,-2.669,-2.7661,-2.7661,-2.8301,-1.7929,-1.8448,-1.8922,-1.8673,-1.8537,-1.8537,-1.8537,-1.8537,-1.8537,-1.8785,-1.8922,-1.8934,-1.8673,-1.861,-1.8508,-1.8231,-1.8959,-1.9967,-2.0452,-2.1104,-2.1744,-2.2467,-2.3475,-2.4348,-2.4634,-2.5502,-2.5942,-2.58,-2.5375,-2.497,-2.4532,-2.3788,-2.3336,-2.3471,-2.2929,-2.336,-2.448,-2.4467,-2.4022,-2.317,-2.3335,-2.3322,-2.2888,-2.3049,-2.3044,-2.3162,-2.2888,-2.2926,-2.3131,-2.2735,-2.2786,-2.317,-2.3646,-2.3331,-2.3044,-2.3631,-2.3619,-2.3188,-2.3762,-2.3475,-2.2755,-2.2322,-2.2178,-2.1888,-2.1744,-2.2755,-2.3905,-2.4491,-2.4348,-2.4205,-2.4491,-2.4348,-2.4349,-2.4914,-2.5062,-2.5257,-2.631,-2.6817,-2.7745,-2.9682,-3.0275,-3.0428,-3.0528,-2.9944,-2.9034,-2.8245,-2.7924,-2.7722,-2.8071,-2.8146,-2.8324,-2.8817,-2.8773,-2.8626,-2.8314,-2.8816,-2.8979,-2.8775,-2.8613,-2.8301,-2.7851,-2.7851,-2.7851,-2.7851,-2.8314,-2.8654,-2.8816,-2.8816,-2.9141,-2.979,-2.979,-3.0114,-1.7923,0.0,-1.9158,-1.9058,-1.9294,-1.9529,0.0,-1.9418,-1.9542,-1.917,-1.917,-1.917,-1.9058,-1.8661,-1.8513,-1.8626,-1.9523,-2.022,-2.0453,-2.1784,-2.3044,-2.4192,-2.462,-2.5204,-2.5928,-2.665,-2.7088,-2.6947,-2.6825,-2.657,-2.6268,-2.5543,-2.5138,-2.5246,-2.4722,-2.4741,-2.571,-2.5853,-2.5547,-2.4935,-2.5408,-2.5099,-2.4117,-2.4433,-2.4411,-2.438,-2.4225,-2.4479,-2.4896,-2.4796,-2.4961,-2.515,-2.552,-2.5488,-2.519,-2.5488,-2.5333,-2.5048,-2.563,-2.5488,-2.4906,-2.4478,-2.4192,-2.3905,-2.3619,-2.5062,-2.6791,-2.6791,-2.665,-2.665,-2.6791,-2.665,-2.6624,-2.6809,-2.6997,-2.721,-2.7583,-2.8364,-2.9404,-3.1187,-3.1506,-3.1879,-3.2614,-3.1905,-3.0994,-3.0691,-2.9885,-2.941,-2.9421,-2.9266,-2.9027,-2.9184,-2.9758,-2.9781,-2.929,-3.0788,-3.1572,-3.1066,-3.0744,-3.0261,-2.9818,-2.9818,-2.9818,-2.9818,-3.0436,-3.092,-3.1271,-3.1431,-3.1417,-3.1592,-3.1752,-3.1737,0.0,-1.8501,-1.8637,-1.8922,-1.9542,-1.99,-1.9529,-1.9666,0.0,-1.9529,-1.9666,-1.9789,-1.9182,-1.917,-1.9393,-1.9357,-2.0678,-2.155,-2.1538,-2.4037,-2.6211,-2.7044,-2.748,-2.762,-2.7325,-2.762,-2.7761,-2.7325,-2.6976,-2.6854,-2.715,-2.6178,-2.5704,-2.6014,-2.6134,-2.6668,-2.7474,-2.7065,-2.7055,-2.7111,-2.717,-2.6888,-2.6027,-2.607,-2.601,-2.5832,-2.6038,-2.6143,-2.6384,-2.6579,-2.6312,-2.6075,-2.7182,-2.731,-2.7155,-2.818,-2.8475,-2.8025,-2.818,-2.818,-2.7901,-2.7325,-2.6636,-2.6084,-2.5942,-2.7058,-2.818,-2.818,-2.8025,-2.7746,-2.818,-2.7886,-2.7761,-2.8102,-2.8211,-2.8351,-2.8303,-2.9475,-3.1129,-3.3299,-3.3161,-3.3532,-3.6256,-3.4015,-3.1782,-3.1973,-3.088,-3.0054,-2.9446,-2.9206,-2.9428,-3.0218,-3.0321,-3.0446,-3.1051,-3.2262,-3.293,-3.2331,-3.2361,-3.1897,-3.111,-3.111,-3.111,-3.111,-3.1271,-3.1271,-3.1271,-3.1722,-3.2027,-3.2377,-3.2839,-3.3316,-1.7266,-1.738,-1.7494,-1.763,-1.8264,-1.8773,-1.8773,-1.9412,-1.9823,-1.9243,-1.9676,-1.9925,-1.9355,-1.9294,-1.9653,-2.1096,-2.1841,-2.2481,-2.3647,-2.5255,-2.6226,-2.6353,-2.7058,-2.7761,-2.832,-2.8723,-2.8862,-2.8723,-2.8689,-2.8627,-2.861,-2.7778,-2.7604,-2.842,-2.7903,-2.7965,-2.8799,-2.8971,-2.8832,-2.8429,-2.8862,-2.8723,-2.801,-2.8165,-2.8151,-2.789,-2.7595,-2.7761,0.0,-2.7857,-2.7916,-2.8179,-2.8681,-2.8846,-2.8707,-2.9139,-2.9278,-2.9139,-2.9139,-2.9139,-2.9001,-2.8862,-2.832,-2.7916,-2.7916,-2.8877,-2.9831,-2.9831,-2.9677,-2.9677,-2.9815,-2.9677,-2.9539,-2.9432,-2.9693,-2.9831,-2.9571,-3.0597,-3.2259,-3.4193,-3.438,-3.4957,-3.6931,-3.5404,-3.3658,-3.3124,-3.1904,-3.0952,-3.0235,-2.9996,-3.0235,-3.0811,-3.1205,-3.174,-3.2743,-3.3588,-3.3815,-3.3316,-3.3157,-3.268,-3.2057,-3.2361,-3.2377,-3.2057,-3.2536,-3.2696,-3.2521,-3.2839,-3.3173,-3.3332,-3.349,-3.3648,-1.6262,-1.6377,-1.6492,-1.6482,-1.7255,-1.7902,-1.814,-1.8795,-1.934,-1.913,-1.9575,-1.9848,-1.9728,-1.9666,-2.0338,-2.23,-2.3028,-2.3764,-2.5309,-2.6509,-2.6932,-2.6636,-2.7465,-2.8444,-2.9464,-2.95,-2.9627,-2.9627,-2.9528,-2.9473,-2.9409,-2.8695,-2.8981,-3.0669,-2.9656,-2.9416,-3.0244,-3.0261,-3.0244,-3.0074,-3.0519,-3.0503,-2.9783,-2.9936,-2.996,-2.9731,-2.9273,-2.9374,-2.956,-2.9502,-2.9673,-2.9973,-3.0174,-3.0244,-3.0244,-3.0244,-3.0244,-3.0244,-3.0244,-3.0244,-3.0244,-3.0107,-2.9847,-2.9725,-2.9571,-3.0244,-3.1067,-3.1067,-3.1067,-3.1067,-3.1187,-3.1187,-3.1187,-3.1084,-3.1221,-3.134,-3.1084,-3.1921,-3.3445,-3.5646,-3.5887,-3.653,-3.83,-3.7359,-3.5823,-3.4609,-3.3343,-3.2101,-3.116,-3.0835,-3.0799,-3.1169,-3.1839,-3.2889,-3.4284,-3.4863,-3.4939,-3.4563,-3.4264,-3.3791,-3.3316,-3.3633,-3.3633,-3.3316,-3.3807,-3.4123,-3.3791,-3.4123,-3.4281,-3.4438,-3.4438,-3.4438,-1.5642,-1.5525,-1.5516,-1.5486,-1.6503,-1.7527,-1.7527,-1.8015,-1.8637,-1.8922,-1.9294,-1.9542,-1.99,-2.0529,-2.1454,-2.2679,-2.4223,-2.5385,-2.6092,-2.7874,-2.8893,-2.846,-2.9139,-2.9847,-3.0569,-3.0024,-2.9724,-2.9988,-2.9077,-2.8984,-2.975,-2.8985,-2.9693,-3.2274,-3.1323,-3.1067,-3.1766,-3.1067,-3.1323,-3.2274,-3.2274,-3.2121,-3.1697,-3.1306,-3.1301,-3.1525,-3.0983,-3.1002,-3.1479,-3.166,-3.1452,-3.1091,-3.1608,-3.1647,-3.1647,-3.1647,-3.163,-3.163,-3.163,-3.163,-3.163,-3.1357,-3.1357,-3.1221,-3.0914,-3.1204,-3.1766,-3.1766,-3.1766,-3.1766,-3.2156,-3.2274,-3.2427,-3.2714,-3.2867,-3.2867,-3.2867,-3.3473,-3.4845,-3.7662,-3.7673,-3.8047,-4.0578,-3.9523,-3.7936,-3.6377,-3.4998,-3.3569,-3.2395,-3.1414,-3.0923,-3.1655,-3.2437,-3.362,-3.5653,-3.608,-3.6415,-3.6385,-3.5988,-3.5537,-3.5067,-3.5067,-3.5067,-3.5067,-3.5067,-3.5067,-3.5067,-3.5067,-3.5224,-3.5849,-3.5849,-3.6005,-1.463,-1.4122,-1.3366,-1.3731,-1.4747,-1.5778,-1.6262,-1.7655,-1.8832,-1.9005,-1.9713,-2.0366,-2.0484,-2.1104,-2.2327,-2.4122,-2.512,-2.6272,-2.7874,-2.8321,-2.8738,-2.9571,-2.9847,-3.0261,-3.1101,-3.1812,-3.2457,-3.2989,-3.2608,-3.2314,-3.2221,-3.2473,-3.3145,-3.4133,-3.36,-3.3485,-3.4056,-3.3485,-3.3485,-3.3752,-3.3752,-3.3752,-3.36,-3.3467,-3.3472,-3.3536,-3.2841,-3.2639,-3.2687,-3.2554,-3.2404,-3.2152,-3.2413,-3.2462,-3.2462,-3.2462,-3.2309,-3.2156,-3.2156,-3.1885,-3.163,-3.163,-3.163,-3.1766,-3.2714,-3.3136,-3.3271,-3.3271,-3.3271,-3.3271,-3.3101,-3.3253,-3.3405,-3.3253,-3.3637,-3.3904,-3.3673,-3.4021,-3.4684,-3.6062,-3.7147,-3.8021,-3.8672,-3.835,-3.7774,-3.659,-3.5282,-3.4159,-3.3243,-3.3116,-3.2975,-3.2933,-3.4899,-3.6335,-3.6924,-3.7036,-3.7117,-3.7193,-3.6765,-3.6316,-3.6022,-3.6161,-3.6161,-3.6022,-3.5866,-3.5866,-3.5866,-3.6161,-3.6472,-3.6627,-3.6919,-3.7074,-1.4061,-1.3476,-1.2929,-1.3591,-1.447,-1.5524,-1.6284,-1.7662,-1.8901,-1.9404,-2.0177,-2.0793,-2.1074,-2.1987,-2.3112,-2.4786,-2.593,-2.7249,-2.9013,-2.9416,-2.9847,-3.0673,-3.1199,-3.1681,-3.1937,-3.3099,-3.3801,-3.395,-3.3801,-3.4194,-3.5173,-3.5436,-3.5717,-3.5868,-3.5343,-3.5098,-3.5269,-3.4853,-3.4702,-3.4834,-3.4834,-3.4966,-3.4966,-3.4966,-3.4966,-3.4966,-3.4304,-3.3988,-3.3789,-3.3573,-3.3312,-3.3058,-3.3345,-3.3387,-3.3271,-3.3387,-3.3253,-3.2984,-3.2984,-3.2849,-3.2597,-3.2597,-3.2867,-3.3118,-3.4074,-3.4359,-3.4359,-3.4359,-3.4341,-3.4056,-3.3904,-3.4056,-3.4474,-3.4569,-3.4966,-3.5326,-3.5689,-3.5742,-3.625,-3.7789,-3.8476,-3.893,-3.9117,-3.9408,-3.8979,-3.7431,-3.6742,-3.5892,-3.4933,-3.4951,-3.4854,-3.4641,-3.6929,-3.847,-3.8285,-3.8435,-3.8439,-3.8305,-3.7845,-3.7555,-3.7246,-3.7537,-3.7555,-3.7246,-3.7246,-3.7246,-3.7246,-3.7555,-3.7555,-3.7401,-3.7845,-3.798,-1.3955,-1.3557,-1.3595,-1.4561,-1.5295,-1.6081,-1.7104,-1.814,-1.9053,-1.9952,-2.0484,-2.1114,-2.2015,-2.3029,-2.4164,-2.5135,-2.6968,-2.8563,-2.9734,-3.0794,-3.1494,-3.1919,-3.2993,-3.3566,-3.3073,-3.4231,-3.4573,-3.3628,-3.3936,-3.5432,-3.8195,-3.8001,-3.7595,-3.7337,-3.663,-3.6129,-3.5776,-3.54,-3.54,-3.5776,-3.5776,-3.5926,-3.6057,-3.5776,-3.5907,-3.6057,-3.54,-3.5089,-3.4796,-3.4644,-3.438,-3.3922,-3.44,-3.4455,-3.4226,-3.4437,-3.4455,-3.4208,-3.4208,-3.4093,-3.4093,-3.4093,-3.4607,-3.5136,-3.5136,-3.5136,-3.5136,-3.5136,-3.4853,-3.4683,-3.4683,-3.491,-3.5516,-3.6417,-3.6869,-3.7279,-3.8346,-3.8393,-3.886,-4.1201,-4.1141,-4.085,-4.1215,-4.1599,-4.1079,-3.8713,-3.8567,-3.8473,-3.7253,-3.6741,-3.6606,-3.6823,-3.8856,-3.992,-3.9551,-3.9821,-3.9978,-3.9543,-3.9068,-3.8916,-3.8763,-3.8916,-3.8916,-3.8763,-3.8763,-3.8763,-3.8763,-3.8916,-3.8611,-3.8323,-3.8629,-3.8916,-1.4736,-1.4394,-1.3783,-1.4921,-1.5934,-1.6867,-1.743,-1.878,-2.0179,-2.095,-2.1825,-2.2721,-2.3736,-2.5253,-2.6641,-2.7577,-2.9135,-3.061,-3.202,-3.2156,-3.2427,-3.3405,-3.464,-3.4924,-3.4111,-3.6264,-3.7146,-3.5952,-3.6649,-3.7902,-3.9653,-3.9675,-3.9275,-3.8364,-3.845,-3.8195,-3.7595,-3.7208,-3.6949,-3.682,-3.6949,-3.7079,-3.6929,-3.7079,-3.7079,-3.7228,-3.682,-3.659,-3.654,-3.622,-3.6051,-3.5913,-3.5717,-3.5644,-3.5532,-3.5664,-3.5513,-3.5269,-3.5269,-3.5004,-3.4739,-3.4739,-3.5644,-3.656,-3.6299,-3.6429,-3.656,-3.6299,-3.641,-3.641,-3.6149,-3.6639,-3.7418,-3.7992,-3.9072,-4.0029,-4.0037,-4.0214,-4.0446,-4.1022,-4.1867,-4.2204,-4.1814,-4.2039,-4.1578,-3.9849,-3.9261,-3.8677,-3.8011,-3.7842,-3.8285,-3.9983,-4.068,-4.0946,-4.0777,-4.0634,-4.0411,-4.0411,-4.026,-4.011,-3.9827,-4.011,-4.011,-3.9827,-3.9675,-3.9675,-3.9675,-4.011,-3.9959,-3.9675,-4.0016,-4.0186,-1.5228,-1.5118,-1.5017,-1.6645,-1.736,-1.7971,-1.9278,-2.0322,-2.1164,-2.2308,-2.303,-2.3875,-2.5469,-2.6727,-2.8059,-2.9823,-3.1357,-3.2559,-3.3265,-3.3676,-3.4075,-3.4226,-3.5436,-3.5878,-3.5042,-3.7067,-3.8024,-3.7269,-3.8088,-3.9106,-4.0405,-4.0717,-4.0359,-3.917,-3.9106,-3.8831,-3.8364,-3.8237,-3.7852,-3.7595,-3.7852,-3.7852,-3.7595,-3.7724,-3.7724,-3.7744,-3.7595,-3.7499,-3.7257,-3.7047,-3.6817,-3.6602,-3.666,-3.6579,-3.6299,-3.6579,-3.6429,-3.6038,-3.6299,-3.6168,-3.6038,-3.656,-3.7208,-3.7595,-3.7337,-3.7595,-3.7852,-3.7337,-3.7466,-3.7595,-3.7337,-3.7986,-3.8767,-3.9167,-4.0539,-4.1773,-4.1459,-4.1953,-4.2396,-4.232,-4.2697,-4.2885,-4.2269,-4.2264,-4.2129,-4.1102,-4.0623,-4.0301,-3.9465,-3.9648,-4.0395,-4.1886,-4.1945,-4.1648,-4.1518,-4.1499,-4.133,-4.118,-4.133,-4.133,-4.118,-4.133,-4.133,-4.09,-4.1031,-4.1031,-4.0881,-4.1031,-4.1031,-4.0881,-4.107,-4.1219,-1.5672,-1.6091,-1.6798,-1.8848,-1.9307,-1.9612,-2.1487,-2.2149,-2.2709,-2.3935,-2.4416,-2.5155,-2.7143,-2.8155,-2.952,-3.2104,-3.358,-3.4426,-3.4565,-3.5395,-3.5644,-3.4796,-3.5957,-3.6573,-3.5853,-3.7466,-3.8402,-3.8191,-3.8979,-3.9926,-4.1124,-4.147,-4.1154,-4.0312,-3.9696,-3.9232,-3.9,-3.8874,-3.8619,-3.8237,-3.8619,-3.8703,-3.8486,-3.8593,-3.8826,-3.8972,-3.8805,-3.8452,-3.8072,-3.7902,-3.7675,-3.7303,-3.7692,-3.7466,-3.6949,-3.7595,-3.7466,-3.6949,-3.7317,-3.7446,-3.7595,-3.8619,-3.8768,-3.8492,-3.8385,-3.8619,-3.8874,-3.8513,-3.8385,-3.8513,-3.8513,-3.9181,-4.0002,-4.0224,-4.1581,-4.2956,-4.3069,-4.3851,-4.4384,-4.4266,-4.3997,-4.3492,-4.3056,-4.3062,-4.2946,-4.2142,-4.2333,-4.2284,-4.1108,-4.1667,-4.239,-4.2813,-4.2665,-4.239,-4.1945,-4.2242,-4.239,-4.1945,-4.239,-4.2538,-4.2538,-4.2538,-4.239,-4.2094,-4.2518,-4.2538,-4.2094,-4.2094,-4.2094,-4.1945,-4.1945,-4.2094,-1.6639,-1.8029,-1.933,-2.0255,-2.1636,-2.2621,-2.2412,-2.3915,-2.5335,-2.5236,-2.6483,-2.7899,-2.9448,-3.0578,-3.2003,-3.434,-3.5458,-3.6257,-3.6804,-3.7076,-3.6766,-3.5892,-3.6953,-3.7398,-3.6508,-3.8148,-3.9101,-3.8682,-4.0008,-4.1632,-4.3286,-4.2207,-4.1891,-4.2676,-4.1199,-4.0258,-4.0052,-3.9675,-3.938,-3.8958,-3.9401,-3.9829,-4.0358,-4.0858,-4.1571,-4.2483,-4.1484,-4.1159,-4.0985,-3.9806,-3.9337,-3.923,-3.8916,-3.8726,-3.8492,-3.8705,-3.8726,-3.8492,-3.8705,-3.8726,-3.8619,-3.9675,-4.0052,-3.9905,-3.9549,-3.9653,-3.9926,-3.9549,-3.9675,-3.9926,-3.9926,-4.064,-4.1355,-4.1355,-4.283,-4.4249,-4.5028,-4.5966,-4.67,-4.6559,-4.6149,-4.5422,-4.4392,-4.4885,-4.4864,-4.2874,-4.3485,-4.3752,-4.272,-4.3401,-4.3401,-4.2538,-4.296,-4.3107,-4.239,-4.2665,-4.2813,-4.2813,-4.3107,-4.3401,-4.3401,-4.3401,-4.3401,-4.3254,-4.3693,-4.3693,-4.3254,-4.3693,-4.3401,-4.2813,-4.2813,-4.2813,-1.7474,-1.8506,-1.9629,-2.115,-2.2272,-2.3324,-2.4669,-2.5869,-2.6796,-2.7568,-2.8287,-2.9409,-3.1077,-3.1925,-3.3097,-3.57,-3.6493,-3.6959,-3.7231,-3.7599,-3.7532,-3.6659,-3.7421,-3.7783,-3.7119,-3.8331,-3.9295,-3.9254,-4.2005,-4.3777,-4.3915,-4.3732,-4.3478,-4.3433,-4.2015,-4.0982,-4.0405,-4.028,-4.0008,-3.9758,-4.0008,-4.0247,-4.0405,-4.066,-4.1132,-4.1783,-4.1194,-4.1123,-4.1353,-4.0809,-4.053,-4.053,-4.0112,-3.9736,-3.9484,-3.9632,-3.9527,-3.9275,-3.9632,-3.9883,-4.0134,-4.0654,-4.0654,-4.053,-4.053,-4.0654,-4.0778,-4.053,-4.0778,-4.1004,-4.1004,-4.2161,-4.3471,-4.3839,-4.5236,-4.665,-4.7135,-4.7521,-4.7767,-4.7767,-4.6929,-4.6227,-4.5827,-4.6086,-4.5829,-4.4358,-4.478,-4.5011,-4.4381,-4.413,-4.3839,-4.3107,-4.3401,-4.3254,-4.2665,-4.3401,-4.3985,-4.3985,-4.4711,-4.5143,-4.5143,-4.5143,-4.5143,-4.4855,-4.4999,-4.4855,-4.4566,-4.4711,-4.4711,-4.4566,-4.4421,-4.4421,-1.8441,-1.9381,-2.0568,-2.2352,-2.3316,-2.4465,-2.672,-2.7579,-2.8333,-2.9608,-3.0123,-3.0772,-3.2499,-3.3132,-3.425,-3.6785,-3.7444,-3.7754,-3.7889,-3.8387,-3.8442,-3.7677,-3.8088,-3.8364,-3.8237,-3.9085,-3.9818,-4.0193,-4.3682,-4.558,-4.4939,-4.5359,-4.5438,-4.4976,-4.3285,-4.2105,-4.1485,-4.1239,-4.0903,-4.053,-4.0756,-4.0889,-4.0925,-4.1029,-4.1287,-4.1716,-4.1471,-4.1632,-4.1981,-4.161,-4.1643,-4.162,-4.1251,-4.0858,-4.061,-4.0676,-4.0427,-4.0155,-4.0654,-4.115,-4.1643,-4.1643,-4.1374,-4.1374,-4.1643,-4.1765,-4.1643,-4.162,-4.1743,-4.2033,-4.2261,-4.3468,-4.4935,-4.573,-4.7033,-4.819,-4.8668,-4.8627,-4.8581,-4.8859,-4.821,-4.7584,-4.7329,-4.7333,-4.6863,-4.5827,-4.5926,-4.6,-4.5474,-4.4999,-4.4276,-4.3693,-4.3985,-4.3985,-4.3547,-4.4566,-4.5143,-4.5143,-4.6003,-4.6594,-4.6594,-4.6594,-4.6453,-4.6168,-4.631,-4.6168,-4.5739,-4.5861,-4.6025,-4.6168,-4.5861,-4.5861,-1.9646,-2.1456,-2.3255,-2.4192,-2.6031,-2.7752,-2.7849,-2.9329,-3.0593,-3.0652,-3.1447,-3.2626,-3.4096,-3.4608,-3.5686,-3.7978,-3.8654,-3.8901,-3.9361,-3.9585,-3.9604,-3.9064,-3.9316,-3.9714,-3.9861,-4.0836,-4.1552,-4.1896,-4.4547,-4.6502,-4.7013,-4.7061,-4.7408,-4.8119,-4.5777,-4.4302,-4.3982,-4.2735,-4.1888,-4.1575,-4.1575,-4.2117,-4.3065,-4.3296,-4.3924,-4.4767,-4.381,-4.3675,-4.3857,-4.2889,-4.2763,-4.3004,-4.2619,-4.2353,-4.2087,-4.2033,-4.1665,-4.1251,-4.2132,-4.274,-4.3028,-4.2619,-4.2763,-4.3004,-4.3028,-4.3028,-4.3004,-4.2642,-4.2763,-4.3214,-4.3875,-4.4325,-4.5027,-4.6417,-4.7267,-4.8066,-4.9099,-4.9467,-4.991,-5.0588,-5.0429,-4.9959,-4.9302,-4.897,-4.8349,-4.6793,-4.6914,-4.6906,-4.5991,-4.5861,-4.5287,-4.4276,-4.5143,-4.5596,-4.5143,-4.5882,-4.631,-4.631,-4.6736,-4.7019,-4.7019,-4.7019,-4.7019,-4.7041,-4.7323,-4.7323,-4.6878,-4.7323,-4.7323,-4.7041,-4.69,-4.69,-2.061,-2.1634,-2.2892,-2.5011,-2.6397,-2.7734,-2.9329,-3.0779,-3.1815,-3.2092,-3.2903,-3.4,-3.5192,-3.5737,-3.6508,-3.8024,-3.8325,-3.8455,-3.8864,-3.9209,-3.9339,-3.9423,-4.0112,-4.0339,-4.0112,-4.2781,-4.4145,-4.3365,-4.5721,-4.7188,-4.7236,-4.7418,-4.7794,-4.8393,-4.6355,-4.5094,-4.4574,-4.3127,-4.2376,-4.2231,-4.2231,-4.2315,-4.258,-4.305,-4.3504,-4.3829,-4.368,-4.3761,-4.4125,-4.3747,-4.3605,-4.3725,-4.3342,-4.3102,-4.3078,-4.2884,-4.2642,-4.2497,-4.3198,-4.3462,-4.3365,-4.3222,-4.3342,-4.3485,-4.3725,-4.4078,-4.4475,-4.4475,-4.472,-4.508,-4.6203,-4.6567,-4.6955,-4.8699,-4.9637,-5.0278,-5.0833,-5.0835,-5.0834,-5.1102,-5.1102,-5.0847,-5.0593,-5.0544,-5.015,-4.8847,-4.9111,-4.8858,-4.7115,-4.693,-4.6528,-4.5718,-4.5718,-4.5861,-4.6025,-4.6736,-4.7182,-4.7182,-4.8281,-4.8812,-4.8812,-4.8812,-4.8812,-4.8812,-4.8674,-4.8535,-4.8397,-4.8535,-4.8535,-4.8397,-4.8397,-4.8397,-2.1228,-2.2217,-2.3558,-2.5831,-2.7285,-2.8565,-3.061,-3.1902,-3.2831,-3.3405,-3.4304,-3.5324,-3.65,-3.7039,-3.7703,-3.8619,-3.8874,-3.9,-3.9148,-3.9484,-3.9987,-4.0258,-4.1105,-4.1598,-4.1229,-4.4787,-4.6417,-4.4652,-4.7437,-4.8851,-4.7869,-4.8364,-4.8772,-4.9158,-4.7212,-4.5954,-4.5464,-4.3957,-4.3222,-4.3222,-4.3102,-4.3004,-4.2884,-4.3269,-4.3509,-4.3485,-4.3725,-4.3939,-4.4437,-4.4319,-4.4437,-4.4555,-4.4176,-4.4058,-4.3915,-4.382,-4.3963,-4.4319,-4.4413,-4.4295,-4.4176,-4.4176,-4.4058,-4.4034,-4.4437,-4.516,-4.5662,-4.5326,-4.6003,-4.6949,-4.7752,-4.8291,-4.8954,-5.0982,-5.1647,-5.206,-5.2718,-5.2431,-5.2035,-5.2142,-5.2274,-5.2274,-5.2274,-5.2299,-5.2167,-5.1102,-5.1078,-5.0627,-4.9359,-4.8696,-4.7911,-4.7256,-4.7256,-4.7537,-4.7979,-4.8535,-4.8812,-4.8697,-4.9637,-5.0182,-5.0182,-5.0182,-5.0182,-5.0182,-4.9886,-4.975,-4.9637,-4.9637,-4.9637,-4.9637,-4.9637,-4.9637,-2.1449,-2.3203,-2.5143,-2.6687,-2.8581,-3.0283,-3.1442,-3.2661,-3.3752,-3.4721,-3.5625,-3.65,-3.7832,-3.8726,-3.9337,-3.9987,-4.0361,-4.0508,-4.0302,-4.0903,-4.1374,-4.1598,-4.2619,-4.3365,-4.3581,-4.7002,-4.8125,-4.5756,-4.9814,-5.1409,-4.9243,-5.0139,-5.0712,-5.0762,-4.8327,-4.7094,-4.7094,-4.5419,-4.4531,-4.4531,-4.4319,-4.4224,-4.4272,-4.4272,-4.4272,-4.4296,-4.4272,-4.4603,-4.5049,-4.4673,-4.4908,-4.5516,-4.5118,-4.4976,-4.4976,-4.4976,-4.5583,-4.6439,-4.5724,-4.5492,-4.5492,-4.5492,-4.5234,-4.4976,-4.5351,-4.6231,-4.6728,-4.5106,-4.6587,-4.8697,-4.8423,-4.9335,-5.0932,-5.2938,-5.3241,-5.3396,-5.4454,-5.4043,-5.363,-5.4017,-5.412,-5.412,-5.412,-5.4428,-5.4454,-5.363,-5.2668,-5.2249,-5.2905,-5.1163,-4.9543,-4.8743,-4.9726,-5.054,-5.0858,-5.1236,-5.1236,-5.0992,-5.0992,-5.0992,-5.0992,-5.0992,-5.0992,-5.0992,-5.0992,-5.0723,-5.0318,-5.0342,-5.0342,-5.0318,-5.0342,-5.0365,-2.2869,-2.3153,-2.3761,-2.7407,-2.8421,-2.9241,-3.1454,-3.2909,-3.4134,-3.5359,-3.665,-3.796,-3.9232,-3.9861,-4.0361,-4.1083,-4.1105,-4.1128,-4.1229,-4.1598,-4.1987,-4.2231,-4.3342,-4.4507,-4.5484,-4.7361,-4.7966,-4.6554,-4.8344,-4.9227,-4.8597,-4.9113,-4.955,-4.984,-4.8994,-4.8049,-4.7334,-4.6311,-4.5624,-4.5234,-4.5302,-4.5695,-4.6243,-4.6243,-4.69,-4.7857,-4.7593,-4.7787,-4.8363,-4.6761,-4.6469,-4.7026,-4.6551,-4.6135,-4.607,-4.682,-4.7046,-4.6907,-4.6617,-4.6503,-4.6339,-4.593,-4.593,-4.5955,-4.5814,-4.7106,-4.8373,-4.7041,-4.7855,-4.9193,-4.9562,-4.9886,-5.0637,-5.2555,-5.3808,-5.4504,-5.4885,-5.4911,-5.5064,-5.519,-5.519,-5.519,-5.519,-5.5317,-5.519,-5.5064,-5.5614,-5.5713,-5.4885,-5.3425,-5.1961,-5.0651,-5.0405,-5.054,-5.1212,-5.1212,-5.1212,-5.1236,-5.1794,-5.2109,-5.2109,-5.2109,-5.2109,-5.2109,-5.2109,-5.1557,-5.0638,-5.1161,-5.1136,-5.0638,-5.1161,-5.1419,-2.2637,-2.3213,-2.4123,-2.7401,-2.833,-2.9211,-3.1658,-3.304,-3.4152,-3.5481,-3.7094,-3.8657,-3.9647,-4.0592,-4.1475,-4.1965,-4.1987,-4.2132,-4.2208,-4.2572,-4.3055,-4.3534,-4.4927,-4.6085,-4.663,-4.8016,-4.8567,-4.7435,-4.8733,-4.9426,-4.8964,-4.9081,-4.9272,-4.9411,-4.8862,-4.8157,-4.7578,-4.6985,-4.6542,-4.625,-4.6314,-4.6526,-4.6944,-4.7418,-4.8232,-4.9076,-4.8683,-4.8877,-4.9309,-4.7531,-4.7061,-4.7477,-4.7137,-4.6933,-4.6958,-4.7943,-4.8054,-4.7582,-4.7522,-4.7271,-4.702,-4.6706,-4.6617,-4.6617,-4.6478,-4.7689,-4.8975,-4.8107,-4.9303,-5.0761,-5.1227,-5.1658,-5.2542,-5.4232,-5.5262,-5.5864,-5.621,-5.6387,-5.6537,-5.644,-5.6537,-5.6537,-5.6166,-5.6537,-5.6879,-5.7339,-5.7915,-5.7795,-5.6756,-5.5212,-5.3915,-5.319,-5.2274,-5.201,-5.306,-5.2824,-5.2799,-5.3035,-5.3085,-5.3136,-5.3266,-5.3136,-5.2804,-5.2222,-5.2649,-5.2193,-5.0684,-5.1201,-5.1424,-5.1534,-5.1424,-5.1877,-2.12,-2.3156,-2.5243,-2.7135,-2.8247,-2.9502,0.0,-3.2947,-3.3818,-3.5317,-3.7127,-3.8771,-3.9751,-4.1093,-4.2336,-4.2716,-4.3004,-4.3245,-4.3198,-4.3653,-4.4365,-4.5228,-4.6718,-4.7668,-4.7556,-4.8853,-4.9375,-4.838,-4.9957,-5.0544,-4.9759,-4.9477,-4.9248,-4.9363,-4.8376,-4.7857,-4.7857,-4.7582,-4.7332,-4.7332,-4.7261,-4.7276,-4.7315,-4.8603,-4.9216,-4.9318,-4.919,-4.918,-4.9184,-4.7645,-4.7297,-4.7512,-4.7496,-4.7445,-4.7668,-4.8715,-4.8715,-4.8412,-4.8275,-4.7917,-4.7582,-4.7831,-4.7496,-4.7108,-4.7332,-4.8155,-4.9081,-4.872,-5.0572,-5.2788,-5.2703,-5.3836,-5.5429,-5.6636,-5.7109,-5.7339,-5.7943,-5.8062,-5.809,-5.7905,-5.797,-5.8062,-5.7433,-5.8062,-5.9011,-5.9942,-5.9798,-5.9217,-5.8182,-5.6675,-5.5686,-5.5667,-5.4402,-5.4146,-5.5343,-5.4963,-5.481,-5.5364,-5.4631,-5.4248,-5.4504,-5.4145,-5.3223,-5.2,-5.2815,-5.2381,-5.0637,-5.0889,-5.1463,-5.2437,-5.1538,-5.2152,0.0,0.0,0.0,0.0,0.0,0.0,0.0,-3.167,-3.2453,-3.558,-3.6977,-3.83,-4.0793,-4.1606,-4.2378,-4.3582,-4.3844,-4.3963,-4.4176,-4.4766,-4.579,-4.7358,-4.8249,-4.8825,-4.9096,-4.9419,-4.9472,-4.9341,-4.9385,-4.927,-4.9169,-4.8949,-4.8838,-4.9059,-4.8601,-4.8386,-4.8386,-4.8359,-4.8165,-4.7746,-4.9105,-4.9905,-5.0372,-5.175,-5.2885,-5.3692,-5.2781,-5.2017,-5.1288,-4.9364,-4.8799,-4.9217,-4.9112,-4.9096,-4.9096,-4.9341,-4.9449,-4.9205,-4.8961,-4.8961,-4.9096,-4.8632,-4.8496,-4.8579,-4.8359,-4.9199,-4.9908,-4.8878,-5.0381,-5.2166,-5.1967,-5.3593,-5.562,-5.6511,-5.7726,-5.8657,-5.8983,-5.9217,-5.9595,-5.9711,-5.9739,-5.9711,-5.9595,-5.9826,-6.02,-6.0854,-6.1079,-6.0628,-5.9217,-5.8154,-5.7096,-5.5988,-5.5038,-5.4454,-5.4836,-5.4911,-5.5012,-5.5112,-5.4859,-5.4859,-5.4859,-5.3801,-5.2831,-5.2225,-5.178,-5.1196,-5.0258,-5.1392,-5.2051,-5.2306,-5.3121,-5.3914,0.0,0.0,0.0,0.0,0.0,0.0,0.0,0.0,0.0,0.0,0.0,-3.7372,-3.8713,0.0,-4.1771,-4.2409,-4.3598,-4.4649,-4.5025,-4.579,-4.6907,-4.8275,-4.9043,-4.9504,-4.9557,-4.9746,-4.9961,-4.9746,-4.9422,-4.9287,-4.9477,-4.9179,-4.9179,-4.9477,-4.9043,-4.8851,-4.9096,-4.8715,-4.8496,-4.8191,-4.9518,-5.0421,-5.0752,-5.1914,-5.2931,-5.3531,-5.2954,-5.218,-5.1368,-5.0288,-4.981,-4.9673,-5.0177,-5.0281,-5.0174,-5.0281,-5.0174,-4.9961,-4.9907,-4.9934,-4.9934,-4.9585,-4.9558,-4.9692,-4.9477,-4.9745,-5.0011,-5.009,-5.1003,-5.2217,-5.336,-5.4993,-5.671,-5.8112,-5.9256,-6.0171,-6.04,-6.0628,-6.0741,-6.0741,-6.0883,-6.0883,-6.077,-6.1332,-6.1888,-6.2078,-6.2108,-6.1666,-6.0371,-5.9898,-5.9114,-5.7905,-5.7296,-5.6707,-5.6121,-5.6633,-5.6607,-5.5891,-5.5766,-5.5891,-5.6015,-5.5262,-5.4311,-5.3339,-5.3339,-5.2833,-5.1774,-5.2464,-5.3131,-5.3649,-5.3548,-5.3775,0.0,0.0,0.0,0.0,0.0,0.0,0.0,0.0,0.0,0.0,0.0,0.0,0.0,0.0,0.0,-4.1247,-4.3366,-4.5196,-4.5699,-4.6794,-4.7891,-4.8689,-4.9558,-5.0147,-4.9881,-5.0254,-5.0439,-5.0227,-4.9961,-4.9854,-5.0013,-4.9746,-4.9746,-5.0013,-4.9395,-4.9287,-4.9773,-4.907,-4.8851,-4.8851,-4.9718,0.0,-5.0573,-5.1463,-5.1994,-5.2231,-5.2019,-5.1474,-5.0885,-5.056,-5.0142,-4.9827,-5.0716,-5.0851,-5.0396,-5.0653,-5.0646,-5.055,-5.0757,-5.0639,-5.0544,-5.0544,-5.0544,-5.065,-5.0727,-5.0498,0.0,-5.1721,-5.2202,-5.2929,-5.5093,-5.654,-5.7883,-5.973,-6.0633,-6.1344,-6.1939,-6.1998,-6.1998,-6.1939,-6.1968,-6.2027,-6.1777,-6.2868,-6.372,-6.3403,-6.3113,-6.2574,-6.1748,-6.152,-6.1011,-5.9531,-5.9316,-5.8729,-5.7408,-5.8016,-5.7969,-5.6771,-5.6771,-5.6931,-5.6832,-5.6103,-5.5079,-5.3539,-5.4339,-5.3991,-5.268,-5.318,-5.3864,-5.4529,-5.3584,-5.3438,0.0,0.0,0.0,0.0,0.0,0.0,0.0,0.0,0.0,0.0,0.0,0.0,0.0,0.0,0.0,0.0,-4.4216,-4.56,-4.6605,-4.8112,-4.918,-4.9288,-5.0305,-5.0992,-5.0992,-5.0992,-5.0992,-5.0992,-5.0782,-5.0572,-5.0333,-5.0013,0.0,0.0,0.0,-4.9746,-5.0227,-4.9746,-4.9449,-4.9449,-5.0604,-5.1168,-5.1244,-5.1979,-5.2512,-5.2682,-5.1438,-5.1045,-5.111,-5.0175,-4.9962,-5.0329,-5.0772,-5.0286,-4.9176,-4.9245,-5.0036,-5.1013,-5.1109,0.0,0.0,-5.0992,-5.1173,-5.1429,-5.1914,-5.2206,-5.2521,-5.3132,-5.3954,-5.4997,-5.5849,-5.6935,-5.818,-6.0165,-6.0656,-6.133,-6.3387,-6.3554,-6.3449,-6.4388,-6.4065,-6.3735,-6.3599,-6.4419,-6.5039,-6.489,-6.423,-6.3599,-6.316,-6.2721,-6.1661,-5.9592,-5.9044,0.0,-5.6795,-5.6833,-5.7099,-5.7044,-5.7641,-5.7386,-5.6007,-5.386,-5.2083,-5.0468,-5.1075,-5.1068,-5.0232,-5.2161,-5.3056,-5.3109,-5.3837,-5.4027,0.0,0.0,0.0,0.0,0.0,0.0,0.0,0.0,0.0,0.0,0.0,0.0,0.0,0.0,0.0,0.0,-4.3191,-4.5177,-4.6581,-4.8157,-4.9423,-5.0066,-5.0727,-5.1146,-5.1353,-5.1353,-5.1249,-5.1097,-5.0992,-5.0887,-5.0755,-5.065,-5.0755,-5.1041,-5.0572,-5.036,-5.0572,-5.0041,-4.9746,-4.9584,-5.0583,-5.1071,-5.1302,-5.1367,-5.1664,-5.1947,-5.0654,-5.0365,-5.0746,-5.0258,-5.036,-5.0909,0.0,0.0,0.0,0.0,-5.2401,-5.29,-5.267,-5.2588,-5.2607,-5.2607,-5.2679,-5.285,-5.3288,-5.3347,-5.3448,-5.3881,-5.4246,-5.4693,-5.5874,-5.7499,-5.9167,-6.0726,-6.1945,-6.3084,-6.4047,-6.396,-6.3886,-6.4303,-6.4552,0.0,-6.4819,-6.5062,-6.5411,-6.6309,-6.5165,-6.4568,-6.5778,-6.5218,-6.4304,-6.2993,-6.3125,-6.2236,-5.9548,-5.9865,0.0,0.0,0.0,-5.9022,-5.7702,-5.714,0.0,0.0,0.0,-5.2769,-5.1569,-5.2483,0.0,0.0,-4.9656,-5.0024,0.0,0.0,0.0,0.0,0.0,0.0,0.0,0.0,0.0,0.0,0.0,0.0,0.0,0.0,0.0,0.0,-4.2532,-4.4815,-4.6622,-4.832,-4.9576,-5.0363,-5.1055,-5.156,-5.1765,-5.1765,-5.1691,-5.1512,-5.1512,-5.1512,-5.1409,-5.1305,-5.1277,-5.1353,-5.1069,-5.086,-5.086,-5.0439,-5.0147,-4.9854,-5.0572,-5.0931,-5.1096,-5.0849,-5.0931,-5.1206,-5.0232,-5.0147,-5.0622,-5.0622,-5.1146,-5.1914,-5.3135,-5.3003,-5.2293,-5.3795,-5.3795,-5.3223,-5.3656,-5.3832,-5.3835,-5.3835,-5.3865,-5.4059,-5.4451,-5.4482,-5.4574,-5.4984,-5.4993,-5.5075,-5.6163,-5.7915,-5.968,-6.1048,-6.2702,-6.4184,-6.4757,-6.4644,-6.4438,-6.4613,-6.5333,-6.5768,-6.5695,-6.5695,-6.6094,-6.7465,-6.5917,-6.5564,-6.7984,-6.7401,-6.6522,-6.6002,-6.6114,-6.5043,-6.2021,-6.2011,-6.125,-5.9221,-6.0283,-6.0415,-5.9389,-5.9621,-5.8844,-5.6701,-5.5648,-5.4303,0.0,0.0,0.0,0.0,0.0,0.0,0.0,0.0,0.0,0.0,0.0,0.0,0.0,0.0,0.0,0.0,0.0,0.0,0.0,0.0,0.0,0.0,0.0,0.0,-4.6662,-4.8831,-5.0136,-4.9852,-5.1321,-5.249,-5.249,-5.249,-5.249,-5.249,-5.249,-5.2287,-5.2055,-5.1691,-5.1353,-5.1173,-5.1097,-5.1097,-5.1097,-5.1097,-5.0992,-5.065,-5.0992,-5.0992,-5.0732,-5.0782,-5.0887,-5.1152,-5.0782,-5.0937,-5.1429,-5.1429,-5.2219,-5.3466,-5.4365,-5.312,-5.1109,-5.3554,-5.2737,-5.0854,-5.3305,-5.4186,-5.4259,-5.4259,-5.451,-5.4854,-5.5265,-5.5698,-5.6215,-5.6694,-5.7079,-5.7254,-5.7285,-5.8164,-5.9436,-6.0735,-6.2126,-6.3714,-6.5808,-6.5795,-6.5695,-6.6481,-6.677,-6.6866,-6.6384,-6.6674,-6.7438,-6.8573,-6.6901,0.0,-6.9166,-6.846,-6.7461,-6.7039,-6.6089,-6.4831,-6.3255,-6.1774,-6.0853,-6.0793,-6.1165,-6.1065,-6.0232,-5.9348,-5.8215,-5.6611,-5.5697,-5.4186,-5.211,0.0,0.0,0.0,0.0,0.0,0.0,0.0,0.0,0.0,0.0,0.0,0.0,0.0,0.0,0.0,0.0,0.0,0.0,0.0,0.0,0.0,0.0,0.0,0.0,-4.7577,-4.9192,-4.9598,-5.0057,-5.0372,-5.0219,-5.0343,-5.0276,-4.996,-5.0084,-5.0523,-5.1252,-5.1182,-5.1352,-5.2027,-5.2055,-5.1822,-5.1353,-5.1353,-5.1277,-5.0992,-5.1097,-5.1097,-5.0992,-5.0992,-5.1097,-5.1097,-5.0992,-5.1457,-5.232,-5.2493,-5.2658,-5.2859,-5.3127,-5.2452,-5.1564,-5.4035,-5.3803,-5.2627,-5.5141,-5.5789,-5.5363,-5.4336,-5.4667,-5.5423,-5.5,-5.5693,-5.6756,-5.7084,-5.7379,-5.7859,-5.9086,-5.9651,-6.0374,-6.1939,-6.3202,-6.424,-6.4775,-6.5334,-6.5795,-6.5894,-6.5627,-6.566,-6.6419,-6.6866,-6.7534,-6.8869,-6.8185,-6.8476,-7.1131,-7.083,-7.0061,-6.9245,-6.8759,-6.7369,-6.4227,-6.3864,-6.3176,-6.1711,-6.2496,-6.2745,-6.1877,-6.2442,-6.1748,-5.9404,-5.8451,-5.6902,-5.4962,0.0,0.0,0.0,0.0,0.0,0.0,0.0,0.0,0.0,0.0,0.0,0.0,0.0,0.0,0.0,0.0,0.0,0.0,0.0,0.0,0.0,0.0,0.0,0.0,0.0,0.0,-4.8826,-4.8851,0.0,-4.8612,-4.8567,-4.842,-4.8429,-4.8578,-4.9125,-5.0295,-5.0162,-5.0466,-5.1224,-5.168,-5.1779,-5.1293,-5.1744,-5.1896,-5.1616,-5.1719,-5.1719,-5.1616,-5.1719,-5.1822,-5.1924,-5.1924,-5.2121,-5.2495,-5.2483,-5.2415,-5.2408,-5.2195,-5.1857,-5.1766,-5.3311,-5.3405,-5.2999,-5.4909,-5.5307,-5.4805,-5.3718,-5.4023,-5.4629,-5.4034,-5.4652,-5.5734,-5.6578,-5.6907,-5.7531,-6.0008,-6.0936,-6.1754,-6.3421,-6.47,-6.5407,-6.5313,-6.5343,-6.5591,-6.6094,-6.5439,-6.505,-6.586,-6.6106,-6.6577,-6.7694,-6.772,-6.8841,-7.1985,-7.2278,-7.2028,-7.1912,-7.1237,-6.9888,-6.7312,-6.6876,-6.5936,-6.399,-6.4517,-6.4425,-6.3356,-6.4459,-6.3826,-6.1328,-6.0673,-5.8834,0.0,0.0,0.0,0.0,0.0,0.0,0.0,0.0,0.0,0.0,0.0,0.0,0.0,0.0,0.0,0.0,0.0,0.0,0.0,0.0,0.0,0.0,0.0,0.0,0.0,0.0,0.0,-4.7522,-4.7755,0.0,0.0,0.0,0.0,-4.7753,-4.7783,-4.8221,-4.9111,-4.8703,-4.8603,-4.8904,-5.02,-5.0859,-5.0859,-5.212,-5.265,-5.2405,-5.2707,-5.2736,-5.249,-5.2764,-5.3036,-5.3264,-5.3177,-5.2815,-5.2283,-5.1548,-5.1606,-5.1927,-5.1314,-5.1215,-5.1336,-5.1278,-5.1449,-5.1669,-5.2589,-5.2905,-5.2884,-5.2667,-5.2627,-5.2555,-5.2267,-5.2374,0.0,0.0,-5.56,-5.6258,-5.9813,-6.1731,-6.3254,-6.4872,-6.6157,-6.696,-6.7306,-6.5878,-6.512,-6.6892,-6.6057,-6.5061,-6.4707,0.0,-6.4704,-6.5373,-6.6055,-6.7843,-7.1763,-7.2781,-7.3586,-7.4855,-7.3305,-7.2197,-7.2103,-7.0254,-6.8599,-6.7361,-6.6936,-6.6111,-6.488,-6.5233,-6.4389,-6.2037,-6.2088,0.0,0.0,0.0,0.0,0.0,0.0,0.0,0.0,0.0,0.0,0.0,0.0,0.0,0.0,0.0,0.0,0.0,0.0,0.0,0.0,0.0,0.0,0.0,0.0,0.0,0.0,-4.4919,-4.5805,-4.6805,-4.6264,-4.5805,0.0,0.0,0.0,0.0,0.0,0.0,-4.6034,-4.6839,-4.755,-4.807,-4.9222,-4.97,-4.9476,-5.1023,-5.1558,-5.1363,-5.2605,-5.3065,-5.2736,-5.3065,-5.3164,-5.3206,-5.2419,-5.2256,-5.2257,-4.9518,-4.8062,-4.7226,-4.5833,-4.5548,-4.6105,-4.778,-4.8943,-4.9933,-5.1816,-5.2785,-5.3056,-5.1772,-5.0593,-4.9515,-4.8845,0.0,0.0,0.0,0.0,-5.4891,-5.8153,-5.9754,-6.1243,-6.3933,-6.4807,-6.527,-6.6003,-6.5758,-6.5277,-6.4836,-6.3718,-6.292,-6.3114,-6.35,0.0,-6.478,-6.7188,-6.9662,-7.1727,-7.4133,-7.5334,-7.4588,-7.3863,-7.2947,-7.166,-6.989,-6.864,-6.8092,-6.6989,-6.6238,-6.5894,-6.5629,-6.4366,-6.1798,0.0,0.0,0.0,0.0,0.0,0.0,0.0,0.0,0.0,0.0,0.0,0.0,0.0,0.0,0.0,0.0,0.0,0.0,0.0,0.0,0.0,0.0,0.0,0.0,0.0,0.0,0.0,-4.3511,-4.4307,-4.5372,-4.3874,-4.309,0.0,0.0,0.0,0.0,0.0,0.0,0.0,0.0,0.0,-4.5695,-4.7373,-4.8104,-4.7779,-4.969,-5.0876,-5.133,-5.2148,-5.2784,-5.3206,-5.2853,-5.2815,-5.2854,-5.1794,-5.0835,-4.9715,-4.7149,-4.5391,-4.4218,0.0,0.0,0.0,0.0,-4.5158,-4.6006,-4.7775,-4.858,-4.8572,-4.7502,0.0,0.0,0.0,0.0,0.0,0.0,0.0,-5.2005,-5.6379,-5.832,-5.9957,-6.3542,-6.4305,-6.4415,-6.5109,-6.3509,-6.1938,-6.1755,-6.0428,-5.9519,-6.0315,-6.0743,0.0,0.0,0.0,-6.9529,-7.1541,-7.4976,-7.6769,-7.582,-7.5522,-7.5065,-7.3956,-7.2273,-7.0918,-7.0113,-6.8549,-6.7215,-6.5977,-6.5887,-6.4115,0.0,0.0,0.0,0.0,0.0,0.0,0.0,0.0,0.0,0.0,0.0,0.0,0.0,0.0,0.0,0.0,0.0,0.0,0.0,0.0,0.0,0.0,0.0,0.0,0.0,0.0,0.0,0.0,0.0,-4.2946,-4.4098,0.0,0.0,0.0,0.0,0.0,0.0,0.0,0.0,0.0,0.0,0.0,0.0,0.0,-4.6138,-4.5636,-4.8073,-4.9917,-5.1111,-5.1286,-5.2045,-5.3145,-5.2256,-5.2039,-5.2135,-5.0451,0.0,-4.6202,-4.4493,0.0,0.0,0.0,0.0,0.0,0.0,0.0,0.0,0.0,0.0,0.0,0.0,0.0,0.0,0.0,0.0,0.0,0.0,0.0,0.0,0.0,0.0,-5.8599,-6.2608,-6.3478,-6.3363,-6.3132,-5.9776,-5.7085,-5.8227,-5.6922,-5.5971,0.0,0.0,0.0,0.0,0.0,0.0,-7.16,-7.5645,-7.8022,-7.7759,-7.766,-7.7561,-7.7328,-7.566,-7.3903,-7.2349,-7.0479,-6.8292,-6.5634,-6.5726,0.0,0.0,0.0,0.0,0.0,0.0,0.0,0.0,0.0,0.0,0.0,0.0,0.0,0.0,0.0,0.0,0.0,0.0,0.0,0.0,0.0,0.0,0.0,0.0,0.0,0.0,0.0,0.0,0.0,0.0,0.0,0.0,0.0,0.0,0.0,0.0,0.0,0.0,0.0,0.0,0.0,0.0,0.0,0.0,0.0,0.0,0.0,0.0,0.0,0.0,-4.9195,-4.9981,-5.0431,-5.0654,-5.0837,-5.0601,-4.5753,-4.4018,-4.4413,-4.1792,0.0,0.0,0.0,0.0,0.0,0.0,0.0,0.0,0.0,0.0,0.0,0.0,0.0,0.0,0.0,0.0,0.0,0.0,0.0,0.0,0.0,0.0,-5.4422,-5.7509,-5.8983,-5.889,-5.6171,0.0,0.0,0.0,0.0,0.0,0.0,0.0,0.0,0.0,0.0,0.0,-7.2891,-7.6764,-7.9075,-7.8825,-7.8443,-7.8152,-7.8152,-7.6382,-7.4651,-7.3152,-7.0423,-6.7768,0.0,0.0,0.0,0.0,0.0,0.0,0.0,0.0,0.0,0.0,0.0,0.0,0.0,0.0,0.0,0.0,0.0,0.0,0.0,0.0,0.0,0.0,0.0,0.0,0.0,0.0,0.0,0.0,0.0,0.0,0.0,0.0,0.0,0.0,0.0,0.0,0.0,0.0,0.0,0.0,0.0,0.0,0.0,0.0,0.0,0.0,0.0,0.0,0.0,0.0,0.0,0.0,0.0,0.0,0.0,0.0,0.0,0.0,-4.373,-4.1926,0.0,0.0,0.0,0.0,0.0,0.0,0.0,0.0,0.0,0.0,0.0,0.0,0.0,0.0,0.0,0.0,0.0,0.0,0.0,0.0,0.0,0.0,0.0,0.0,0.0,0.0,0.0,0.0,0.0,0.0,0.0,0.0,0.0,0.0,0.0,0.0,0.0,0.0,0.0,0.0,-7.2273,-7.6284,-7.9026,-7.9505,-7.9295,-7.9108,-7.9014,-7.6545,-7.4771,-7.4076,-6.9827,0.0,0.0,0.0,0.0,0.0,0.0,0.0,0.0,0.0,0.0,0.0,0.0,0.0,0.0,0.0,0.0,0.0,0.0,0.0,0.0,0.0,0.0,0.0,0.0,0.0,0.0,0.0,0.0,0.0,0.0,0.0,0.0,0.0,0.0,0.0,0.0,0.0,0.0,0.0,0.0,0.0,0.0,0.0,0.0,0.0,0.0,0.0,0.0,0.0,0.0,0.0,0.0,0.0,0.0,0.0,0.0,0.0,0.0,0.0,-4.1523,-3.9975,0.0,0.0,0.0,0.0,0.0,0.0,0.0,0.0,0.0,0.0,0.0,0.0,0.0,0.0,0.0,0.0,0.0,0.0,0.0,0.0,0.0,0.0,0.0,0.0,0.0,0.0,0.0,0.0,0.0,0.0,0.0,0.0,0.0,0.0,0.0,0.0,0.0,0.0,0.0,0.0,-7.1574,-7.5986,-7.9166,-8.0015,-8.006,-7.9936,-7.963,-7.6966,-7.4934,-7.4135,-6.9327,0.0,0.0,0.0,0.0,0.0,0.0,0.0,0.0,0.0,0.0,0.0,0.0,0.0,0.0,0.0,0.0,0.0,0.0,0.0,0.0,0.0,0.0,0.0,0.0,0.0,0.0,0.0,0.0,0.0,0.0,0.0,0.0,0.0,0.0,0.0,0.0,0.0,0.0,0.0,0.0,0.0,0.0,0.0,0.0,0.0,0.0,0.0,0.0,0.0,0.0,0.0,0.0,0.0,0.0,0.0,0.0,0.0,0.0,0.0,0.0,0.0,0.0,0.0,0.0,0.0,0.0,0.0,0.0,0.0,0.0,0.0,0.0,0.0,0.0,0.0,0.0,0.0,0.0,0.0,0.0,0.0,0.0,0.0,0.0,0.0,0.0,0.0,0.0,0.0,0.0,0.0,0.0,0.0,0.0,0.0,0.0,0.0,0.0,0.0,0.0,0.0,-7.2327,-7.7474,-8.0907,-8.0786,-8.0525,-8.0349,-8.0015,-7.8352,-7.5858,-7.241,0.0,0.0,0.0,0.0,0.0,0.0,0.0,0.0,0.0,0.0,0.0,0.0,0.0,0.0,0.0,0.0,0.0,0.0,0.0,0.0,0.0,0.0,0.0,0.0,0.0,0.0,0.0,0.0,0.0,0.0,0.0,0.0,0.0,0.0,0.0,0.0,0.0,0.0,0.0,0.0,0.0,0.0,0.0,0.0,0.0,0.0,0.0,0.0,0.0,0.0,0.0,0.0,0.0,0.0,0.0,0.0,0.0,0.0,0.0,0.0,0.0,0.0,0.0,0.0,0.0,0.0,0.0,0.0,0.0,0.0,0.0,0.0,0.0,0.0,0.0,0.0,0.0,0.0,0.0,0.0,0.0,0.0,0.0,0.0,0.0,0.0,0.0,0.0,0.0,0.0,0.0,0.0,0.0,0.0,0.0,0.0,0.0,0.0,0.0,0.0,0.0,0.0,-7.1095,-7.6536,-8.0585,-8.1263,-8.1078,-8.0958,-8.089,-7.8367,-7.5697,-7.2903,0.0,0.0,0.0,0.0,0.0,0.0,0.0,0.0,0.0,0.0,0.0,0.0,0.0,0.0,0.0,0.0,0.0,0.0,0.0,0.0,0.0,0.0,0.0,0.0,0.0,0.0,0.0,0.0,0.0,0.0,0.0,0.0,0.0,0.0,0.0,0.0,0.0,0.0,0.0,0.0,0.0,0.0,0.0,0.0,0.0,0.0,0.0,0.0,0.0,0.0,0.0,0.0,0.0,0.0,0.0,0.0,0.0,0.0,0.0,0.0,0.0,0.0,0.0,0.0,0.0,0.0,0.0,0.0,0.0,0.0,0.0,0.0,0.0,0.0,0.0,0.0,0.0,0.0,0.0,0.0,0.0,0.0,0.0,0.0,0.0,0.0,0.0,0.0,0.0,0.0,0.0,0.0,0.0,0.0,0.0,0.0,0.0,0.0,0.0,0.0,0.0,0.0,-7.1123,-7.6873,-8.1133,-8.1935,-8.1842,-8.1726,-8.1726,-7.8438,-7.5224,-7.2556,0.0,0.0,0.0,0.0,0.0,0.0,0.0,0.0,0.0,0.0,0.0,0.0,0.0,0.0,0.0,0.0,0.0,0.0,0.0,0.0,0.0,0.0,0.0,0.0,0.0,0.0,0.0,0.0,0.0,0.0,0.0,0.0,0.0,0.0,0.0,0.0,0.0,0.0,0.0,0.0,0.0,0.0,0.0,0.0,0.0,0.0,0.0,0.0,0.0,0.0,0.0,0.0,0.0,0.0,0.0,0.0,0.0,0.0,0.0,0.0,0.0,0.0,0.0,0.0,0.0,0.0,0.0,0.0,0.0,0.0,0.0,0.0,0.0,0.0,0.0,0.0,0.0,0.0,0.0,0.0,0.0,0.0,0.0,0.0,0.0,0.0,0.0,0.0,0.0,0.0,0.0,0.0,0.0,0.0,0.0,0.0,0.0,0.0,0.0,0.0,0.0,0.0,-7.3182,-7.9316,-8.3247,-8.3024,-8.3024,-8.2873,-8.2454,-7.8602,-7.4504,0.0,0.0,0.0,0.0,0.0,0.0,0.0,0.0,0.0,0.0,0.0,0.0,0.0,0.0,0.0,0.0,0.0,0.0,0.0,0.0,0.0,0.0,0.0,0.0,0.0,0.0,0.0,0.0,0.0,0.0,0.0,0.0,0.0,0.0,0.0,0.0,0.0,0.0,0.0,0.0,0.0,0.0,0.0,0.0,0.0,0.0,0.0,0.0,0.0,0.0,0.0,0.0,0.0,0.0,0.0,0.0,0.0,0.0,0.0,0.0,0.0,0.0,0.0,0.0,0.0,0.0,0.0,0.0,0.0,0.0,0.0,0.0,0.0,0.0,0.0,0.0,0.0,0.0,0.0,0.0,0.0,0.0,0.0,0.0,0.0,0.0,0.0,0.0,0.0,0.0,0.0,0.0,0.0,0.0,0.0,0.0,0.0,0.0,0.0,0.0,0.0,0.0,0.0,-7.1549,-7.7809,-8.2303,-8.3289,-8.3394,-8.343,-8.3502,-8.1069,-7.7091,-7.1339,0.0,0.0,0.0,0.0,0.0,0.0,0.0,0.0,0.0,0.0,0.0,0.0,0.0,0.0,0.0,0.0,0.0,0.0,0.0,0.0,0.0,0.0,0.0,0.0,0.0,0.0,0.0,0.0,0.0,0.0,0.0,0.0,0.0,0.0,0.0,0.0,0.0,0.0,0.0,0.0,0.0,0.0,0.0,0.0,0.0,0.0,0.0,0.0,0.0,0.0,0.0,0.0,0.0,0.0,0.0,0.0,0.0,0.0,0.0,0.0,0.0,0.0,0.0,0.0,0.0,0.0,0.0,0.0,0.0,0.0,0.0,0.0,0.0,0.0,0.0,0.0,0.0,0.0,0.0,0.0,0.0,0.0,0.0,0.0,0.0,0.0,0.0,0.0,0.0,0.0,0.0,0.0,0.0,0.0,0.0,0.0,0.0,0.0,0.0,0.0,0.0,0.0,0.0,-7.7452,-8.1858,-8.3823,-8.4071,-8.4176,-8.4142,-8.1518,-7.7453,-7.1778,0.0,0.0,0.0,0.0,0.0,0.0,0.0,0.0,0.0,0.0,0.0,0.0,0.0,0.0,0.0,0.0,0.0,0.0,0.0,0.0,0.0,0.0,0.0,0.0,0.0,0.0,0.0,0.0,0.0,0.0,0.0,0.0,0.0,0.0,0.0,0.0,0.0,0.0,0.0,0.0,0.0,0.0,0.0,0.0,0.0,0.0,0.0,0.0,0.0,0.0,0.0,0.0,0.0,0.0,0.0,0.0,0.0,0.0,0.0,0.0,0.0,0.0,0.0,0.0,0.0,0.0,0.0,0.0,0.0,0.0,0.0,0.0,0.0,0.0,0.0,0.0,0.0,0.0,0.0,0.0,0.0,0.0,0.0,0.0,0.0,0.0,0.0,0.0,0.0,0.0,0.0,0.0,0.0,0.0,0.0,0.0,0.0,0.0,0.0,0.0,0.0,0.0,0.0,-7.8023,-8.1775,-8.4489,-8.4984,-8.4954,-8.4488,-8.0639,-7.6344,-7.1948,-6.6003,0.0,0.0,0.0,0.0,0.0,0.0,0.0,0.0,0.0,0.0,0.0,0.0,0.0,0.0,0.0,0.0,0.0,0.0,0.0,0.0,0.0,0.0,0.0,0.0,0.0,0.0,0.0,0.0,0.0,0.0,0.0,0.0,0.0,0.0,0.0,0.0,0.0,0.0,0.0,0.0,0.0,0.0,0.0,0.0,0.0,0.0,0.0,0.0,0.0,0.0,0.0,0.0,0.0,0.0,0.0,0.0,0.0,0.0,0.0,0.0,0.0,0.0,0.0,0.0,0.0,0.0,0.0,0.0,0.0,0.0,0.0,0.0,0.0,0.0,0.0,0.0,0.0,0.0,0.0,0.0,0.0,0.0,0.0,0.0,0.0,0.0,0.0,0.0,0.0,0.0,0.0,0.0,0.0,0.0,0.0,0.0,0.0,0.0,0.0,0.0,0.0,0.0,-7.6468,-8.0761,-8.4799,-8.5302,-8.5176,-8.4954,-8.277,-7.901,-7.339,-6.8492,0.0,0.0,0.0,0.0,0.0,0.0,0.0,0.0,0.0,0.0,0.0,0.0,0.0,0.0,0.0,0.0,0.0,0.0,0.0,0.0,0.0,0.0,0.0,0.0,0.0,0.0,0.0,0.0,0.0,0.0,0.0,0.0,0.0,0.0,0.0,0.0,0.0,0.0,0.0,0.0,0.0,0.0,0.0,0.0,0.0,0.0,0.0,0.0,0.0,0.0,0.0,0.0,0.0,0.0,0.0,0.0,0.0,0.0,0.0,0.0,0.0,0.0,0.0,0.0,0.0,0.0,0.0,0.0,0.0,0.0,0.0,0.0,0.0,0.0,0.0,0.0,0.0,0.0,0.0,0.0,0.0,0.0,0.0,0.0,0.0,0.0,0.0,0.0,0.0,0.0,0.0,0.0,0.0,0.0,0.0,0.0,0.0,0.0,0.0,0.0,0.0,0.0,-7.1502,-7.801,-8.4547,-8.5329,-8.5329,-8.4984,-8.2734,-7.8889,-7.3132,-6.7844,0.0,0.0,0.0,0.0,0.0,0.0,0.0,0.0,0.0,0.0,0.0,0.0,0.0,0.0,0.0,0.0,0.0,0.0,0.0,0.0,0.0,0.0,0.0,0.0,0.0,0.0,0.0,0.0,0.0,0.0,0.0,0.0,0.0,0.0,0.0,0.0,0.0,0.0,0.0,0.0,0.0,0.0,0.0,0.0,0.0,0.0,0.0,0.0,0.0,0.0,0.0,0.0,0.0,0.0,0.0,0.0,0.0,0.0,0.0,0.0,0.0,0.0,0.0,0.0,0.0,0.0,0.0,0.0,0.0,0.0,0.0,0.0,0.0,0.0,0.0,0.0,0.0,0.0,0.0,0.0,0.0,0.0,0.0,0.0,0.0,0.0,0.0,0.0,0.0,0.0,0.0,0.0,0.0,0.0,0.0,0.0,0.0,0.0,0.0,0.0,0.0,0.0,0.0,-7.4284,-8.2653,-8.4695,-8.5185,-8.4525,-8.1588,-7.7444,-7.215,0.0,0.0,0.0,0.0,0.0,0.0,0.0,0.0,0.0,0.0,0.0,0.0,0.0,0.0,0.0,0.0,0.0,0.0,0.0,0.0,0.0,0.0,0.0,0.0,0.0,0.0,0.0,0.0,0.0,0.0,0.0,0.0,0.0,0.0,0.0,0.0,0.0,0.0,0.0,0.0,0.0,0.0,0.0,0.0,0.0,0.0,0.0,0.0,0.0,0.0,0.0,0.0,0.0,0.0,0.0,0.0,0.0,0.0,0.0,0.0,0.0,0.0,0.0,0.0,0.0,0.0,0.0,0.0,0.0,0.0,0.0,0.0,0.0,0.0,0.0,0.0,0.0,0.0,0.0,0.0,0.0,0.0,0.0,0.0,0.0,0.0,0.0,0.0,0.0,0.0,0.0,0.0,0.0,0.0,0.0,0.0,0.0,0.0,0.0,0.0,0.0,0.0,0.0,0.0,-7.0206,-7.5638,-8.1742,-8.4727,-8.321,-8.0037,-7.6159,-7.1561,0.0,0.0,0.0,0.0,0.0,0.0,0.0,0.0,0.0,0.0,0.0,0.0,0.0,0.0]}],[{"header":{"parameterUnit":"kt","parameterCategory":2,"dx":1,"dy":1,"la1":29.285339999999998,"la2":30.599998999999997,"lo1":-89.70041500000002,"lo2":-87.6738589999976,"nx":112,"ny":82,"refTime":"2022-09-24T06:00:00:Z","depth":0,"parameterNumber":2,"parameterNumberName":"V-component_of_WINDS"},"data":[5.6603,5.662,5.6341,5.3985,5.4394,5.5194,5.4573,5.4025,5.3913,5.4713,5.4141,5.3038,5.1387,5.0597,4.9566,4.7563,4.5374,4.3795,0.0,4.3844,0.0,0.0,0.0,0.0,0.0,0.0,0.0,0.0,0.0,0.0,0.0,5.7474,6.1692,6.8218,7.0792,7.3836,7.7379,7.7239,7.7149,7.7177,7.6822,7.659,7.644,7.6166,7.5952,7.5843,7.6042,7.5877,7.5431,7.2831,7.151,7.0802,6.8064,6.6885,6.7058,6.8961,6.9997,7.0764,7.288,7.4725,7.6233,7.6724,7.7001,7.7186,7.7195,7.7328,7.8201,8.1654,8.2662,8.2705,8.2789,8.3275,8.2942,7.9608,8.1313,8.3724,8.3765,8.5877,8.7846,8.813,8.8172,8.825,8.8543,8.8683,8.8846,8.9103,8.9157,8.9145,8.9159,8.9184,8.9208,8.9208,8.8314,8.8171,8.9265,8.934,8.9317,8.9208,8.9171,8.9924,9.1606,9.1666,9.2467,9.416,9.4715,9.5033,9.5097,9.6775,9.7593,9.7662,9.8675,9.9146,5.5285,5.544,5.5223,5.2792,5.319,5.3842,5.2647,5.2394,5.2466,5.2748,5.2497,5.1741,4.9936,4.9685,4.9181,4.7628,4.5977,4.5005,0.0,0.0,0.0,0.0,0.0,0.0,0.0,0.0,0.0,0.0,0.0,0.0,5.7174,5.9017,6.269,6.8752,7.0039,7.2406,7.6005,7.596,7.6055,7.6483,7.6306,7.6462,7.6833,7.664,7.644,7.6183,7.6323,7.6084,7.5554,7.3509,7.2404,7.1731,6.8998,6.7897,6.8108,7.0651,7.1254,7.1254,7.4517,7.6359,7.7321,7.7149,7.7239,7.7409,7.7416,7.7538,7.8407,8.1781,8.2789,8.2831,8.2953,8.2993,8.2177,7.8914,8.0695,8.3072,8.3072,8.567,8.8012,8.8211,8.8363,8.847,8.8641,8.8808,8.8961,8.9183,8.9209,8.9197,8.9232,8.9232,8.9256,8.9279,8.8382,8.8198,8.9331,8.9406,8.9384,8.9302,8.9294,8.9798,9.0915,9.0904,9.1418,9.2547,9.3101,9.3654,9.4345,9.5952,9.707,9.7699,9.8126,9.8389,5.1533,5.2286,5.2704,4.887,5.0593,5.2281,4.8884,5.0597,5.2452,5.0691,5.1535,5.2016,5.0391,5.0,4.9461,4.7973,4.6455,0.0,0.0,0.0,0.0,0.0,0.0,0.0,0.0,0.0,0.0,0.0,0.0,0.0,5.9648,6.46,6.7476,6.7742,7.0982,7.2833,7.3097,7.2985,7.3723,7.5236,7.5227,7.5992,7.7372,7.7372,7.7104,7.6627,7.659,7.5654,7.4175,7.4066,7.3266,7.1976,7.042,6.9792,7.0187,7.3759,7.4069,7.3223,7.647,7.7581,7.7538,7.7416,7.7581,7.7746,7.7623,7.7742,7.8646,8.1989,8.2876,8.2835,8.3075,8.3075,8.2257,7.9238,8.0877,8.3113,8.3113,8.5754,8.8174,8.8176,8.8433,8.8679,8.8802,8.8944,8.9055,8.9133,8.9197,8.9221,8.9232,8.9218,8.9279,8.94,8.9389,8.9335,8.941,8.9372,8.9335,8.941,8.9406,8.946,8.9498,8.9317,8.9256,8.9294,9.0999,9.2682,9.4379,9.6071,9.7732,9.9208,9.751,9.6788,5.2978,5.3121,5.2947,5.065,5.0834,5.1324,5.0339,4.9906,4.9842,5.0527,5.005,0.0,0.0,0.0,4.9053,4.9749,0.0,4.9579,0.0,5.115,0.0,0.0,0.0,0.0,0.0,0.0,0.0,0.0,0.0,6.3985,6.5718,6.815,6.9735,7.0187,7.209,7.3168,7.324,7.3168,7.3947,7.5503,7.5503,7.6314,7.7746,7.7623,7.7247,7.6833,7.6785,7.6457,7.5849,7.3673,7.2605,7.2065,7.0547,7.1442,7.3811,7.4932,7.5052,7.5019,7.7203,7.7904,7.7824,7.7824,7.7824,7.7864,7.7864,7.7943,7.8504,8.0581,8.2068,8.2851,8.1774,8.2368,8.2478,7.9273,8.0129,8.1657,8.1657,8.4227,8.6574,8.6646,8.7758,8.8679,8.8802,8.901,8.8782,8.7673,8.8563,8.934,8.9368,8.9368,8.9368,8.9427,8.8428,8.8222,8.947,8.8411,8.826,8.947,8.9468,9.0035,9.134,9.0168,9.0052,9.118,9.0484,9.0953,9.2644,9.4243,9.595,9.761,9.5989,9.5233,5.2017,5.1824,5.1579,5.0536,5.029,5.0239,5.0137,4.9348,4.8892,4.9753,0.0,0.0,0.0,0.0,0.0,0.0,5.2334,0.0,0.0,0.0,5.8416,0.0,0.0,0.0,0.0,0.0,0.0,0.0,6.8283,6.7375,6.8424,6.9322,6.9874,7.0078,7.0873,7.1297,7.1166,7.1932,7.3121,7.4613,7.5354,7.617,7.7059,7.6908,7.6263,7.5301,7.5748,7.5941,7.5789,7.4669,7.425,7.4166,7.2038,7.2421,7.4345,7.5128,7.5465,7.5725,7.7542,7.8097,7.8096,7.8097,7.8097,7.8096,7.8059,7.8135,7.858,8.0251,8.1476,8.2106,8.1173,8.1654,8.1797,7.9219,7.9858,8.1055,8.1055,8.3662,8.6012,8.608,8.7523,8.8552,8.7993,8.7501,8.7122,8.6926,8.774,8.863,8.9335,8.9427,8.9427,8.941,8.8579,8.8486,8.9527,8.8714,8.8563,8.9563,8.9545,8.9999,9.1036,9.0148,9.0036,9.0943,9.0018,9.0319,9.2032,9.2916,9.4302,9.5972,9.4346,9.3607,5.0053,4.9573,4.9559,4.9424,4.9392,4.9381,4.9333,0.0,4.9306,4.9406,0.0,5.1736,5.1472,0.0,0.0,0.0,0.0,0.0,5.8819,6.12,6.4437,6.9223,6.8412,6.8062,6.9585,6.9645,7.0883,7.414,7.1333,6.9348,6.9158,6.9423,6.9383,6.8991,6.9132,6.9117,6.8872,7.0474,7.2068,7.3609,7.494,7.5681,7.583,7.5644,7.4576,7.2984,7.4114,7.4677,7.4779,7.5873,7.6578,7.6701,7.4339,7.3464,7.365,7.5168,7.5799,7.6132,7.7615,7.8246,7.832,7.8353,7.8353,7.8356,7.8208,7.8243,7.8683,8.0316,8.0909,8.1018,8.0861,8.0969,8.0702,7.9115,7.9763,8.0857,8.1043,8.3582,8.589,8.6107,8.7466,8.8098,8.6434,8.5154,8.4815,8.6118,8.6646,8.7385,8.8693,8.918,8.9331,8.9146,8.9317,8.9488,8.9621,8.9621,8.9601,8.9653,8.9653,8.9653,8.9653,8.9615,8.9615,8.9615,8.9653,9.0451,9.2134,9.2134,9.2831,9.4092,9.2545,9.1934,5.0043,4.9566,4.9579,4.9539,4.9526,4.9836,0.0,0.0,0.0,5.2928,5.3449,5.367,5.3509,0.0,0.0,0.0,0.0,0.0,0.0,6.9187,0.0,7.5431,7.5103,7.4921,7.5383,7.5297,7.5539,7.6341,7.4512,7.2717,7.1253,7.2407,7.2471,7.1172,7.2332,7.2899,7.2629,7.3055,7.4032,7.5478,7.453,7.4822,7.6059,7.4616,7.36,7.3023,7.3208,7.3897,7.4861,7.3875,7.4242,7.5528,7.636,7.6864,7.717,7.7504,7.7653,7.7689,7.8131,7.8207,7.8208,7.8422,7.8494,7.8494,7.8457,7.8457,7.8565,7.89,8.0007,8.0782,7.9513,8.0179,8.0766,7.9115,7.8965,7.9533,8.0916,8.2811,8.4632,8.5979,8.6688,8.6208,8.3285,8.3655,8.4039,8.3085,8.5275,8.6671,8.5634,8.7787,8.8939,8.7656,8.8771,8.9639,8.9745,8.9691,8.9653,8.9761,8.9777,8.9777,8.9777,8.9769,8.9769,8.9777,8.9777,9.054,9.2152,9.2152,9.1653,9.0746,9.0417,9.0272,5.0331,4.9628,4.9566,4.9666,4.9604,0.0,0.0,5.192,5.2597,5.5106,5.6278,5.6845,5.6772,5.8087,5.9177,5.9126,6.1941,6.4734,6.6436,7.1143,7.5112,7.6957,7.7001,7.7235,7.8159,7.748,7.699,7.7084,7.4743,7.2858,7.1974,7.1859,7.1401,7.0479,7.129,7.1959,7.2412,7.2599,7.3432,7.4797,7.407,7.3659,7.3629,7.271,7.176,7.0888,7.1534,7.2246,7.2948,7.3605,7.3937,7.4166,7.5019,7.554,7.5724,7.5724,7.6277,7.7091,7.7091,7.7574,7.828,7.8457,7.8528,7.8528,7.8528,7.8594,7.8627,7.8654,7.9209,7.972,7.904,7.9444,7.9886,7.9025,7.9466,8.0319,8.1158,8.3352,8.5166,8.5121,8.4651,8.3713,8.2088,8.189,8.1951,8.201,8.4181,8.5824,8.5824,8.7958,8.9243,8.8429,8.911,8.9674,8.9777,8.9761,8.9723,8.9807,8.9807,8.9807,8.9807,8.9797,8.9797,8.9807,8.9807,9.0208,9.0956,9.0971,9.0554,8.9799,8.9817,8.9841,5.0746,4.9922,5.0055,4.9814,4.9953,0.0,5.2218,5.3085,5.4319,5.6951,5.9079,6.0388,6.0044,6.2399,6.3932,6.2577,6.602,6.921,7.0017,7.1786,7.403,7.6857,7.7108,7.7707,7.9382,7.8123,7.7155,7.7169,7.4645,7.2815,7.2187,7.0547,6.9672,6.9741,6.9861,7.0509,7.1684,7.1946,7.2606,7.3764,7.3391,7.2532,7.1196,7.0869,6.9944,6.8722,6.9874,7.0554,7.0971,7.3282,7.3614,7.2721,7.3124,7.3303,7.3374,7.3708,7.4522,7.5594,7.6124,7.7014,7.7938,7.8412,7.8594,7.8627,7.8557,7.8659,7.8754,7.8741,7.8763,7.8763,7.8897,7.8925,7.8925,7.8925,7.9993,8.1146,8.1772,8.3817,8.5254,8.4211,8.2847,8.1755,8.1416,8.0348,8.0007,8.1384,8.3006,8.4459,8.5497,8.7421,8.8648,8.8664,8.8951,8.9345,8.9769,8.9792,8.9807,8.9811,8.9811,8.9811,8.9824,8.9824,8.9786,8.9799,8.9799,8.9824,8.9797,8.9808,8.9823,8.9829,8.9829,8.9919,5.1096,5.0832,5.1643,5.0131,5.0897,0.0,5.3993,5.6662,5.8941,0.0,6.1913,6.3688,6.2179,6.3338,6.4459,6.4258,6.5879,6.834,7.1718,7.4804,7.6883,7.7323,7.7316,7.7955,7.9509,7.8146,7.7186,7.7193,7.6806,7.5343,7.2465,7.0688,7.0314,7.1597,7.1764,7.2444,7.3707,7.3896,7.4008,7.4007,7.2375,7.1552,7.1433,6.9788,6.8958,6.8808,6.8966,6.9736,7.092,7.1268,7.1305,7.1329,7.2749,7.3337,7.3648,7.5138,7.4877,7.4169,7.7187,7.7373,7.6511,7.8174,7.8785,7.8838,7.8741,7.8808,7.8905,7.8905,7.8888,7.8896,7.8934,7.8934,7.8934,7.8934,7.9046,8.0021,8.3059,8.2928,8.2559,8.389,8.2902,8.1365,8.0028,7.9722,7.9742,7.9912,8.1402,8.1995,8.0678,8.3296,8.5303,8.5275,8.6641,8.8169,8.9685,8.9811,8.9811,8.9811,8.9811,8.9822,8.9807,8.9807,8.9817,8.9808,8.9808,8.9817,8.9795,8.9823,8.9847,8.9978,8.9978,8.9978,5.0726,5.1068,5.2124,5.1422,0.0,0.0,5.7,5.947,6.208,6.4968,6.6756,6.7538,6.6773,6.7198,6.7349,6.6298,6.7566,6.9252,7.0827,7.3898,7.6015,7.6004,7.7662,7.9075,7.9761,7.8282,7.6851,7.576,7.5784,7.4345,7.1004,7.0184,7.0007,7.0541,7.0601,7.1349,7.2814,7.1894,7.183,7.2694,7.0922,7.011,7.0159,6.9308,6.8982,6.9023,6.8956,6.9265,6.9835,6.9824,6.9766,6.9878,7.1517,7.2174,7.2308,7.3113,7.3572,7.3906,7.4301,7.5274,7.6453,7.723,7.8129,7.8878,7.885,7.8878,7.8916,7.8916,7.8906,7.8961,7.9025,7.9025,7.9025,7.9025,8.0542,8.2344,8.3668,8.4313,8.4266,8.315,8.1594,8.0288,7.9727,7.9671,7.9685,7.9693,8.1229,8.2073,8.138,8.4253,8.6348,8.6328,8.7798,8.9041,8.9732,8.9817,8.9817,8.9787,8.9803,8.981,8.9817,8.9817,8.9817,8.9817,8.9817,8.9817,8.9785,8.9897,8.994,9.0011,9.0009,8.9957,5.1113,0.0,0.0,0.0,0.0,0.0,6.0303,6.2815,6.5337,6.8429,6.9892,7.0312,6.9309,6.9583,6.9545,6.8221,6.9115,6.9966,6.9969,7.289,7.5047,7.5036,7.7503,7.924,7.9173,7.8117,7.6845,0.0,7.5932,7.4946,7.205,7.1456,7.0725,6.9655,6.9667,7.0163,7.1256,7.0069,7.0014,7.1141,6.9825,6.9231,6.9217,6.9086,6.9086,6.9208,6.9086,6.9111,6.9109,6.9111,6.8997,6.9046,7.0258,7.0759,7.0859,7.1421,7.2117,7.2792,7.2981,7.4018,7.547,7.6411,7.7457,7.8388,7.8352,7.8652,7.9028,7.904,7.904,7.9065,7.9153,7.9215,7.9215,7.9215,8.1106,8.295,8.3313,8.4476,8.4781,8.2518,8.0748,7.9647,7.9747,7.9761,7.975,7.9773,8.0887,8.174,8.1707,8.4255,8.6228,8.6726,8.8202,8.9373,8.9829,8.9839,8.9843,8.9881,8.9851,8.9854,8.9857,8.9857,8.9857,8.9854,8.9851,8.9854,8.9857,8.9935,8.9948,8.9948,8.9937,8.9917,0.0,0.0,0.0,5.678,5.8385,6.0423,6.3823,6.7147,6.9136,6.7649,6.9969,7.1295,6.8106,6.8869,6.9969,6.9893,6.9933,6.9971,6.9971,7.2892,7.5014,7.5047,7.6565,7.7587,7.7457,7.7507,7.7499,7.7293,7.8794,7.8983,7.723,7.5562,7.3175,6.9868,6.9789,6.973,6.9663,6.9609,6.9609,6.9647,6.9332,6.9268,6.9352,6.9133,6.9085,6.9202,6.9208,6.9262,6.939,6.9247,6.9187,6.9193,6.9252,6.9352,6.9656,7.1277,7.0899,7.0238,7.5117,7.4734,7.2619,7.5889,7.698,7.7018,7.6893,7.7965,7.9288,7.9294,7.9294,7.9284,7.9322,7.9381,7.9497,7.9497,7.9573,8.0042,8.1583,8.2157,8.2323,8.2248,8.0964,7.9872,7.988,7.988,7.9905,7.9875,7.9916,7.9955,7.9987,8.1472,8.3182,8.4851,8.6523,8.8229,8.9861,8.9892,8.9854,8.9975,9.0013,9.0015,9.0016,9.0016,9.0016,9.0015,9.0015,9.0011,9.0006,8.9848,8.9808,8.9827,8.9827,8.9817,5.2634,5.5258,5.8304,5.8873,6.1889,6.5326,6.7585,7.0729,7.3305,7.3877,7.4885,7.4985,7.2769,7.1051,7.0692,7.2855,7.2342,7.1627,7.1545,7.3569,7.5017,7.5018,7.6539,7.7943,7.8928,7.9078,7.8612,7.7466,7.8932,0.0,7.5818,7.5228,7.39,7.1517,7.0473,6.9859,6.9724,6.9743,6.9677,6.9596,6.943,6.9411,6.9505,6.9252,6.9193,6.9334,6.9231,6.9314,6.9503,6.9374,6.9355,6.9336,6.9448,6.95,6.9603,7.0154,7.0071,6.9903,7.1601,7.2208,7.2376,7.3512,7.4587,7.5651,7.6699,7.7455,7.8097,7.9158,7.944,7.9457,7.9457,7.9457,7.9512,7.9512,8.0364,8.1346,8.1858,8.1223,8.0585,8.066,8.0228,7.9875,7.9905,7.9877,7.9879,7.9878,7.9911,7.9902,7.9895,8.1383,8.3056,8.4761,8.6478,8.8153,8.9861,8.8948,8.8263,8.8291,8.8321,8.8273,8.8185,8.9279,8.9854,8.9854,8.9854,8.9848,8.9871,8.9808,8.9789,8.9817,8.9822,8.9799,5.4628,5.7428,6.0307,6.2056,6.4911,6.7841,7.016,7.2845,7.5164,7.6232,7.6435,7.6117,7.5044,7.3634,7.2931,7.3788,7.3583,7.3299,7.3217,7.4757,7.5875,7.592,7.7367,7.8586,7.9005,7.9576,7.9195,7.7545,7.8962,7.8694,7.5885,7.5268,7.4205,7.2427,7.0827,6.9954,6.9879,6.982,6.9735,6.9665,6.9573,6.9565,6.9634,6.9445,6.939,6.9442,6.9445,6.9496,6.9625,6.9573,6.952,6.955,6.9615,6.9692,6.974,6.9717,6.9791,6.9935,7.0535,7.1061,7.158,7.2193,7.3068,7.4091,7.5091,7.5848,7.6669,7.8271,7.8725,7.8852,7.942,7.9584,7.9635,7.9635,8.0468,8.1263,8.1273,8.047,7.9804,7.9864,7.9905,7.9875,7.9878,7.9875,7.9908,7.989,7.9875,7.9901,7.9901,8.188,8.3739,8.4839,8.6971,8.8495,8.8994,8.8033,8.7147,8.6525,8.7078,8.7363,8.7294,8.8924,8.9807,8.9817,8.9789,8.9817,8.9785,8.9785,8.9785,8.9785,8.9824,8.9797,5.8542,6.0061,6.139,6.6098,6.7388,6.8372,7.157,7.369,7.4936,7.485,7.4966,7.5042,7.4858,7.6003,7.5949,7.2948,7.3791,7.4841,7.482,7.6283,7.737,7.7393,7.8801,7.9146,7.7587,7.8919,7.9263,7.7673,7.9002,7.9195,7.7564,7.5931,7.4296,7.2663,7.0917,6.9968,6.9962,6.9857,6.9765,6.9776,6.9793,6.9789,6.9773,6.9629,6.9604,6.9617,6.9752,6.9811,6.9811,6.9811,6.9783,6.9811,6.9799,6.9852,6.9986,6.998,6.998,7.0204,7.1825,7.1333,7.0266,7.1828,7.2356,7.2383,7.2345,7.3431,7.5093,7.687,7.7401,7.7723,7.9315,7.9788,7.9887,7.9887,7.9887,7.9901,7.9908,7.9879,7.9879,7.9877,7.9908,7.9902,7.989,7.988,7.9901,7.988,7.9893,7.9875,7.9875,8.268,8.4727,8.4917,8.7694,8.8983,8.7542,8.7239,8.6471,8.4846,8.6281,8.7143,8.7146,8.8851,8.9799,8.9797,8.9799,8.9799,8.9797,8.9797,8.9797,8.9797,8.9797,8.9797,5.8811,6.2576,6.5683,6.7058,6.9221,7.1266,7.2104,7.4607,7.6359,7.5093,7.6851,7.7818,7.5297,7.3147,7.2228,7.3779,7.4496,7.4794,7.4688,7.6174,7.6813,7.5658,7.6997,7.7365,7.5695,7.8187,7.926,7.7669,7.9035,7.9683,7.9271,7.6575,7.4792,7.4261,7.1485,6.9962,6.9962,6.9854,6.9781,6.9773,6.9771,6.9783,6.9783,6.9726,6.9791,6.989,6.9938,6.9928,6.9904,6.9904,6.9911,6.9933,6.9905,6.9954,6.9962,6.997,6.997,7.0044,7.0464,7.035,7.0042,7.0499,7.061,7.0871,7.2076,7.2755,7.3704,7.6698,7.7495,7.7879,7.9435,7.9857,7.9895,7.9895,7.9895,7.9899,7.9905,7.988,7.9908,7.9899,7.989,7.9875,7.9894,7.9887,7.988,7.9893,7.9913,7.9844,7.9747,8.0504,8.2008,8.452,8.553,8.6869,8.899,8.6831,8.5227,8.4785,8.5163,8.5377,8.5401,8.8217,8.9821,8.9797,8.9821,8.9821,8.9797,8.9807,8.9754,8.9678,8.9653,8.9601,5.8805,6.3437,6.747,6.8361,7.0428,7.2331,7.2322,7.488,7.6802,7.5165,7.634,7.6851,7.4205,7.2727,7.2277,7.3373,7.4167,7.4621,7.4577,7.543,7.5735,7.4864,7.5638,7.5903,7.4926,7.7232,7.8427,7.7522,7.8281,7.8438,7.7731,7.5222,7.3514,7.2721,7.0871,6.9569,6.8871,6.9455,6.944,6.8754,6.9512,6.9849,6.9851,6.9867,6.9916,6.997,6.9969,6.9965,6.9995,6.9995,6.996,6.9965,6.9968,6.997,6.9971,6.9968,6.9968,6.997,6.9966,6.9969,6.9971,6.997,7.0502,7.1261,7.2209,7.2513,7.3196,7.6613,7.7032,7.6994,7.9272,7.9879,7.9879,7.9879,7.9879,7.9879,7.9879,7.9911,7.989,7.9875,7.9887,7.9864,7.9799,7.9827,7.9806,7.9811,7.9748,7.9685,7.962,8.0263,8.1724,8.4395,8.5334,8.6272,8.7483,8.5855,8.41,8.2617,8.3956,8.4682,8.4593,8.7875,8.967,8.9615,8.967,8.9723,8.9716,8.9723,8.9686,8.9594,8.9619,8.9583,5.9004,6.3541,6.7651,6.948,7.1119,7.2215,7.2008,7.4499,7.6389,7.4814,7.4485,7.3955,7.2239,7.306,7.3514,7.2014,7.3082,7.4103,7.4063,7.4362,7.4486,7.4308,7.4574,7.4636,7.4178,7.6082,7.7268,7.7022,7.7212,7.669,7.5237,7.3325,7.1657,7.03,6.9944,6.9101,6.7752,6.9101,6.9082,6.7765,6.9233,6.996,6.9995,6.9966,6.9965,6.9954,6.9966,6.9969,6.997,6.997,6.997,6.997,6.9966,6.9965,6.9965,6.9995,6.996,6.9965,6.9995,6.9962,6.9966,6.996,7.0987,7.2204,7.2394,7.2318,7.2888,7.6266,7.5996,7.5385,7.8422,7.9219,7.9257,7.9488,7.9557,7.9625,7.9804,7.9869,7.9887,7.9864,7.9865,7.9822,7.9711,7.9685,7.9695,7.9689,7.9582,7.9512,7.9495,8.078,8.2329,8.4029,8.5501,8.5896,8.48,8.4497,8.3119,8.0175,8.2741,8.4369,8.4383,8.7505,8.9318,8.9389,8.9507,8.9581,8.9581,8.9581,8.9468,8.9278,8.9468,8.945,6.0561,6.4196,6.7522,6.9213,7.0852,7.1643,7.0336,7.2669,7.4612,7.2934,7.2565,7.209,7.0389,7.0358,7.0471,6.9936,7.1238,7.2313,7.2216,7.34,7.3855,7.2558,7.3651,7.3455,7.0767,7.4583,7.663,7.5216,7.6403,7.706,7.6795,7.3841,7.2012,7.1761,7.0374,6.9477,6.9233,6.9474,6.9477,6.9237,6.9631,6.9875,6.9993,6.9852,6.9807,6.9821,6.9955,6.9966,6.9976,6.9976,6.9976,6.9976,6.996,6.9993,6.9993,6.998,6.998,6.9993,6.9993,6.9971,6.9988,6.9976,7.017,7.0672,7.1954,7.1456,7.1114,7.4378,7.415,7.3348,7.5213,7.5706,7.6048,7.7466,7.7801,7.8149,7.9455,7.972,7.9747,7.9748,7.9736,7.9723,7.9719,7.9704,7.9651,7.9566,7.9528,7.9495,7.9518,7.9763,8.0555,8.2137,8.2552,8.3193,8.4324,8.3117,8.2099,8.1496,8.2024,8.3008,8.4464,8.6447,8.8068,8.9242,8.9389,8.945,8.945,8.945,8.8751,8.7406,8.8802,8.8646,6.1016,6.3721,6.6067,6.7858,7.0125,7.175,7.1079,7.2792,7.4085,7.2376,7.1329,7.0728,7.08,7.0191,6.9609,6.943,7.0014,7.0501,7.0449,7.1125,7.1335,7.0606,7.1216,7.1126,6.9618,7.3236,7.4969,7.3363,7.4777,7.5339,7.4479,7.212,7.0767,7.0714,6.9943,6.908,6.818,6.9118,6.9165,6.8381,6.9264,6.9729,6.9878,6.98,6.9752,6.9687,6.984,6.9896,6.9867,6.9867,6.9867,6.9867,6.9896,6.9896,6.9887,6.9878,6.9887,6.9896,6.9867,6.989,6.9866,6.998,7.0517,7.151,7.3113,7.2507,7.19,7.5229,7.4349,7.2794,7.4424,7.4841,7.5267,7.6944,7.7305,7.7729,7.9331,7.9709,7.9681,7.9598,7.962,7.9604,7.9591,7.9573,7.9573,7.9405,7.9366,7.9305,7.9316,7.9309,7.9926,8.1582,8.1756,8.2057,8.2847,8.2208,8.1342,8.0476,8.1229,8.2495,8.4296,8.5125,8.6708,8.9184,8.9279,8.9325,8.9325,8.8495,8.7681,8.6904,8.7734,8.7635,6.0886,6.3011,6.4648,6.6436,6.8845,7.0913,7.1402,7.244,7.2916,7.1576,7.0258,6.9769,7.1088,7.0353,6.9487,6.939,6.9252,6.9127,6.9123,6.9085,6.9072,6.9133,6.9142,6.9187,6.9252,7.1943,7.3169,7.1873,7.3064,7.3255,7.1897,7.0334,6.943,6.9336,6.9316,6.8714,6.7358,6.8808,6.888,6.7692,6.8954,6.9625,6.9755,6.9715,6.9649,6.955,6.9692,6.9767,6.9767,6.9767,6.9767,6.9767,6.9767,6.9767,6.9767,6.9767,6.9729,6.974,6.9762,6.9773,6.9793,6.9916,7.0759,7.2085,7.3799,7.3117,7.2397,7.5405,7.4106,7.2099,7.3387,7.3993,7.4662,7.6341,7.6919,7.7571,7.9264,7.9625,7.9591,7.948,7.9461,7.9461,7.9477,7.9439,7.9439,7.9322,7.9173,7.9115,7.9091,7.9051,7.955,8.0891,8.103,8.1019,8.1044,8.1019,8.0455,7.9128,8.033,8.1984,8.4039,8.4088,8.5693,8.9081,8.9133,8.9121,8.9184,8.7602,8.6599,8.6284,8.6636,8.641,6.0206,6.2539,6.4358,6.5833,6.6676,6.7583,6.9261,6.9553,6.9456,6.931,6.924,6.9273,6.9424,6.9427,6.939,6.9247,6.9104,6.8986,6.8891,6.8771,6.8705,6.8827,6.8956,6.8971,6.8848,7.0647,7.1658,7.1419,7.1658,7.1734,7.1558,6.9972,6.9095,6.9247,6.9095,6.901,6.8969,6.9165,6.9156,6.9031,6.9408,6.9571,6.9613,6.9487,6.943,6.941,6.9571,6.9603,6.9603,6.9603,6.9603,6.9603,6.9603,6.9603,6.9603,6.9603,6.9596,6.9601,6.9601,6.968,6.9805,6.9818,6.9906,7.0335,7.2,7.1357,7.0411,7.2265,7.142,7.0058,7.0209,7.1306,7.2777,7.433,7.5896,7.7424,7.8987,7.9338,7.9332,7.9332,7.9332,7.9332,7.9309,7.9338,7.9322,7.9322,7.9202,7.9063,7.8953,7.883,7.8838,7.915,7.9055,7.9046,7.9148,7.9075,7.8971,7.8961,7.9094,8.0621,8.3873,8.3883,8.5429,8.8789,8.8894,8.8923,8.9047,8.7357,8.5741,8.4276,8.5816,8.4897,5.938,6.1022,6.249,6.3211,6.4932,6.6672,6.7459,6.8262,6.8897,6.8885,6.9048,6.9179,6.9179,6.9247,6.9247,6.9109,6.8961,6.8859,6.8705,6.8656,6.8626,6.8714,6.8743,6.8771,6.8696,7.0255,7.0881,6.99,7.0824,7.1029,7.0071,6.9297,6.8923,6.896,6.8923,6.8923,6.8971,6.9036,6.9095,6.9067,6.9273,6.9273,6.9104,6.9127,6.9149,6.9156,6.9236,6.9277,6.9336,6.9336,6.9336,6.9336,6.9336,6.9393,6.9468,6.9468,6.9448,6.95,6.9571,6.9641,6.9656,6.9672,6.9686,6.9951,7.1588,7.0892,6.9894,7.1502,7.0786,6.9559,6.9559,7.0838,7.2234,7.2701,7.4756,7.6799,7.7425,7.8157,7.8718,7.8734,7.8726,7.8747,7.8813,7.8961,7.9103,7.9053,7.9025,7.8925,7.8704,7.8648,7.8622,7.8691,7.8654,7.8617,7.868,7.8654,7.8617,7.868,7.8785,7.9863,8.2106,8.2212,8.3777,8.7,8.731,8.7378,8.7241,8.5721,8.41,8.2363,8.303,8.3113,5.8647,5.9615,6.0647,6.1283,6.3524,6.573,6.6239,6.7231,6.8211,6.8622,6.8934,6.9136,6.9074,6.9098,6.9061,6.8897,6.8806,6.8724,6.8589,6.8573,6.8542,6.8566,6.8529,6.8492,6.8498,6.9601,6.9892,6.8768,6.987,7.0048,6.8948,6.8799,6.8762,6.8743,6.8762,6.8762,6.8743,6.8881,6.8923,6.8961,6.9072,6.8999,6.8687,6.8822,6.8873,6.8873,6.8924,6.8997,6.9067,6.9067,6.9067,6.9067,6.9067,6.9149,6.9268,6.9268,6.9294,6.9354,6.9411,6.9487,6.9468,6.9448,6.9448,6.9694,7.0767,7.0238,6.954,7.0621,7.0133,6.9273,6.9273,7.0594,7.1873,7.1657,7.3696,7.5751,7.619,7.698,7.7712,7.8167,7.8311,7.8375,7.8515,7.871,7.8859,7.8878,7.8793,7.8741,7.8547,7.8487,7.8457,7.8457,7.8494,7.8494,7.8457,7.8422,7.846,7.8457,7.8561,7.9306,8.0949,8.1118,8.2682,8.5861,8.6214,8.6247,8.6039,8.4563,8.2879,8.1108,8.114,8.1514,5.7982,5.8629,5.9083,6.066,6.2529,6.4331,6.5769,6.6188,6.6719,6.8139,6.8722,6.8956,6.8836,6.8836,6.8771,6.8648,6.8611,6.8589,6.8473,6.8415,6.8423,6.8423,6.8312,6.8242,6.8214,6.8382,6.8447,6.8423,6.8548,6.864,6.8603,6.8603,6.8633,6.8619,6.8596,6.8633,6.8648,6.8611,6.8677,6.8836,6.896,6.8789,6.8404,6.8559,6.8611,6.8648,6.8742,6.8822,6.8822,6.8822,6.8822,6.8822,6.8822,6.8885,6.8999,6.8999,6.9072,6.9202,6.9202,6.9209,6.9215,6.9215,6.9171,6.9202,6.9202,6.9142,6.8997,6.9034,6.9034,6.8997,6.8997,7.0285,7.152,7.1392,7.2654,7.4273,7.568,7.5887,7.6304,7.7836,7.8243,7.8385,7.8524,7.8648,7.8704,7.8734,7.8605,7.851,7.852,7.8419,7.835,7.835,7.8319,7.8356,7.835,7.8209,7.8172,7.835,7.8207,7.895,8.0804,8.0986,8.2586,8.5866,8.5903,8.5903,8.5902,8.4224,8.2509,8.0869,8.0877,8.0092,5.6541,5.7531,5.8728,6.0483,6.2233,6.3925,6.5225,6.5732,6.604,6.6591,6.6702,6.7105,6.8312,6.8535,6.8566,6.8633,6.8442,6.8382,6.8419,6.8248,6.818,6.8286,6.8248,6.8248,6.8214,6.8282,6.8279,6.8312,6.8349,6.8312,6.834,6.8345,6.8349,6.8345,6.8349,6.8349,6.8345,6.8373,6.8367,6.8399,6.8473,6.841,6.8316,6.8312,6.834,6.8367,6.843,6.8461,6.8522,6.8522,6.8522,6.8559,6.8619,6.8743,6.8854,6.8854,6.8897,6.8936,6.9023,6.9048,6.9072,6.9156,6.9194,6.917,6.9111,6.9061,6.8997,6.8779,6.8817,6.8817,6.8656,6.8975,6.9384,6.9341,7.0506,7.2007,7.3466,7.4385,7.5508,7.7048,7.7428,7.7632,7.7945,7.8172,7.8316,7.8348,7.8316,7.8282,7.8246,7.8135,7.8059,7.8059,7.8096,7.8058,7.8059,7.8134,7.8172,7.8209,7.7984,7.8282,7.9099,7.9098,8.0028,8.2145,8.2295,8.2294,8.2179,8.1737,8.0622,7.884,7.8951,7.9322,5.6718,5.7486,5.8635,6.0359,6.1535,6.2684,6.4066,6.4198,6.4192,6.4785,6.4451,6.4711,6.7042,6.7937,6.8312,6.8415,6.8316,6.8319,6.8423,6.818,6.8073,6.8145,6.8074,6.8002,6.8002,6.8002,6.8,6.8034,6.8036,6.8071,6.8069,6.8071,6.8073,6.8073,6.8145,6.818,6.818,6.8211,6.814,6.8,6.8038,6.8002,6.8002,6.8002,6.8,6.8034,6.8069,6.8174,6.8242,6.8208,6.8279,6.8345,6.8415,6.8473,6.8626,6.8656,6.8648,6.8696,6.8789,6.8854,6.8827,6.8945,6.8918,6.8836,6.8846,6.8789,6.8701,6.8596,6.8596,6.8573,6.8282,6.8286,6.8353,6.8312,6.9057,7.0287,7.2204,7.3245,7.4377,7.6384,7.6928,7.7158,7.7416,7.7706,7.7943,7.7908,7.7945,7.7982,7.7982,7.7943,7.798,7.798,7.798,7.7904,7.7824,7.7864,7.7943,7.7982,7.7904,7.7943,7.8172,7.8097,7.88,8.0388,8.0505,8.0425,8.0257,8.0385,7.9497,7.7742,7.783,7.8387,5.7895,5.8098,5.8635,6.0197,6.0602,6.1007,6.2416,6.1941,6.1563,6.287,6.207,6.2046,6.4976,6.6741,6.7854,6.7965,6.8214,6.839,6.839,6.818,6.8002,6.8037,6.7779,6.7623,6.7623,6.7628,6.7593,6.763,6.7706,6.7818,6.7818,6.7818,6.7818,6.7818,6.7929,6.8002,6.8002,6.8145,6.8002,6.7623,6.7623,6.7623,6.7623,6.7628,6.7593,6.7632,6.7634,6.7782,6.8002,6.7745,6.7855,6.818,6.8037,6.8106,6.8205,6.834,6.8373,6.841,6.8542,6.851,6.8442,6.8573,6.8447,6.8282,6.851,6.8415,6.8248,6.8377,6.8382,6.8286,6.7929,6.8037,6.8217,6.8328,6.836,6.9141,7.2006,7.2421,7.3044,7.5822,7.664,7.6881,7.6928,7.7239,7.7495,7.7538,7.7623,7.7706,7.7706,7.7824,7.7864,7.7824,7.7864,7.7746,7.7538,7.7495,7.7581,7.7706,7.7824,7.7941,7.7941,7.7904,7.8603,8.0072,8.0067,7.9945,7.9688,7.9821,7.8967,7.7328,7.7328,7.7459,5.6009,5.6924,5.8242,5.9816,6.029,6.0727,6.2156,6.1605,6.0843,6.1114,6.0786,6.0749,6.1556,6.3847,6.6117,6.7481,6.7891,6.8003,6.8002,6.7818,6.7817,6.7892,6.747,6.7302,6.7466,6.7224,6.7102,6.7224,6.7307,6.743,6.7547,6.7662,6.7665,6.7665,6.774,6.774,6.774,6.7779,6.7702,6.7466,6.7583,6.7583,6.7466,6.7507,6.747,6.7434,6.6149,6.6411,6.763,6.6305,6.6525,6.7779,6.7743,6.7819,6.7928,6.8071,6.8036,6.8,6.8248,6.8282,6.8316,6.841,6.841,6.8377,6.834,6.8279,6.8214,6.8143,6.8073,6.7929,6.7744,6.7781,6.8224,6.9438,6.8739,6.8881,7.2889,7.2659,7.2577,7.5515,7.6077,7.6183,7.659,7.6774,7.6881,7.7067,7.7239,7.7239,7.7021,7.7021,7.6974,7.6785,7.6928,7.6974,7.6833,7.6974,7.7195,7.7292,7.7335,7.7459,7.7623,7.7581,7.7643,7.8047,7.796,7.7871,7.7781,7.7827,7.7516,7.6928,7.7021,7.6974,5.5366,5.6386,5.7844,5.8645,5.8903,5.9231,6.0036,5.9814,5.9398,5.9294,5.9223,5.9409,6.0143,6.1608,6.3288,6.5053,6.6124,6.7008,6.7745,6.7742,6.7662,6.7742,6.7266,6.6966,6.7096,6.6796,6.6614,6.6705,6.6832,6.6966,6.7096,6.7139,6.7224,6.7302,6.7344,6.7385,6.7385,6.7181,6.6652,6.5875,6.6768,6.6738,6.5961,6.6811,6.7139,6.7023,6.53,6.5603,6.7156,6.5384,6.58,6.7503,6.7393,6.7473,6.7667,6.7742,6.7743,6.7781,6.7929,6.7855,6.7818,6.7999,6.8036,6.8,6.8034,6.8037,6.7966,6.7965,6.7591,6.7192,6.7151,6.7234,6.7755,6.9353,6.8403,6.8391,7.2904,7.186,7.1225,7.5086,7.5157,7.4924,7.6126,7.6287,7.6338,7.649,7.6676,7.664,7.644,7.649,7.649,7.6389,7.649,7.6541,7.6688,7.6688,7.687,7.714,7.6785,7.6652,7.7021,7.6881,7.6785,7.6737,7.659,7.649,7.644,7.644,7.6426,7.6235,7.6287,7.6271,5.5694,5.6385,5.7477,5.7328,5.7405,5.7516,5.7588,5.7767,5.7839,5.7767,5.7767,5.8135,5.9375,5.9811,6.0471,6.1937,6.3956,6.5904,6.7448,6.755,6.7503,6.7503,6.6885,6.6521,6.6567,6.6283,6.6136,6.6185,6.6331,6.6427,6.6567,6.6614,6.6705,6.6832,6.6885,6.7075,6.7285,6.6976,6.5994,6.4313,6.5917,6.589,6.4533,6.609,6.6705,6.6541,6.4823,6.513,6.6687,6.4877,6.5345,6.7139,6.7009,6.7096,6.7344,6.7224,6.7312,6.7437,6.7437,6.7312,6.7181,6.7397,6.7434,6.7426,6.7628,6.7589,6.7507,6.7552,6.7023,6.6474,6.6427,6.6614,6.7231,6.8735,6.7792,6.7782,7.2215,7.1071,7.0377,7.4604,7.4296,7.3923,7.584,7.5752,7.5447,7.5537,7.5862,7.5988,7.5537,7.5772,7.6024,7.613,7.6077,7.613,7.6454,7.6302,7.6426,7.6846,7.6166,7.5862,7.6235,7.6166,7.606,7.5952,7.5843,7.5768,7.5635,7.5635,7.5543,7.5485,7.5485,7.5428,5.6883,5.6989,5.7206,5.7173,5.729,5.7366,5.729,5.7328,5.7366,5.714,5.7094,5.7198,5.7538,5.8694,5.9712,6.0173,6.2757,6.5227,6.6667,6.6751,6.666,6.666,6.6087,6.5819,6.5987,6.5715,6.5504,6.561,6.5835,6.6037,6.6185,6.6379,6.6521,6.6521,6.6567,6.7196,6.8393,6.8321,6.7507,6.5923,6.6318,6.6318,6.5971,6.6271,6.6379,6.6223,6.4579,6.4854,6.6412,6.4823,6.5203,6.6751,6.6521,6.6567,6.6751,6.6283,6.6283,6.6485,6.6343,6.6438,6.6614,6.6796,6.6885,6.6966,6.7016,6.6929,6.6751,6.6438,6.6427,6.6427,6.6234,6.6331,6.6871,6.8263,6.73,6.707,7.0342,7.1648,7.2715,7.4353,7.4405,7.4787,7.6509,7.4643,7.3042,7.3478,7.4794,7.5097,7.3416,7.4381,7.5122,7.4942,7.5062,7.5181,7.5145,7.5392,7.5564,7.5512,7.5435,7.5435,7.5712,7.5712,7.5712,7.5656,7.5656,7.56,7.5635,7.5635,7.5369,7.4978,7.4978,7.4698,5.6009,5.636,5.6963,5.7045,5.705,5.705,5.705,5.705,5.705,5.6968,5.6963,5.6999,5.7045,5.7704,5.8255,5.8263,6.1058,6.3329,6.3892,6.5437,6.6427,6.6185,6.5835,6.5557,6.545,6.5158,6.5025,6.5081,6.6103,6.6784,6.6946,6.7174,6.7774,6.8651,6.8033,6.7364,6.6804,6.6768,6.6001,6.4533,6.5441,6.5405,6.4633,6.5542,6.5987,6.5865,6.419,6.3854,6.4425,6.3761,6.3904,6.4533,6.541,6.5886,6.5987,6.5819,6.5783,6.5936,6.5732,6.5835,6.6087,6.6234,6.6283,6.6379,6.6427,6.6087,6.568,6.5504,6.5557,6.561,6.5504,6.5557,6.6002,6.7534,6.6587,6.6229,6.9444,6.986,7.0436,7.3465,7.4002,7.4842,7.7501,7.6017,7.4661,7.5044,7.4191,7.3172,7.2184,7.2847,7.3307,7.3156,7.3988,7.4574,7.4734,7.4582,7.4519,7.4476,7.4539,7.4698,7.4989,7.4989,7.4989,7.4989,7.4734,7.4645,7.4582,7.4582,7.4456,7.4199,7.4199,7.4068,5.5573,0.0,5.6844,5.6958,5.6838,5.6718,0.0,5.6796,5.6753,5.688,5.688,5.688,5.6958,5.7009,5.6978,5.6901,5.9643,6.1772,6.1575,6.4172,6.5987,6.5575,6.5415,6.5233,6.4989,6.4738,6.4597,6.4656,6.5979,6.7022,6.7549,6.742,6.8139,6.9838,6.8856,6.7517,6.5688,6.5632,6.4855,6.33,6.4501,6.4541,6.3657,6.4917,6.5291,6.4775,6.3941,6.2949,6.2008,6.2947,6.2964,6.2643,6.4375,6.5122,6.5198,6.5122,6.5142,6.5252,6.5067,6.5122,6.5307,6.5468,6.5575,6.568,6.5783,6.5288,6.468,6.468,6.4738,6.4738,6.468,6.4738,6.5077,6.6354,6.558,6.5287,6.7843,6.8055,6.8853,7.259,7.3776,7.5102,7.8253,7.7026,7.5759,7.5964,7.3505,7.1443,7.1028,7.1092,7.1395,7.1782,7.2737,7.3711,7.4357,7.342,7.3045,7.3633,7.3767,7.3967,7.4269,7.4269,7.4269,7.4269,7.3936,7.3735,7.3669,7.3601,7.3566,7.3532,7.3463,7.3428,0.0,5.6941,5.6937,5.6963,5.6753,5.6589,5.6718,5.6711,0.0,5.6718,5.6711,5.6668,5.6916,5.688,5.6724,5.6616,5.9213,6.128,6.1245,6.3444,6.4876,6.4492,6.4349,6.4288,6.4373,6.4288,6.4228,6.4373,6.4726,6.5639,6.7199,6.6034,6.6098,6.7769,6.7641,6.7269,6.6739,6.6988,6.6131,6.4258,6.4398,6.4516,6.4827,6.4933,6.3974,6.2365,6.4045,6.2729,5.9609,6.2999,6.3522,6.2181,6.365,6.4338,6.4363,6.4045,6.3956,6.4071,6.4045,6.4045,6.4167,6.4373,6.4703,6.4968,6.5025,6.4527,6.4045,6.4045,6.4071,6.4193,6.4045,6.4132,6.4228,6.4245,6.4114,6.4053,6.4323,6.7788,7.1167,7.2232,7.4046,7.6208,7.8645,7.5952,7.3533,7.3533,7.2309,7.0804,6.9371,6.9225,6.975,7.1188,7.1433,7.2163,7.3598,7.162,7.1022,7.3044,7.3114,7.3359,7.3737,7.3737,7.3737,7.3737,7.3669,7.3669,7.3669,7.3393,7.322,7.3149,7.29,7.2684,5.7368,5.7294,5.7219,5.7217,5.7058,5.6932,5.6932,5.76,5.7981,5.7096,5.755,5.7866,5.7018,5.6838,5.7077,5.7571,5.9603,6.135,6.2008,6.3705,6.4911,6.4818,6.4527,6.4228,6.3983,6.3762,6.3699,6.3762,6.4817,6.5838,6.6591,6.6243,6.6233,6.6548,6.5736,6.5091,6.4684,6.4691,6.4379,6.3852,6.3699,6.3762,6.4037,6.401,6.3601,6.3011,6.3845,6.1988,0.0,6.2569,6.2335,5.9748,6.2572,6.3665,6.3727,6.3573,6.3509,6.3573,6.3573,6.3573,6.3636,6.3699,6.3983,6.4202,6.4202,6.3734,6.3251,6.3251,6.3282,6.3282,6.3217,6.3282,6.3346,6.3479,6.3316,6.3251,6.3415,6.6371,6.9576,7.1687,7.4576,7.7151,7.875,7.724,7.5155,7.3105,7.0824,6.8712,6.712,6.6978,6.712,6.7609,6.8473,6.9647,7.1025,7.1217,7.1698,7.2684,7.2757,7.2972,7.3289,7.3114,7.3149,7.3289,7.3078,7.3007,7.3043,7.29,7.2791,7.2719,7.2646,7.2572,5.766,5.7588,5.7516,5.7479,5.7332,5.7212,5.7098,5.7844,5.8224,5.7174,5.7665,5.8053,5.689,5.6711,5.7038,5.8093,5.9602,6.1109,6.2251,6.3605,6.4621,6.4703,6.4314,6.3887,6.3548,6.2903,6.2465,6.2465,6.3686,6.4672,6.5285,6.5602,6.5476,6.4661,6.3962,6.3445,6.3054,6.3089,6.3054,6.3052,6.2922,6.2888,6.3148,6.3117,6.2812,6.2332,6.3135,6.124,5.8014,6.1852,6.1518,5.8826,6.1866,6.3054,6.3054,6.3054,6.3054,6.3054,6.3054,6.3054,6.3054,6.312,6.3285,6.3385,6.3415,6.3054,6.2653,6.2653,6.2653,6.2653,6.2551,6.2551,6.2551,6.2687,6.2619,6.2517,6.2687,6.473,6.7449,7.0721,7.3989,7.6587,7.8093,7.7453,7.5956,7.3381,6.9905,6.7301,6.6444,6.538,6.4935,6.5348,6.6753,6.7807,6.8389,6.9924,7.1242,7.2057,7.2242,7.2464,7.2684,7.2538,7.2538,7.2684,7.2499,7.2351,7.2464,7.2351,7.2276,7.2201,7.2201,7.2201,5.7871,5.7942,5.7905,5.7795,5.7552,5.7328,5.7328,5.7137,5.6937,5.6963,5.6838,5.6753,5.6589,5.6404,5.6627,5.7945,5.9209,6.0536,6.1844,6.2977,6.3768,6.3921,6.3573,6.3285,6.3024,6.1558,6.0606,6.0476,6.0961,6.1803,6.3079,6.3601,6.3316,6.1997,6.2483,6.2653,6.2344,6.2653,6.2483,6.1997,6.1997,6.2034,6.2209,6.2449,6.1431,5.9603,6.1804,6.0518,5.7083,6.0819,6.1396,6.0045,6.17,6.2447,6.2447,6.2447,6.2413,6.2413,6.2413,6.2413,6.2413,6.2551,6.2551,6.2619,6.2687,6.2585,6.2344,6.2344,6.2344,6.2344,6.2101,6.1997,6.196,6.1852,6.1814,6.1814,6.1814,6.2954,6.5191,6.9366,7.1984,7.427,7.6719,7.6329,7.5264,7.4173,6.9814,6.6963,6.7539,6.4766,6.3401,6.4902,6.6506,6.7065,6.6007,6.7501,6.9214,7.1026,7.1399,7.1667,7.1898,7.1898,7.1898,7.1898,7.1898,7.1898,7.1898,7.1898,7.1821,7.1511,7.1511,7.1433,5.8135,5.8261,5.8478,5.8315,5.8066,5.7873,5.766,5.8202,5.8391,5.7215,5.7658,5.7914,5.6663,5.7204,5.8164,5.9332,6.0646,6.1892,6.2977,6.3609,6.3797,6.3415,6.3285,6.3089,6.2721,6.1766,6.1043,6.0757,6.1005,6.1419,6.1896,6.1722,6.1364,6.095,6.1245,6.1352,6.1124,6.1352,6.1352,6.1205,6.1205,6.1205,6.1245,6.1318,6.1012,6.05,6.1441,6.0428,5.8366,6.0905,6.0942,5.9526,6.1281,6.2028,6.2028,6.2028,6.2065,6.2101,6.2101,6.2241,6.2413,6.2413,6.2413,6.2344,6.1852,6.167,6.1597,6.1597,6.1597,6.1597,6.1603,6.1564,6.1525,6.1564,6.1312,6.1165,6.1378,6.2659,6.4889,6.8542,7.1359,7.3429,7.4289,7.5266,7.4537,7.0665,6.9245,6.7771,6.5597,6.4298,6.3344,6.2595,6.5635,6.7623,6.7303,6.8927,7.0175,7.0693,7.1002,7.1275,7.1466,7.1354,7.1354,7.1466,7.1545,7.1545,7.1545,7.1354,7.1195,7.1116,7.0921,7.0841,5.9134,5.8959,5.8926,6.0062,5.97,5.8963,5.8719,5.9152,5.9047,5.7162,5.7376,5.752,5.6365,5.7277,5.8673,5.9839,6.1088,6.2298,6.3297,6.3445,6.3285,6.2889,6.3266,6.3196,6.2342,6.225,6.1611,6.0007,6.0048,6.0131,6.0312,6.0158,6.0035,5.999,6.0301,6.0487,6.0476,6.0673,6.0715,6.064,6.064,6.0563,6.0563,6.0563,6.0563,6.0563,6.0941,6.0073,5.8525,6.0567,6.0407,5.9028,6.0779,6.1491,6.1597,6.1491,6.1564,6.1709,6.1709,6.178,6.1957,6.1957,6.1814,6.1636,6.1157,6.1041,6.1041,6.1041,6.1007,6.1124,6.1165,6.1124,6.0932,6.0791,6.0563,6.0574,6.1197,6.222,6.4072,6.7823,7.0133,7.1701,7.242,7.3342,7.2925,6.9663,6.874,6.7859,6.6047,6.5048,6.4194,6.3143,6.5606,6.7308,6.7326,6.8984,7.0066,7.0183,7.0432,7.063,7.0793,7.0597,7.063,7.0793,7.0793,7.0793,7.0793,7.063,7.063,7.0712,7.0432,7.0316,6.0446,5.9914,5.9477,6.2449,6.1921,6.0544,6.0145,5.9801,5.9077,5.7134,5.6663,5.6471,5.6248,5.7358,5.8699,5.994,6.0928,6.1957,6.3045,6.2788,6.2482,6.2309,6.3378,6.3463,6.1876,6.2718,6.2052,5.8837,5.8484,5.8391,5.8535,5.8797,5.9013,5.9176,5.9483,5.9833,6.0133,6.0399,6.0399,6.0133,6.0133,6.0088,6.0009,6.0133,6.0055,6.0009,6.0399,5.9569,5.8198,6.0005,5.985,5.8755,6.0188,6.0899,6.1115,6.0866,6.0899,6.1082,6.1082,6.119,6.119,6.119,6.0857,6.0553,6.0553,6.0553,6.0553,6.0553,6.0673,6.0683,6.0683,6.0771,6.0595,6.0013,5.9871,6.0242,6.1367,6.1741,6.3104,6.7235,6.847,6.935,7.1028,7.1331,7.1151,7.0565,6.8867,6.7656,6.7902,6.6624,6.57,6.5753,6.6295,6.6768,6.6811,6.8281,6.9244,6.9537,6.9761,6.9846,6.9931,6.9846,6.9846,6.9931,6.9931,6.9931,6.9931,6.9846,7.0015,7.0216,7.0048,6.9846,6.0221,6.0538,6.0913,6.2754,6.274,6.1866,6.0288,5.9563,5.9023,5.8351,5.7989,5.8052,5.9119,6.0221,6.0906,6.0863,6.1774,6.2413,6.2171,6.2101,6.196,6.1525,6.2493,6.2682,6.1223,6.1565,6.1214,5.954,5.8936,5.8364,5.7696,5.7727,5.7954,5.8515,5.8368,5.8535,5.9013,5.9257,5.9419,5.95,5.9419,5.9338,5.9387,5.9338,5.9338,5.929,5.95,5.9418,5.9048,5.9689,5.9703,5.9475,6.0035,6.0211,6.0321,6.0244,6.0289,6.0476,6.0476,6.0629,6.0781,6.0781,6.0211,5.966,5.9819,5.9739,5.966,5.9819,5.9707,5.9707,5.9865,6.0678,6.136,6.1096,6.1628,6.2233,6.2544,6.252,6.3183,6.5649,6.7001,6.8535,7.0633,7.2086,7.2746,7.189,7.1564,7.0499,6.7873,6.7227,6.7326,6.7878,6.8038,6.8145,6.8201,6.864,6.8948,6.8948,6.9036,6.9123,6.9331,6.9123,6.9123,6.9331,6.9417,6.9417,6.9417,6.9123,6.9211,6.9417,6.9309,6.9255,6.1077,6.0635,6.023,6.3222,6.2597,6.1159,6.068,6.0298,5.9766,5.8496,5.8093,5.7997,5.8228,5.9331,6.0517,6.1487,6.2551,6.3218,6.2892,6.2673,6.2111,6.1115,6.2001,6.2142,6.0695,6.1085,6.0852,5.9354,5.865,5.7977,5.7172,5.7881,5.8177,5.8071,5.7977,5.8115,5.8515,5.8599,5.8848,5.9013,5.8848,5.8848,5.9013,5.893,5.893,5.8962,5.9013,5.8579,5.7922,5.9,5.892,5.8293,5.9241,5.9692,5.9819,5.9692,5.9739,5.9977,5.9819,5.9898,5.9977,5.966,5.9257,5.9013,5.9176,5.9013,5.8848,5.9176,5.9095,5.9013,5.9176,6.0204,6.1147,6.0892,6.1539,6.2223,6.2341,6.2787,6.345,6.4548,6.5435,6.6354,6.7645,6.8632,6.9426,7.0127,7.0361,6.9803,6.8356,6.7986,6.7899,6.8017,6.8114,6.8297,6.842,6.8387,6.8445,6.8535,6.8445,6.8445,6.8535,6.8445,6.8445,6.8747,6.8625,6.8625,6.8714,6.8625,6.8625,6.8714,6.869,6.86,6.1709,6.0581,5.9561,6.3631,6.266,6.0812,6.1101,6.1269,6.0739,5.8506,5.8225,5.8199,5.7551,5.8372,5.986,6.2,6.3155,6.3735,6.366,6.3202,6.2364,6.088,6.1657,6.1779,6.0264,6.0841,6.0569,5.881,5.8062,5.7554,5.7125,5.8139,5.8502,5.784,5.7759,5.7891,5.8094,5.8178,5.8348,5.8599,5.8348,5.8474,5.8981,5.8865,5.8939,5.9161,5.8907,5.8094,5.6979,5.8364,5.8014,5.6896,5.8319,5.9095,5.9419,5.9013,5.9095,5.9419,5.9144,5.9062,5.9013,5.8348,5.8295,5.8432,5.8547,5.8348,5.8178,5.8463,5.8547,5.8463,5.8463,5.9478,6.0437,6.0199,6.1069,6.1921,6.1796,6.2917,6.398,6.4108,6.4016,6.4177,6.4744,6.5059,6.5817,6.777,6.841,6.8664,6.8755,6.8329,6.7838,6.7527,6.7621,6.7838,6.8114,6.7931,6.7838,6.8114,6.7838,6.7746,6.7746,6.7746,6.7838,6.8023,6.7714,6.7746,6.8023,6.8023,6.8023,6.8114,6.8114,6.8023,5.9999,6.0864,6.1778,6.3755,6.4663,6.4325,6.1577,6.1498,6.1543,5.9815,6.0188,6.1218,6.2088,6.2006,6.2138,6.2918,6.2993,6.2799,6.248,6.2319,6.1797,6.0329,6.1198,6.1328,5.9869,6.046,6.0211,5.8443,5.7404,5.7039,5.7704,5.704,5.7132,5.8203,5.7493,5.7229,5.7466,5.7727,5.7837,5.803,5.7868,5.8496,5.9834,5.9448,5.9924,6.0955,5.98,5.9055,5.8806,5.819,5.7774,5.7617,5.7967,5.8232,5.8432,5.82,5.8232,5.8432,5.82,5.8232,5.8348,5.7727,5.7466,5.7522,5.7814,5.7696,5.7554,5.7814,5.7727,5.7554,5.7554,5.8583,5.9612,5.9612,6.1453,6.3194,6.2548,6.3557,6.4572,6.4674,6.3518,6.3387,6.5814,6.7175,6.7782,6.7624,6.993,7.0702,6.8035,6.7151,6.7151,6.7746,6.7434,6.734,6.7838,6.7621,6.7527,6.7527,6.734,6.7151,6.7151,6.7151,6.7151,6.7246,6.6961,6.6961,6.7246,6.6961,6.7151,6.7527,6.7527,6.7527,5.8059,5.8694,5.9528,6.1861,6.2031,6.1562,6.1445,6.1691,6.1626,6.0492,6.0662,6.0971,6.0991,6.068,6.0958,6.2462,6.2575,6.2433,6.2271,6.1961,6.1246,5.9822,5.9886,5.9883,5.9403,5.9307,5.881,5.7923,5.8081,5.8094,5.7752,5.8034,5.8224,5.8163,5.704,5.6666,5.7172,5.726,5.7404,5.7578,5.7404,5.7747,5.8515,5.8338,5.8471,5.8848,5.8288,5.7919,5.7709,5.7211,5.7084,5.7084,5.7285,5.7547,5.772,5.7665,5.7782,5.7954,5.7665,5.7491,5.7317,5.6995,5.6995,5.7084,5.7084,5.6995,5.6906,5.7084,5.6906,5.6697,5.6697,5.8297,5.9833,5.9516,6.1694,6.3622,6.3122,6.3639,6.426,6.426,6.3133,6.2472,6.3657,6.4313,6.5147,6.6386,6.7655,6.8004,6.6735,6.6674,6.6866,6.734,6.7151,6.7246,6.7621,6.7151,6.677,6.677,6.6286,6.5992,6.5992,6.5992,6.5992,6.6189,6.609,6.6189,6.6384,6.6286,6.6286,6.6384,6.6481,6.6481,5.5923,5.6688,5.7681,6.0183,6.0346,6.0176,6.1452,6.1944,6.1812,6.0705,6.0748,6.072,5.9857,5.9465,5.9924,6.183,6.201,6.1911,6.1829,6.1431,6.0634,5.9141,5.865,5.8515,5.8599,5.7945,5.7398,5.7136,5.8498,5.8867,5.7779,5.8846,5.9216,5.8614,5.7182,5.6643,5.7099,5.6761,5.6817,5.7084,5.6875,5.7061,5.7641,5.7521,5.7616,5.7681,5.7343,5.7039,5.6735,5.649,5.6277,5.6246,5.6518,5.6756,5.6933,5.7026,5.7203,5.7348,5.6995,5.6638,5.6277,5.6277,5.6427,5.6427,5.6277,5.6186,5.6277,5.6246,5.6155,5.6034,5.6337,5.7947,5.9361,5.9327,6.1295,6.3087,6.2574,6.3086,6.3599,6.3387,6.2545,6.1733,6.1402,6.1686,6.2757,6.4544,6.5589,6.6001,6.5857,6.609,6.6577,6.6961,6.677,6.677,6.7056,6.6384,6.5992,6.5992,6.5396,6.5023,6.5023,6.5023,6.5124,6.5326,6.5225,6.5326,6.5627,6.5496,6.5427,6.5326,6.5496,6.5496,5.3614,5.5895,5.8289,5.9877,6.2076,6.3445,6.1823,6.2186,6.2379,6.0483,6.1058,6.1684,6.0883,6.0551,6.0583,6.1372,6.1263,6.1062,6.0902,6.0666,5.9836,5.8188,5.7743,5.7516,5.746,5.6725,5.6155,5.5851,5.7794,5.8724,5.8316,5.8375,5.907,6.0494,5.8329,5.7216,5.7319,5.6455,5.6095,5.6185,5.6185,5.6918,5.82,5.7981,5.8554,5.9678,5.8402,5.7696,5.7414,5.6147,5.5479,5.5291,5.5542,5.5697,5.5851,5.6034,5.6307,5.6518,5.5911,5.5448,5.5321,5.5542,5.5479,5.5291,5.5321,5.5321,5.5291,5.5572,5.5479,5.5561,5.6922,5.7246,5.7373,5.8355,5.9958,6.0972,6.0094,6.136,6.2465,6.1917,6.1998,6.1695,6.0075,6.1564,6.2725,6.2097,6.5167,6.6989,6.5682,6.5496,6.5894,6.6577,6.5992,6.5726,6.5992,6.5527,6.5225,6.5225,6.4921,6.4716,6.4716,6.4716,6.4716,6.4747,6.4541,6.4541,6.4819,6.4541,6.4541,6.4747,6.4849,6.4849,5.1333,5.3212,5.561,5.8922,6.035,6.1209,6.2186,6.2414,6.2106,6.1321,6.1235,6.1024,6.0345,6.0068,5.9869,5.9685,5.9582,5.9499,5.9277,5.8959,5.8598,5.79,5.7285,5.7079,5.7285,5.6516,5.5747,5.5009,5.6967,5.8272,5.8331,5.8036,5.8758,6.0567,5.8016,5.6691,5.7052,5.6204,5.5727,5.5789,5.5789,5.6154,5.6762,5.6359,5.6441,5.6862,5.616,5.576,5.5473,5.4997,5.4819,5.4724,5.4979,5.5168,5.5138,5.5385,5.5572,5.5634,5.5044,5.4884,5.5009,5.5073,5.4979,5.4914,5.4724,5.5413,5.6164,5.6164,5.597,5.6168,5.7311,5.7505,5.7727,5.8554,5.9947,6.0993,6.0581,6.1123,6.1666,6.1444,6.1444,6.1409,6.0831,6.1315,6.1931,6.2241,6.3143,6.3961,6.4552,6.4593,6.493,6.5596,6.5596,6.5496,6.5427,6.4921,6.4644,6.4644,6.3781,6.3327,6.3327,6.3327,6.3327,6.3327,6.3433,6.3539,6.3645,6.3539,6.3539,6.3645,6.3645,6.3645,5.001,5.2023,5.4505,5.8359,5.987,6.091,6.2413,6.2275,6.1747,6.1525,6.0941,6.0268,5.9563,5.9274,5.8899,5.8348,5.8178,5.8094,5.804,5.772,5.7373,5.7229,5.6577,5.6216,5.6487,5.6305,5.5563,5.4167,5.7036,5.8477,5.7812,5.7894,5.8642,5.9899,5.7272,5.5996,5.6395,5.5509,5.5073,5.5073,5.5168,5.5291,5.5385,5.5133,5.4944,5.4914,5.4724,5.4503,5.4147,5.4244,5.4147,5.405,5.4311,5.4407,5.4473,5.4599,5.4532,5.4244,5.4117,5.4214,5.4311,5.4311,5.4407,5.4377,5.4147,5.5027,5.6137,5.5724,5.6054,5.6701,5.7416,5.7807,5.8341,5.8907,5.9939,6.0685,6.0114,6.0315,6.0656,6.0514,6.04,6.04,6.04,6.0429,6.0543,6.1444,6.1415,6.1689,6.2612,6.3176,6.3869,6.4449,6.4449,6.4242,6.396,6.3539,6.3327,6.3463,6.2682,6.2247,6.2247,6.2247,6.2247,6.2247,6.2436,6.2544,6.2682,6.2682,6.2682,6.2682,6.2682,6.2682,4.9626,5.2423,5.5172,5.8223,6.0944,6.2783,6.2381,6.1751,6.1205,6.0748,6.0178,5.9563,5.8816,5.8232,5.7774,5.7373,5.711,5.7053,5.7291,5.6817,5.6427,5.6216,5.5542,5.5009,5.4789,5.5767,5.5606,5.3337,5.7558,5.914,5.6647,5.7679,5.8338,5.8395,5.6334,5.514,5.514,5.4369,5.402,5.402,5.4244,5.437,5.4428,5.4428,5.4428,5.4458,5.4428,5.4108,5.3688,5.3952,5.3757,5.3293,5.3531,5.3601,5.3601,5.3601,5.3136,5.249,5.3065,5.3264,5.3264,5.3264,5.3433,5.3601,5.3334,5.413,5.4954,5.4234,5.552,5.7017,5.72,5.802,5.885,5.9312,5.9651,5.9563,5.865,5.8977,5.9302,5.8949,5.8804,5.8804,5.8804,5.8622,5.865,5.9302,6.0057,6.0371,5.9798,6.1245,6.2563,6.3236,6.2514,6.1858,6.1696,6.1332,6.1332,6.1585,6.1585,6.1585,6.1585,6.1585,6.1585,6.1585,6.1585,6.1807,6.2137,6.2167,6.2167,6.2137,6.2167,6.2196,4.9323,4.9652,5.0666,5.5272,5.6081,5.6471,5.9469,5.9676,5.9422,6.0027,5.9515,5.8733,5.7891,5.746,5.711,5.6546,5.6577,5.6607,5.6487,5.6216,5.5973,5.5789,5.4979,5.3991,5.302,5.4005,5.3978,5.2389,5.4404,5.5397,5.4688,5.4786,5.5516,5.6831,5.4893,5.431,5.4934,5.351,5.295,5.3433,5.3276,5.3739,5.4867,5.4867,5.5156,5.5787,5.4509,5.4491,5.5147,5.332,5.3222,5.4097,5.2848,5.2607,5.2764,5.1998,5.1794,5.1868,5.223,5.2332,5.2376,5.2836,5.2836,5.2865,5.2936,5.4429,5.5893,5.4836,5.5538,5.659,5.6267,5.6386,5.6734,5.7354,5.7955,5.8448,5.809,5.8118,5.8025,5.7905,5.7905,5.7905,5.7905,5.7784,5.7905,5.8025,5.7339,5.7191,5.809,5.9334,6.057,6.1718,6.1968,6.1858,6.1303,6.1303,6.1303,6.1332,6.0912,6.0743,6.0743,6.0743,6.0743,6.0743,6.0743,6.0366,5.9552,6.0702,6.0673,5.9552,6.0702,6.1279,4.746,4.7857,4.9187,5.3489,5.3562,5.352,5.7113,5.6941,5.6281,5.7337,5.7394,5.7043,5.6359,5.6386,5.6306,5.5942,5.5973,5.5911,5.5759,5.5481,5.5108,5.473,5.3542,5.255,5.2016,5.2861,5.277,5.154,5.3183,5.3939,5.3435,5.3328,5.3771,5.4876,5.3323,5.2785,5.3307,5.2411,5.2145,5.2506,5.2348,5.2819,5.3765,5.4309,5.4757,5.5227,5.4305,5.4284,5.4763,5.2788,5.2496,5.3193,5.2121,5.1896,5.1924,5.0965,5.086,5.1249,5.1409,5.1588,5.1765,5.21,5.223,5.223,5.2304,5.3666,5.5113,5.4614,5.5482,5.6623,5.615,5.6374,5.6591,5.6405,5.6728,5.7096,5.6702,5.6633,5.6537,5.6687,5.6537,5.6537,5.6906,5.6537,5.6139,5.5614,5.4959,5.5086,5.6263,5.7675,5.8837,5.9595,6.04,6.0628,5.9711,5.997,5.9942,5.9682,5.9739,5.9796,5.968,5.9796,5.9684,5.9286,5.9771,5.9514,5.8563,5.9421,5.968,5.9283,5.968,5.9941,4.4697,4.6192,4.8751,5.1575,5.1754,5.188,0.0,5.3502,5.2324,5.3613,5.4273,5.4607,5.4463,5.503,5.5423,5.5418,5.5291,5.5103,5.5044,5.4635,5.4059,5.3189,5.1885,5.1118,5.1222,5.1932,5.1804,5.076,5.2874,5.373,5.2435,5.2596,5.2812,5.2704,5.1651,5.1097,5.1097,5.1249,5.1429,5.1429,5.1803,5.2046,5.2318,5.3508,5.4182,5.4295,5.4154,5.3907,5.344,5.2224,5.1616,5.1624,5.1381,5.1325,5.1118,5.0227,5.0227,5.0572,5.065,5.0937,5.1249,5.1069,5.1381,5.1635,5.1429,5.2323,5.3328,5.3402,5.4948,5.6362,5.6025,5.6731,5.7149,5.5899,5.5633,5.5614,5.4986,5.4859,5.4885,5.519,5.5012,5.4859,5.5463,5.4859,5.3837,5.2799,5.2905,5.3554,5.4732,5.6183,5.7164,5.7394,5.8595,5.8831,5.7812,5.8173,5.8265,5.7582,5.8329,5.8685,5.8448,5.8574,5.8338,5.75,5.8401,5.8688,5.8252,5.8284,5.8942,6.0057,5.9028,5.8689,0.0,0.0,0.0,0.0,0.0,0.0,0.0,4.9237,4.9498,5.105,5.1129,5.1524,5.3162,5.3493,5.3757,5.4546,5.4628,5.4532,5.4311,5.3826,5.2908,5.1457,5.0622,5.012,4.9961,5.007,5.0124,4.9773,5.0475,5.0799,5.0474,5.0688,5.0794,5.0581,5.0548,5.0544,5.0544,5.0517,5.0755,5.1201,5.1746,5.2819,5.4254,5.5253,5.6219,5.7076,5.6108,5.5054,5.381,5.1342,5.1199,5.232,5.0635,4.9961,4.9961,4.9773,4.9665,4.9854,5.0041,5.0041,4.9961,5.036,5.0439,5.0305,5.0517,5.1394,5.2135,5.1282,5.2629,5.402,5.2194,5.336,5.4658,5.3627,5.383,5.4222,5.3812,5.3554,5.319,5.306,5.3085,5.306,5.319,5.293,5.2562,5.1745,5.1479,5.201,5.3554,5.4706,5.5864,5.6974,5.7998,5.865,5.8293,5.8118,5.797,5.7823,5.8062,5.8062,5.8062,5.7442,5.7152,5.7244,5.6261,5.587,5.6309,5.7077,5.7556,5.7837,5.8482,5.858,0.0,0.0,0.0,0.0,0.0,0.0,0.0,0.0,0.0,0.0,0.0,4.7406,4.8669,0.0,5.1813,5.2371,5.3362,5.3923,5.3659,5.2908,5.1868,5.065,4.9907,4.9504,4.9557,4.9314,4.9096,4.9314,4.9638,4.9719,4.9477,4.9827,4.9827,4.9477,4.9907,5.0147,4.9961,5.0227,5.0439,5.0782,5.061,5.1533,5.3481,5.3524,5.4335,5.592,5.5316,5.427,5.2731,5.1397,5.0909,5.099,4.9309,4.8768,4.8878,4.8768,4.8878,4.9096,4.9043,4.907,4.907,4.9369,4.9342,4.926,4.9477,4.9098,4.8719,4.8583,4.84,4.8269,4.8257,4.9734,5.1062,5.0739,5.1738,5.2537,5.2274,5.201,5.1878,5.1878,5.177,5.177,5.1902,5.1236,5.0564,5.027,5.0294,5.0834,5.2249,5.3933,5.5125,5.519,5.6798,5.7705,5.711,5.6387,5.636,5.7123,5.7245,5.7123,5.7001,5.6728,5.6487,5.6208,5.6208,5.6163,5.6009,5.6508,5.6976,5.7532,5.6428,5.5685,0.0,0.0,0.0,0.0,0.0,0.0,0.0,0.0,0.0,0.0,0.0,0.0,0.0,0.0,0.0,5.0036,5.1681,5.2917,5.3036,5.197,5.0909,5.0199,4.9342,4.8851,4.9232,4.8742,4.8496,4.8715,4.9096,4.9205,4.8934,4.9314,4.9314,4.8934,4.9611,4.9719,4.9341,4.9934,5.0147,5.0147,4.9718,0.0,5.1915,5.1463,5.2221,5.3851,5.3633,5.284,5.1556,5.145,5.0582,4.9179,4.7709,4.7006,4.6995,4.6212,4.6613,4.7552,4.7331,4.7845,4.8386,4.8386,4.8386,4.8275,4.8138,4.6885,0.0,4.6162,4.498,4.3825,4.5617,4.7024,4.8141,4.8584,4.976,5.0568,5.0381,5.0429,5.0429,5.0381,5.0405,5.0453,5.0699,4.9339,4.8235,4.8651,4.9088,4.9774,5.0675,5.3243,5.4454,5.3602,5.5799,5.6962,5.5925,5.4576,5.4294,5.5545,5.5545,5.5218,5.4883,5.4653,5.4126,5.3306,5.4815,5.5423,5.479,5.531,5.6022,5.6962,5.3584,5.2057,0.0,0.0,0.0,0.0,0.0,0.0,0.0,0.0,0.0,0.0,0.0,0.0,0.0,0.0,0.0,0.0,4.954,5.0644,5.1987,5.07,4.9611,4.9504,4.8579,4.7969,4.7969,4.7969,4.7969,4.7969,4.8191,4.8412,4.8606,4.8934,0.0,0.0,0.0,4.9314,4.8715,4.9314,4.9665,4.9665,5.0604,5.1168,5.1468,5.2664,5.3204,5.3143,5.2344,5.1718,5.1333,5.0175,4.9312,4.8391,4.5515,4.3713,4.256,4.0056,4.1247,4.415,4.4038,0.0,0.0,4.7969,4.772,4.7332,4.6743,4.6188,4.5656,4.5179,4.5676,4.6148,4.5834,4.6725,4.796,4.8288,4.8464,4.8348,4.7983,4.8328,4.8466,4.7211,4.7839,4.8466,4.8581,4.7234,4.6178,4.6714,4.7745,4.8581,4.8904,5.1703,5.3601,5.3422,5.6031,0.0,5.6548,5.4169,5.2552,5.25,5.19,5.1219,5.0651,4.8496,4.6896,4.6246,4.8047,4.9101,4.9579,5.2161,5.3521,5.3575,4.9985,4.9724,0.0,0.0,0.0,0.0,0.0,0.0,0.0,0.0,0.0,0.0,0.0,0.0,0.0,0.0,0.0,0.0,4.755,4.8872,4.9952,4.9868,4.9423,4.8772,4.8138,4.7694,4.747,4.747,4.7582,4.7857,4.7969,4.808,4.8165,4.8275,4.8165,4.7805,4.8412,4.8632,4.8412,4.8961,4.9314,4.9584,4.9492,5.0187,5.1302,5.0699,5.0992,5.1947,5.0876,5.0145,4.9651,4.9173,4.8632,4.7891,0.0,0.0,0.0,0.0,4.2433,4.3801,4.4195,4.5113,4.6135,4.6135,4.5995,4.574,4.5112,4.3976,4.2705,4.2097,4.125,4.0656,4.0781,4.2353,4.4182,4.514,4.6679,4.7754,4.7609,4.7979,4.8141,4.7582,4.7115,0.0,4.6878,4.6408,4.6442,4.708,4.7563,4.8435,4.9793,5.1877,5.3244,5.3801,5.5848,5.678,5.5773,5.414,0.0,0.0,0.0,5.1082,4.9939,4.989,0.0,0.0,0.0,4.7098,4.6842,4.8092,0.0,0.0,4.3165,4.2913,0.0,0.0,0.0,0.0,0.0,0.0,0.0,0.0,0.0,0.0,0.0,0.0,0.0,0.0,0.0,0.0,4.5213,4.6814,4.7442,4.811,4.8295,4.7584,4.7401,4.7246,4.702,4.702,4.7159,4.741,4.741,4.741,4.7522,4.7634,4.7608,4.747,4.7831,4.8054,4.8054,4.8496,4.8851,4.9205,4.8412,4.8969,5.0432,4.889,4.8969,5.032,4.9579,4.8851,4.8249,4.8249,4.7694,4.6743,4.4586,4.235,4.049,4.1278,4.1278,4.1024,4.2871,4.3983,4.4576,4.4576,4.46,4.4365,4.3701,4.2375,4.0752,4.0132,3.8686,3.75,3.8061,3.9804,4.1789,4.2945,4.5139,4.6847,4.6833,4.7182,4.7464,4.716,4.596,4.5201,4.5574,4.5574,4.6065,4.702,4.7236,4.7854,5.0076,5.1485,5.2677,5.3448,5.4987,5.5552,5.4631,5.2963,5.1394,4.9913,5.036,5.0024,4.8523,5.0028,4.9595,4.6949,4.6077,4.4963,0.0,0.0,0.0,0.0,0.0,0.0,0.0,0.0,0.0,0.0,0.0,0.0,0.0,0.0,0.0,0.0,0.0,0.0,0.0,0.0,0.0,0.0,0.0,0.0,4.4865,4.4941,4.5143,4.5681,4.621,4.6439,4.6439,4.6439,4.6439,4.6439,4.6439,4.6668,4.687,4.7159,4.747,4.772,4.7857,4.7857,4.7857,4.7857,4.7969,4.8275,4.7969,4.7969,4.8354,4.8191,4.808,4.7909,4.8191,4.7917,4.7332,4.7332,4.6403,4.4664,4.0967,3.8241,3.6288,3.5953,3.4576,3.35,3.8374,4.1766,4.3938,4.3938,4.3749,4.3438,4.2791,4.2162,4.1407,4.0814,4.0339,4.009,4.0112,4.1106,4.22,4.3322,4.4314,4.5029,4.4807,4.5431,4.5574,4.4421,4.3985,4.3839,4.4566,4.413,4.4004,4.5388,4.5765,0.0,4.843,5.0197,5.1531,5.2141,5.328,5.368,5.2843,4.9801,4.7972,4.7925,4.7573,4.6646,4.4977,4.5952,4.4872,4.1509,4.2353,4.1579,3.8912,0.0,0.0,0.0,0.0,0.0,0.0,0.0,0.0,0.0,0.0,0.0,0.0,0.0,0.0,0.0,0.0,0.0,0.0,0.0,0.0,0.0,0.0,0.0,0.0,4.2651,4.3521,4.3115,4.3514,4.3788,4.3848,4.3763,4.3898,4.42,4.4116,4.4307,4.5145,4.5282,4.5834,4.6845,4.687,4.7071,4.747,4.747,4.7608,4.7969,4.7857,4.7857,4.7969,4.7969,4.7857,4.7857,4.7969,4.7358,4.6288,4.6035,4.3795,4.0377,3.9133,3.7413,3.5771,3.7137,3.6805,3.617,3.9331,4.1281,4.229,4.1882,4.2137,4.2336,4.107,4.0836,4.0858,4.053,4.0177,3.9952,4.0042,4.0425,4.0915,4.1582,4.263,4.3535,4.3692,4.4693,4.5431,4.5287,4.4058,4.3254,4.4171,4.3839,4.3857,4.4938,4.556,4.6623,4.8659,4.9826,5.0902,5.1943,5.2522,5.2398,5.1778,5.0346,4.8696,4.6926,4.7523,4.7068,4.537,4.6204,4.5483,4.2962,4.2272,4.0588,3.7598,0.0,0.0,0.0,0.0,0.0,0.0,0.0,0.0,0.0,0.0,0.0,0.0,0.0,0.0,0.0,0.0,0.0,0.0,0.0,0.0,0.0,0.0,0.0,0.0,0.0,0.0,4.1334,4.1539,0.0,4.1702,4.0934,4.099,4.1914,4.1858,4.2328,4.3529,4.3798,4.4257,4.512,4.5522,4.5811,4.6184,4.6591,4.6933,4.7297,4.7184,4.7184,4.7297,4.7184,4.7071,4.6958,4.6958,4.6112,4.4637,4.365,4.1321,3.8252,3.7575,3.6479,3.5412,3.6983,3.7048,3.6767,3.8806,3.9816,4.0184,3.9931,4.0157,4.0423,3.9438,3.8445,3.7948,3.9067,3.8384,3.7719,3.9343,4.0142,4.0488,4.0989,4.2017,4.3087,4.3229,4.3868,4.445,4.4791,4.3519,4.2244,4.1756,4.1508,4.14,4.1686,4.2935,4.4493,4.6971,4.8523,4.9967,5.1058,5.1283,5.101,5.0723,5.0166,4.9013,4.6919,4.774,4.7672,4.6242,4.6403,4.5527,4.3142,4.209,3.9871,0.0,0.0,0.0,0.0,0.0,0.0,0.0,0.0,0.0,0.0,0.0,0.0,0.0,0.0,0.0,0.0,0.0,0.0,0.0,0.0,0.0,0.0,0.0,0.0,0.0,0.0,0.0,4.023,4.0071,0.0,0.0,0.0,0.0,3.954,3.9741,4.0283,4.176,4.2524,4.2812,4.2699,4.3638,4.4211,4.4211,4.5307,4.597,4.6364,4.602,4.6045,4.6439,4.607,4.5699,4.5492,4.5418,4.4317,4.2338,4.0273,3.8888,3.8074,3.5931,3.4871,3.4626,3.4914,3.4866,3.5015,3.6824,3.7563,3.7722,3.809,3.7886,3.766,3.78,3.5327,0.0,0.0,3.5251,3.397,3.8105,3.9897,4.0687,4.1328,4.235,4.3277,4.2879,4.2782,4.2694,4.2821,4.2083,4.0458,3.7736,0.0,3.6981,3.5865,3.7754,4.0563,4.3547,4.6367,4.8475,4.9311,4.9445,4.9388,4.9323,4.9192,4.8706,4.7827,4.7966,4.7812,4.6922,4.6102,4.446,4.1845,4.129,0.0,0.0,0.0,0.0,0.0,0.0,0.0,0.0,0.0,0.0,0.0,0.0,0.0,0.0,0.0,0.0,0.0,0.0,0.0,0.0,0.0,0.0,0.0,0.0,0.0,0.0,3.5253,3.6762,3.8242,3.7464,3.6762,0.0,0.0,0.0,0.0,0.0,0.0,3.7445,3.844,3.9547,4.0875,4.204,4.2824,4.3198,4.3964,4.4622,4.4846,4.5327,4.5724,4.6045,4.5724,4.5608,4.5442,4.4376,4.3269,4.2128,3.8862,3.6713,3.5426,3.2242,3.0578,2.9941,2.9856,3.0287,3.1353,3.3972,3.594,3.715,3.6928,3.6422,3.5646,3.4361,0.0,0.0,0.0,0.0,3.2333,3.4426,3.626,3.7898,3.9178,3.9714,4.0193,4.1243,4.149,4.1187,4.0317,3.9238,3.7993,3.6623,3.5562,0.0,3.3007,3.6101,3.9012,4.0375,4.4543,4.7303,4.7062,4.7283,4.7372,4.6982,4.6699,4.6516,4.658,4.604,4.5524,4.5287,4.3439,4.1204,3.8803,0.0,0.0,0.0,0.0,0.0,0.0,0.0,0.0,0.0,0.0,0.0,0.0,0.0,0.0,0.0,0.0,0.0,0.0,0.0,0.0,0.0,0.0,0.0,0.0,0.0,0.0,0.0,3.2343,3.3998,3.5289,3.4124,3.3214,0.0,0.0,0.0,0.0,0.0,0.0,0.0,0.0,0.0,3.7501,3.9225,4.0364,4.0807,4.2252,4.326,4.384,4.4342,4.4883,4.5442,4.4744,4.4317,4.4153,4.2696,4.135,4.0079,3.6343,3.483,3.4237,0.0,0.0,0.0,0.0,2.581,2.6695,2.8848,3.0652,3.1997,3.189,0.0,0.0,0.0,0.0,0.0,0.0,0.0,2.7943,3.1573,3.3841,3.5848,3.7991,3.8638,3.8896,3.9509,3.7972,3.6303,3.6014,3.4363,3.2484,3.0732,2.979,0.0,0.0,0.0,3.581,3.7044,4.2419,4.6127,4.6009,4.628,4.6225,4.6213,4.5822,4.5616,4.5532,4.4942,4.4068,4.3256,4.1571,3.9098,0.0,0.0,0.0,0.0,0.0,0.0,0.0,0.0,0.0,0.0,0.0,0.0,0.0,0.0,0.0,0.0,0.0,0.0,0.0,0.0,0.0,0.0,0.0,0.0,0.0,0.0,0.0,0.0,0.0,3.1059,3.2186,0.0,0.0,0.0,0.0,0.0,0.0,0.0,0.0,0.0,0.0,0.0,0.0,0.0,3.7196,3.7452,3.9629,4.1332,4.2509,4.2654,4.3285,4.4397,4.3269,4.2517,4.2218,4.0131,0.0,3.6751,3.3376,0.0,0.0,0.0,0.0,0.0,0.0,0.0,0.0,0.0,0.0,0.0,0.0,0.0,0.0,0.0,0.0,0.0,0.0,0.0,0.0,0.0,0.0,3.3662,3.6512,3.7578,3.7697,3.6818,3.2964,3.0034,3.0797,2.8691,2.5951,0.0,0.0,0.0,0.0,0.0,0.0,3.3578,4.001,4.4819,4.5348,4.5518,4.5687,4.6005,4.5686,4.5288,4.4771,4.4254,4.2881,4.0615,3.9883,0.0,0.0,0.0,0.0,0.0,0.0,0.0,0.0,0.0,0.0,0.0,0.0,0.0,0.0,0.0,0.0,0.0,0.0,0.0,0.0,0.0,0.0,0.0,0.0,0.0,0.0,0.0,0.0,0.0,0.0,0.0,0.0,0.0,0.0,0.0,0.0,0.0,0.0,0.0,0.0,0.0,0.0,0.0,0.0,0.0,0.0,0.0,0.0,0.0,0.0,3.8782,4.0293,4.2316,4.1571,4.1167,4.0794,3.5107,3.287,3.3165,3.0643,0.0,0.0,0.0,0.0,0.0,0.0,0.0,0.0,0.0,0.0,0.0,0.0,0.0,0.0,0.0,0.0,0.0,0.0,0.0,0.0,0.0,0.0,2.9857,3.2042,3.3371,3.3149,2.9241,0.0,0.0,0.0,0.0,0.0,0.0,0.0,0.0,0.0,0.0,0.0,3.0379,3.7648,4.2934,4.3469,4.4155,4.4668,4.4668,4.4545,4.4193,4.3521,4.2314,4.0318,0.0,0.0,0.0,0.0,0.0,0.0,0.0,0.0,0.0,0.0,0.0,0.0,0.0,0.0,0.0,0.0,0.0,0.0,0.0,0.0,0.0,0.0,0.0,0.0,0.0,0.0,0.0,0.0,0.0,0.0,0.0,0.0,0.0,0.0,0.0,0.0,0.0,0.0,0.0,0.0,0.0,0.0,0.0,0.0,0.0,0.0,0.0,0.0,0.0,0.0,0.0,0.0,0.0,0.0,0.0,0.0,0.0,0.0,3.0478,2.8547,0.0,0.0,0.0,0.0,0.0,0.0,0.0,0.0,0.0,0.0,0.0,0.0,0.0,0.0,0.0,0.0,0.0,0.0,0.0,0.0,0.0,0.0,0.0,0.0,0.0,0.0,0.0,0.0,0.0,0.0,0.0,0.0,0.0,0.0,0.0,0.0,0.0,0.0,0.0,0.0,2.8469,3.5572,4.0919,4.2051,4.2607,4.2952,4.3125,4.2648,4.2088,4.1697,3.9105,0.0,0.0,0.0,0.0,0.0,0.0,0.0,0.0,0.0,0.0,0.0,0.0,0.0,0.0,0.0,0.0,0.0,0.0,0.0,0.0,0.0,0.0,0.0,0.0,0.0,0.0,0.0,0.0,0.0,0.0,0.0,0.0,0.0,0.0,0.0,0.0,0.0,0.0,0.0,0.0,0.0,0.0,0.0,0.0,0.0,0.0,0.0,0.0,0.0,0.0,0.0,0.0,0.0,0.0,0.0,0.0,0.0,0.0,0.0,2.5321,2.4138,0.0,0.0,0.0,0.0,0.0,0.0,0.0,0.0,0.0,0.0,0.0,0.0,0.0,0.0,0.0,0.0,0.0,0.0,0.0,0.0,0.0,0.0,0.0,0.0,0.0,0.0,0.0,0.0,0.0,0.0,0.0,0.0,0.0,0.0,0.0,0.0,0.0,0.0,0.0,0.0,2.7117,3.403,3.9471,4.099,4.1234,4.1391,4.1895,4.0923,4.0053,3.9211,3.5706,0.0,0.0,0.0,0.0,0.0,0.0,0.0,0.0,0.0,0.0,0.0,0.0,0.0,0.0,0.0,0.0,0.0,0.0,0.0,0.0,0.0,0.0,0.0,0.0,0.0,0.0,0.0,0.0,0.0,0.0,0.0,0.0,0.0,0.0,0.0,0.0,0.0,0.0,0.0,0.0,0.0,0.0,0.0,0.0,0.0,0.0,0.0,0.0,0.0,0.0,0.0,0.0,0.0,0.0,0.0,0.0,0.0,0.0,0.0,0.0,0.0,0.0,0.0,0.0,0.0,0.0,0.0,0.0,0.0,0.0,0.0,0.0,0.0,0.0,0.0,0.0,0.0,0.0,0.0,0.0,0.0,0.0,0.0,0.0,0.0,0.0,0.0,0.0,0.0,0.0,0.0,0.0,0.0,0.0,0.0,0.0,0.0,0.0,0.0,0.0,0.0,2.5613,3.3285,3.9025,3.962,4.0148,4.0499,4.099,4.057,3.886,3.5317,0.0,0.0,0.0,0.0,0.0,0.0,0.0,0.0,0.0,0.0,0.0,0.0,0.0,0.0,0.0,0.0,0.0,0.0,0.0,0.0,0.0,0.0,0.0,0.0,0.0,0.0,0.0,0.0,0.0,0.0,0.0,0.0,0.0,0.0,0.0,0.0,0.0,0.0,0.0,0.0,0.0,0.0,0.0,0.0,0.0,0.0,0.0,0.0,0.0,0.0,0.0,0.0,0.0,0.0,0.0,0.0,0.0,0.0,0.0,0.0,0.0,0.0,0.0,0.0,0.0,0.0,0.0,0.0,0.0,0.0,0.0,0.0,0.0,0.0,0.0,0.0,0.0,0.0,0.0,0.0,0.0,0.0,0.0,0.0,0.0,0.0,0.0,0.0,0.0,0.0,0.0,0.0,0.0,0.0,0.0,0.0,0.0,0.0,0.0,0.0,0.0,0.0,2.4653,3.2094,3.7577,3.8543,3.9107,3.9267,3.9234,3.8859,3.6716,3.2649,0.0,0.0,0.0,0.0,0.0,0.0,0.0,0.0,0.0,0.0,0.0,0.0,0.0,0.0,0.0,0.0,0.0,0.0,0.0,0.0,0.0,0.0,0.0,0.0,0.0,0.0,0.0,0.0,0.0,0.0,0.0,0.0,0.0,0.0,0.0,0.0,0.0,0.0,0.0,0.0,0.0,0.0,0.0,0.0,0.0,0.0,0.0,0.0,0.0,0.0,0.0,0.0,0.0,0.0,0.0,0.0,0.0,0.0,0.0,0.0,0.0,0.0,0.0,0.0,0.0,0.0,0.0,0.0,0.0,0.0,0.0,0.0,0.0,0.0,0.0,0.0,0.0,0.0,0.0,0.0,0.0,0.0,0.0,0.0,0.0,0.0,0.0,0.0,0.0,0.0,0.0,0.0,0.0,0.0,0.0,0.0,0.0,0.0,0.0,0.0,0.0,0.0,2.3625,3.0669,3.5911,3.6909,3.7298,3.746,3.746,3.616,3.3689,2.9499,0.0,0.0,0.0,0.0,0.0,0.0,0.0,0.0,0.0,0.0,0.0,0.0,0.0,0.0,0.0,0.0,0.0,0.0,0.0,0.0,0.0,0.0,0.0,0.0,0.0,0.0,0.0,0.0,0.0,0.0,0.0,0.0,0.0,0.0,0.0,0.0,0.0,0.0,0.0,0.0,0.0,0.0,0.0,0.0,0.0,0.0,0.0,0.0,0.0,0.0,0.0,0.0,0.0,0.0,0.0,0.0,0.0,0.0,0.0,0.0,0.0,0.0,0.0,0.0,0.0,0.0,0.0,0.0,0.0,0.0,0.0,0.0,0.0,0.0,0.0,0.0,0.0,0.0,0.0,0.0,0.0,0.0,0.0,0.0,0.0,0.0,0.0,0.0,0.0,0.0,0.0,0.0,0.0,0.0,0.0,0.0,0.0,0.0,0.0,0.0,0.0,0.0,2.2549,2.9065,3.3846,3.439,3.439,3.4752,3.5638,3.296,2.9536,0.0,0.0,0.0,0.0,0.0,0.0,0.0,0.0,0.0,0.0,0.0,0.0,0.0,0.0,0.0,0.0,0.0,0.0,0.0,0.0,0.0,0.0,0.0,0.0,0.0,0.0,0.0,0.0,0.0,0.0,0.0,0.0,0.0,0.0,0.0,0.0,0.0,0.0,0.0,0.0,0.0,0.0,0.0,0.0,0.0,0.0,0.0,0.0,0.0,0.0,0.0,0.0,0.0,0.0,0.0,0.0,0.0,0.0,0.0,0.0,0.0,0.0,0.0,0.0,0.0,0.0,0.0,0.0,0.0,0.0,0.0,0.0,0.0,0.0,0.0,0.0,0.0,0.0,0.0,0.0,0.0,0.0,0.0,0.0,0.0,0.0,0.0,0.0,0.0,0.0,0.0,0.0,0.0,0.0,0.0,0.0,0.0,0.0,0.0,0.0,0.0,0.0,0.0,2.2045,2.832,3.2836,3.344,3.3482,3.3496,3.3314,3.2548,2.9592,2.3697,0.0,0.0,0.0,0.0,0.0,0.0,0.0,0.0,0.0,0.0,0.0,0.0,0.0,0.0,0.0,0.0,0.0,0.0,0.0,0.0,0.0,0.0,0.0,0.0,0.0,0.0,0.0,0.0,0.0,0.0,0.0,0.0,0.0,0.0,0.0,0.0,0.0,0.0,0.0,0.0,0.0,0.0,0.0,0.0,0.0,0.0,0.0,0.0,0.0,0.0,0.0,0.0,0.0,0.0,0.0,0.0,0.0,0.0,0.0,0.0,0.0,0.0,0.0,0.0,0.0,0.0,0.0,0.0,0.0,0.0,0.0,0.0,0.0,0.0,0.0,0.0,0.0,0.0,0.0,0.0,0.0,0.0,0.0,0.0,0.0,0.0,0.0,0.0,0.0,0.0,0.0,0.0,0.0,0.0,0.0,0.0,0.0,0.0,0.0,0.0,0.0,0.0,0.0,2.648,3.0402,3.1758,3.1852,3.1682,3.1879,3.1088,2.819,2.246,0.0,0.0,0.0,0.0,0.0,0.0,0.0,0.0,0.0,0.0,0.0,0.0,0.0,0.0,0.0,0.0,0.0,0.0,0.0,0.0,0.0,0.0,0.0,0.0,0.0,0.0,0.0,0.0,0.0,0.0,0.0,0.0,0.0,0.0,0.0,0.0,0.0,0.0,0.0,0.0,0.0,0.0,0.0,0.0,0.0,0.0,0.0,0.0,0.0,0.0,0.0,0.0,0.0,0.0,0.0,0.0,0.0,0.0,0.0,0.0,0.0,0.0,0.0,0.0,0.0,0.0,0.0,0.0,0.0,0.0,0.0,0.0,0.0,0.0,0.0,0.0,0.0,0.0,0.0,0.0,0.0,0.0,0.0,0.0,0.0,0.0,0.0,0.0,0.0,0.0,0.0,0.0,0.0,0.0,0.0,0.0,0.0,0.0,0.0,0.0,0.0,0.0,0.0,2.3854,2.6965,2.9712,2.9678,2.9876,3.1169,2.8754,2.573,2.2168,1.9395,0.0,0.0,0.0,0.0,0.0,0.0,0.0,0.0,0.0,0.0,0.0,0.0,0.0,0.0,0.0,0.0,0.0,0.0,0.0,0.0,0.0,0.0,0.0,0.0,0.0,0.0,0.0,0.0,0.0,0.0,0.0,0.0,0.0,0.0,0.0,0.0,0.0,0.0,0.0,0.0,0.0,0.0,0.0,0.0,0.0,0.0,0.0,0.0,0.0,0.0,0.0,0.0,0.0,0.0,0.0,0.0,0.0,0.0,0.0,0.0,0.0,0.0,0.0,0.0,0.0,0.0,0.0,0.0,0.0,0.0,0.0,0.0,0.0,0.0,0.0,0.0,0.0,0.0,0.0,0.0,0.0,0.0,0.0,0.0,0.0,0.0,0.0,0.0,0.0,0.0,0.0,0.0,0.0,0.0,0.0,0.0,0.0,0.0,0.0,0.0,0.0,0.0,2.2832,2.5658,2.8579,2.8749,2.9121,2.9876,2.9107,2.7205,2.4023,2.0614,0.0,0.0,0.0,0.0,0.0,0.0,0.0,0.0,0.0,0.0,0.0,0.0,0.0,0.0,0.0,0.0,0.0,0.0,0.0,0.0,0.0,0.0,0.0,0.0,0.0,0.0,0.0,0.0,0.0,0.0,0.0,0.0,0.0,0.0,0.0,0.0,0.0,0.0,0.0,0.0,0.0,0.0,0.0,0.0,0.0,0.0,0.0,0.0,0.0,0.0,0.0,0.0,0.0,0.0,0.0,0.0,0.0,0.0,0.0,0.0,0.0,0.0,0.0,0.0,0.0,0.0,0.0,0.0,0.0,0.0,0.0,0.0,0.0,0.0,0.0,0.0,0.0,0.0,0.0,0.0,0.0,0.0,0.0,0.0,0.0,0.0,0.0,0.0,0.0,0.0,0.0,0.0,0.0,0.0,0.0,0.0,0.0,0.0,0.0,0.0,0.0,0.0,2.0334,2.441,2.8494,2.8551,2.8551,2.9678,2.9095,2.6971,2.2708,1.9454,0.0,0.0,0.0,0.0,0.0,0.0,0.0,0.0,0.0,0.0,0.0,0.0,0.0,0.0,0.0,0.0,0.0,0.0,0.0,0.0,0.0,0.0,0.0,0.0,0.0,0.0,0.0,0.0,0.0,0.0,0.0,0.0,0.0,0.0,0.0,0.0,0.0,0.0,0.0,0.0,0.0,0.0,0.0,0.0,0.0,0.0,0.0,0.0,0.0,0.0,0.0,0.0,0.0,0.0,0.0,0.0,0.0,0.0,0.0,0.0,0.0,0.0,0.0,0.0,0.0,0.0,0.0,0.0,0.0,0.0,0.0,0.0,0.0,0.0,0.0,0.0,0.0,0.0,0.0,0.0,0.0,0.0,0.0,0.0,0.0,0.0,0.0,0.0,0.0,0.0,0.0,0.0,0.0,0.0,0.0,0.0,0.0,0.0,0.0,0.0,0.0,0.0,0.0,2.2711,2.7455,2.7928,2.8502,2.9724,2.8692,2.5912,2.0689,0.0,0.0,0.0,0.0,0.0,0.0,0.0,0.0,0.0,0.0,0.0,0.0,0.0,0.0,0.0,0.0,0.0,0.0,0.0,0.0,0.0,0.0,0.0,0.0,0.0,0.0,0.0,0.0,0.0,0.0,0.0,0.0,0.0,0.0,0.0,0.0,0.0,0.0,0.0,0.0,0.0,0.0,0.0,0.0,0.0,0.0,0.0,0.0,0.0,0.0,0.0,0.0,0.0,0.0,0.0,0.0,0.0,0.0,0.0,0.0,0.0,0.0,0.0,0.0,0.0,0.0,0.0,0.0,0.0,0.0,0.0,0.0,0.0,0.0,0.0,0.0,0.0,0.0,0.0,0.0,0.0,0.0,0.0,0.0,0.0,0.0,0.0,0.0,0.0,0.0,0.0,0.0,0.0,0.0,0.0,0.0,0.0,0.0,0.0,0.0,0.0,0.0,0.0,0.0,1.947,2.1332,2.5577,2.8555,2.8651,2.795,2.6038,2.2391,0.0,0.0,0.0,0.0,0.0,0.0,0.0,0.0,0.0,0.0,0.0,0.0,0.0,0.0]}]]]